GFSWCAN_prec_precacc_060.txt.gz
Total_Precipitation_Accumulation
0.64 0.50 0.57 0.55 0.50 0.45 0.44 0.62 0.56 0.59 0.57 0.67 0.61 0.62 0.53 0.45 0.58 0.81 0.57 0.80 1.07 1.12 0.52 0.36 0.29 0.23 0.06 0.08 0.09 0.04 0.24 0.25 0.28 0.18 0.06 0.02 0.02 0.01 0.01 0.00 0.02 0.06 0.15 0.20 0.28 0.29 0.09 0.00 0.01 0.01 0.02 0.02 0.00 0.00
0.98 0.81 0.58 0.42 0.46 0.38 0.43 0.48 0.48 0.48 0.54 0.66 0.56 0.52 0.51 0.49 0.65 0.88 0.74 0.70 0.97 1.12 0.80 0.51 0.28 0.26 0.12 0.03 0.04 0.04 0.09 0.09 0.12 0.19 0.05 0.06 0.03 0.01 0.00 0.00 0.00 0.03 0.04 0.07 0.07 0.06 0.03 0.02 0.04 0.03 0.01 0.01 0.00 0.00
1.13 0.72 0.44 0.37 0.37 0.43 0.40 0.45 0.43 0.46 0.54 0.61 0.55 0.50 0.57 0.63 0.74 0.97 0.84 0.71 1.57 1.40 0.78 0.54 0.41 0.24 0.19 0.09 0.09 0.18 0.06 0.03 0.09 0.09 0.12 0.10 0.07 0.00 0.01 0.00 0.00 0.00 0.00 0.01 0.04 0.01 0.02 0.03 0.06 0.03 0.01 0.00 0.00 0.01
0.84 0.68 0.44 0.31 0.33 0.38 0.37 0.43 0.46 0.51 0.52 0.64 0.57 0.58 0.77 0.80 0.86 0.99 0.74 0.95 1.81 1.45 1.32 0.63 0.30 0.22 0.18 0.13 0.07 0.16 0.11 0.08 0.17 0.19 0.18 0.22 0.11 0.02 0.00 0.00 0.00 0.00 0.02 0.02 0.03 0.00 0.00 0.01 0.05 0.07 0.06 0.02 0.01 0.01
0.74 0.66 0.47 0.29 0.29 0.34 0.37 0.46 0.47 0.52 0.67 0.67 0.62 0.74 1.01 0.92 0.79 0.90 0.63 1.01 1.27 1.25 1.20 0.82 0.24 0.23 0.31 0.27 0.19 0.13 0.16 0.19 0.33 0.61 0.31 0.09 0.04 0.04 0.04 0.04 0.00 0.00 0.01 0.04 0.03 0.03 0.02 0.04 0.02 0.02 0.03 0.04 0.03 0.00
0.82 0.64 0.44 0.28 0.27 0.27 0.28 0.36 0.40 0.51 0.60 0.62 0.67 0.94 0.85 0.67 0.83 1.10 1.62 1.19 0.99 0.87 1.18 0.95 0.53 0.15 0.31 0.37 0.53 0.28 0.19 0.29 0.32 0.52 0.51 0.13 0.03 0.07 0.05 0.01 0.02 0.02 0.03 0.03 0.02 0.02 0.03 0.02 0.01 0.01 0.00 0.00 0.00 0.00
0.80 0.55 0.38 0.30 0.23 0.22 0.24 0.29 0.37 0.47 0.58 0.66 0.75 0.67 0.60 0.53 0.86 0.92 1.35 0.93 0.62 0.91 1.05 0.92 0.63 0.36 0.36 0.59 0.57 0.58 0.41 0.52 0.45 0.56 0.48 0.30 0.09 0.17 0.08 0.02 0.01 0.03 0.03 0.03 0.01 0.03 0.04 0.02 0.01 0.00 0.00 0.00 0.00 0.00
0.77 0.55 0.35 0.24 0.21 0.22 0.26 0.32 0.41 0.47 0.56 0.65 0.77 0.74 0.61 0.70 1.00 0.62 0.69 0.56 0.69 0.90 0.79 0.75 0.55 0.64 0.41 0.88 0.61 0.53 0.57 0.73 0.76 0.59 0.32 0.24 0.25 0.31 0.24 0.01 0.00 0.00 0.01 0.02 0.02 0.02 0.01 0.01 0.00 0.00 0.00 0.00 0.00 0.01
0.37 0.27 0.22 0.17 0.19 0.28 0.32 0.34 0.37 0.43 0.57 0.64 0.61 0.59 0.92 1.26 1.19 0.83 0.74 0.90 0.88 0.88 0.84 0.40 0.42 0.65 0.62 0.89 1.06 0.58 0.54 0.60 0.55 0.60 0.53 0.38 0.31 0.50 0.27 0.12 0.02 0.00 0.00 0.01 0.00 0.00 0.00 0.00 0.00 0.00 0.00 0.02 0.06 0.17
0.33 0.32 0.27 0.22 0.27 0.31 0.28 0.26 0.27 0.34 0.43 0.57 0.75 1.10 1.38 1.13 0.87 1.04 1.11 1.15 0.95 0.58 0.39 0.34 0.26 0.35 0.87 0.83 1.00 1.17 0.88 0.48 0.34 0.37 0.52 0.72 0.60 0.24 0.06 0.03 0.03 0.00 0.00 0.01 0.01 0.01 0.02 0.02 0.02 0.03 0.06 0.13 0.22 0.18
0.31 0.26 0.27 0.32 0.37 0.34 0.34 0.30 0.24 0.32 0.89 1.24 1.45 1.37 1.15 1.06 0.96 1.10 1.05 0.99 0.67 0.38 0.13 0.14 0.13 0.27 0.51 1.00 0.84 0.69 0.84 1.02 0.45 0.24 0.40 0.63 0.56 0.32 0.12 0.06 0.06 0.06 0.06 0.05 0.04 0.03 0.05 0.08 0.16 0.29 0.29 0.20 0.12 0.12
0.27 0.19 0.14 0.18 0.19 0.15 0.19 0.21 0.26 0.47 0.97 1.43 1.33 1.15 1.22 1.31 1.07 0.96 1.04 0.69 0.35 0.24 0.14 0.14 0.16 0.24 0.44 0.88 1.09 0.82 0.61 0.63 0.84 0.49 0.52 0.49 0.29 0.19 0.25 0.25 0.21 0.17 0.13 0.12 0.13 0.18 0.24 0.30 0.30 0.17 0.10 0.11 0.16 0.20
0.21 0.17 0.16 0.18 0.13 0.13 0.22 0.45 0.57 0.95 1.36 1.49 1.41 1.50 1.57 1.52 1.47 1.15 0.74 0.41 0.37 0.45 0.33 0.21 0.21 0.50 0.49 0.78 1.28 1.06 0.98 0.69 0.68 0.76 0.74 0.56 0.35 0.29 0.30 0.26 0.24 0.23 0.24 0.28 0.32 0.28 0.19 0.16 0.18 0.20 0.26 0.36 0.39 0.45
0.16 0.17 0.21 0.23 0.22 0.36 0.63 0.70 1.07 1.41 1.20 1.37 1.42 1.51 1.50 1.33 0.94 0.76 0.43 0.30 0.39 0.46 0.39 0.29 0.24 0.31 0.46 0.92 1.56 1.33 1.24 0.72 0.80 0.68 0.47 0.48 0.65 0.72 0.57 0.49 0.47 0.51 0.52 0.51 0.51 0.48 0.51 0.53 0.58 0.61 0.59 0.61 0.51 0.54
0.10 0.13 0.16 0.27 0.36 0.53 0.65 0.64 0.87 0.94 0.79 0.71 0.55 0.86 0.85 0.84 0.66 0.55 0.42 0.42 0.51 0.78 0.77 0.77 0.80 0.65 0.66 1.03 1.18 0.90 0.65 0.54 0.47 0.57 0.69 0.74 0.73 0.65 0.47 0.41 0.41 0.44 0.47 0.50 0.54 0.50 0.54 0.55 0.48 0.54 0.55 0.49 0.36 0.36
0.11 0.19 0.29 0.36 0.41 0.39 0.37 0.48 0.63 0.67 0.39 0.28 0.53 0.79 0.70 0.67 0.66 0.63 0.58 0.62 0.67 0.91 0.97 0.91 0.80 0.71 0.80 0.70 0.58 0.63 0.48 0.54 0.63 0.52 0.55 0.57 0.59 0.60 0.65 0.62 0.59 0.60 0.53 0.47 0.44 0.39 0.37 0.35 0.28 0.29 0.29 0.26 0.26 0.21
0.11 0.11 0.18 0.24 0.28 0.34 0.31 0.33 0.35 0.25 0.31 0.35 0.74 0.90 0.80 0.70 0.77 0.86 0.79 0.73 0.67 0.65 0.63 0.40 0.38 0.50 0.48 0.38 0.46 0.46 0.63 0.64 0.61 0.59 0.59 0.62 0.65 0.63 0.61 0.61 0.61 0.51 0.38 0.32 0.31 0.27 0.25 0.21 0.13 0.07 0.11 0.17 0.12 0.12
0.18 0.11 0.14 0.18 0.21 0.23 0.27 0.21 0.15 0.14 0.36 0.61 0.67 0.93 0.72 0.79 0.78 0.77 0.78 0.62 0.50 0.45 0.39 0.37 0.27 0.30 0.47 0.44 0.52 0.58 0.59 0.66 0.69 0.72 0.75 0.82 0.77 0.66 0.58 0.50 0.48 0.36 0.29 0.31 0.27 0.26 0.23 0.16 0.12 0.16 0.15 0.13 0.08 0.08
0.38 0.34 0.27 0.27 0.20 0.12 0.16 0.14 0.03 0.19 0.52 0.59 0.62 0.57 0.50 0.56 0.52 0.52 0.39 0.24 0.16 0.14 0.18 0.25 0.30 0.42 0.60 0.70 0.76 0.71 0.68 0.64 0.65 0.66 0.61 0.64 0.62 0.56 0.50 0.43 0.38 0.36 0.31 0.28 0.20 0.18 0.17 0.15 0.16 0.14 0.12 0.08 0.10 0.11
0.53 0.48 0.36 0.32 0.16 0.06 0.03 0.05 0.01 0.10 0.29 0.30 0.24 0.11 0.08 0.13 0.08 0.04 0.03 0.02 0.03 0.06 0.14 0.29 0.55 0.67 0.67 0.72 0.72 0.70 0.67 0.58 0.43 0.32 0.38 0.47 0.48 0.41 0.45 0.38 0.34 0.30 0.22 0.20 0.19 0.17 0.14 0.13 0.15 0.14 0.13 0.13 0.11 0.11
0.30 0.33 0.35 0.28 0.18 0.02 0.01 0.02 0.05 0.05 0.07 0.08 0.06 0.01 0.01 0.01 0.01 0.01 0.01 0.00 0.03 0.10 0.31 0.47 0.48 0.48 0.38 0.39 0.39 0.40 0.37 0.33 0.33 0.27 0.30 0.34 0.41 0.30 0.31 0.31 0.28 0.27 0.24 0.26 0.23 0.25 0.21 0.23 0.21 0.17 0.15 0.11 0.10 0.09
0.10 0.22 0.25 0.28 0.30 0.13 0.02 0.00 0.02 0.02 0.01 0.02 0.01 0.02 0.02 0.03 0.03 0.02 0.01 0.04 0.19 0.38 0.40 0.28 0.25 0.21 0.16 0.18 0.20 0.19 0.28 0.25 0.30 0.35 0.36 0.27 0.26 0.26 0.30 0.37 0.28 0.29 0.28 0.29 0.25 0.22 0.18 0.15 0.14 0.12 0.08 0.07 0.05 0.05
0.18 0.32 0.33 0.29 0.28 0.14 0.09 0.02 0.03 0.00 0.01 0.01 0.02 0.02 0.02 0.03 0.03 0.02 0.05 0.13 0.30 0.34 0.29 0.16 0.13 0.12 0.13 0.17 0.10 0.08 0.07 0.07 0.12 0.23 0.32 0.31 0.30 0.32 0.30 0.30 0.28 0.25 0.21 0.20 0.18 0.15 0.13 0.10 0.06 0.04 0.03 0.04 0.05 0.04
0.24 0.43 0.44 0.33 0.16 0.14 0.08 0.07 0.04 0.03 0.01 0.02 0.03 0.04 0.04 0.04 0.02 0.03 0.07 0.16 0.27 0.17 0.12 0.15 0.14 0.15 0.13 0.13 0.14 0.18 0.21 0.15 0.17 0.20 0.23 0.19 0.17 0.20 0.15 0.13 0.12 0.12 0.11 0.09 0.06 0.04 0.03 0.02 0.02 0.04 0.04 0.04 0.03 0.04
0.41 0.36 0.32 0.26 0.14 0.07 0.04 0.04 0.05 0.04 0.03 0.02 0.04 0.05 0.04 0.02 0.04 0.05 0.08 0.23 0.18 0.17 0.17 0.17 0.15 0.14 0.16 0.19 0.18 0.17 0.14 0.12 0.10 0.10 0.13 0.11 0.10 0.09 0.06 0.05 0.04 0.04 0.04 0.05 0.03 0.03 0.03 0.04 0.03 0.03 0.03 0.05 0.07 0.08
0.36 0.22 0.14 0.10 0.07 0.08 0.05 0.03 0.03 0.04 0.04 0.09 0.11 0.08 0.05 0.08 0.08 0.12 0.18 0.27 0.21 0.23 0.25 0.26 0.22 0.15 0.14 0.13 0.12 0.11 0.08 0.08 0.05 0.04 0.05 0.02 0.04 0.05 0.04 0.03 0.03 0.03 0.05 0.06 0.07 0.07 0.03 0.03 0.04 0.04 0.06 0.06 0.08 0.12
0.16 0.10 0.04 0.03 0.07 0.13 0.18 0.15 0.14 0.16 0.15 0.16 0.12 0.09 0.13 0.17 0.14 0.22 0.24 0.25 0.23 0.24 0.20 0.18 0.13 0.11 0.12 0.11 0.08 0.06 0.02 0.01 0.01 0.02 0.01 0.02 0.03 0.04 0.06 0.09 0.12 0.10 0.05 0.05 0.08 0.10 0.11 0.10 0.08 0.07 0.08 0.08 0.10 0.15
0.06 0.07 0.08 0.11 0.18 0.20 0.18 0.16 0.19 0.21 0.23 0.20 0.16 0.15 0.16 0.15 0.20 0.28 0.26 0.28 0.21 0.13 0.08 0.06 0.03 0.03 0.03 0.05 0.06 0.06 0.03 0.01 0.01 0.01 0.02 0.06 0.07 0.05 0.04 0.06 0.06 0.04 0.05 0.07 0.08 0.09 0.10 0.13 0.12 0.12 0.12 0.14 0.17 0.19
0.09 0.10 0.10 0.10 0.06 0.04 0.08 0.11 0.12 0.13 0.13 0.10 0.08 0.09 0.11 0.14 0.24 0.24 0.23 0.19 0.15 0.10 0.08 0.07 0.11 0.07 0.05 0.02 0.02 0.02 0.01 0.01 0.00 0.00 0.01 0.03 0.07 0.05 0.03 0.04 0.05 0.04 0.05 0.05 0.05 0.06 0.09 0.13 0.12 0.16 0.19 0.21 0.19 0.16
0.01 0.01 0.01 0.00 0.02 0.06 0.10 0.07 0.09 0.08 0.04 0.03 0.04 0.06 0.08 0.18 0.28 0.22 0.15 0.13 0.11 0.11 0.11 0.09 0.09 0.05 0.05 0.04 0.03 0.04 0.06 0.02 0.01 0.02 0.04 0.04 0.04 0.05 0.04 0.05 0.04 0.05 0.06 0.06 0.04 0.04 0.06 0.05 0.07 0.15 0.10 0.10 0.12 0.12
0.01 0.01 0.01 0.01 0.06 0.09 0.07 0.04 0.05 0.07 0.07 0.05 0.05 0.06 0.14 0.16 0.17 0.13 0.10 0.13 0.07 0.06 0.05 0.03 0.03 0.03 0.02 0.02 0.03 0.03 0.04 0.03 0.03 0.03 0.03 0.04 0.04 0.04 0.04 0.03 0.04 0.06 0.06 0.06 0.06 0.07 0.07 0.07 0.09 0.11 0.06 0.06 0.08 0.08
0.01 0.03 0.02 0.05 0.11 0.08 0.08 0.12 0.09 0.12 0.10 0.06 0.09 0.07 0.11 0.10 0.09 0.09 0.08 0.08 0.06 0.05 0.03 0.04 0.04 0.05 0.04 0.03 0.03 0.04 0.04 0.03 0.02 0.02 0.03 0.04 0.04 0.03 0.03 0.02 0.04 0.06 0.06 0.06 0.06 0.08 0.09 0.09 0.09 0.08 0.09 0.07 0.07 0.06
0.02 0.01 0.01 0.02 0.05 0.07 0.06 0.05 0.06 0.06 0.07 0.08 0.11 0.10 0.11 0.10 0.08 0.11 0.09 0.05 0.06 0.04 0.03 0.03 0.03 0.04 0.05 0.02 0.01 0.02 0.01 0.01 0.01 0.02 0.03 0.04 0.02 0.02 0.02 0.03 0.04 0.05 0.06 0.07 0.08 0.09 0.08 0.07 0.07 0.07 0.06 0.06 0.05 0.04

GFSWCAN_prec_precacc_063.txt.gz
Total_Precipitation_Accumulation
0.67 0.52 0.59 0.56 0.51 0.46 0.44 0.62 0.56 0.60 0.58 0.68 0.63 0.65 0.54 0.47 0.61 0.94 0.81 0.91 1.15 1.25 0.55 0.37 0.30 0.24 0.06 0.08 0.09 0.04 0.24 0.25 0.28 0.18 0.06 0.02 0.02 0.01 0.01 0.00 0.02 0.06 0.15 0.20 0.28 0.29 0.13 0.04 0.08 0.07 0.04 0.02 0.00 0.00
0.99 0.82 0.60 0.44 0.46 0.39 0.44 0.50 0.50 0.50 0.55 0.67 0.57 0.53 0.53 0.50 0.67 0.93 0.80 0.77 1.04 1.26 0.84 0.52 0.30 0.28 0.13 0.03 0.04 0.04 0.09 0.09 0.12 0.19 0.05 0.06 0.03 0.01 0.00 0.00 0.00 0.03 0.04 0.07 0.07 0.06 0.04 0.04 0.11 0.11 0.05 0.03 0.01 0.01
1.14 0.75 0.46 0.39 0.38 0.44 0.42 0.46 0.44 0.47 0.56 0.62 0.55 0.50 0.59 0.65 0.78 1.04 0.86 0.73 1.64 1.55 0.83 0.55 0.45 0.25 0.21 0.10 0.10 0.18 0.06 0.03 0.09 0.09 0.13 0.11 0.07 0.00 0.01 0.00 0.00 0.00 0.00 0.01 0.04 0.01 0.02 0.03 0.06 0.03 0.01 0.01 0.01 0.01
0.88 0.71 0.48 0.33 0.34 0.39 0.38 0.44 0.47 0.52 0.53 0.66 0.59 0.59 0.78 0.81 0.89 1.10 0.88 0.99 1.83 1.50 1.34 0.64 0.31 0.23 0.19 0.14 0.09 0.17 0.13 0.10 0.19 0.21 0.21 0.25 0.12 0.03 0.01 0.00 0.00 0.00 0.02 0.02 0.03 0.00 0.00 0.01 0.05 0.07 0.06 0.02 0.01 0.01
0.79 0.69 0.47 0.29 0.29 0.34 0.38 0.48 0.52 0.58 0.72 0.70 0.64 0.75 1.03 0.94 0.82 1.00 0.89 1.09 1.27 1.25 1.20 0.83 0.24 0.23 0.32 0.28 0.19 0.15 0.19 0.24 0.38 0.65 0.36 0.11 0.04 0.05 0.07 0.05 0.00 0.00 0.02 0.05 0.03 0.04 0.03 0.04 0.02 0.02 0.03 0.04 0.03 0.00
0.87 0.65 0.45 0.29 0.28 0.29 0.30 0.38 0.40 0.52 0.62 0.66 0.70 0.97 0.87 0.70 0.92 1.36 2.06 1.41 1.00 0.89 1.22 0.96 0.55 0.16 0.32 0.37 0.53 0.28 0.20 0.30 0.35 0.56 0.52 0.16 0.07 0.11 0.05 0.01 0.02 0.03 0.04 0.04 0.03 0.03 0.04 0.03 0.01 0.01 0.01 0.01 0.01 0.00
0.82 0.57 0.42 0.33 0.24 0.23 0.24 0.29 0.37 0.48 0.61 0.69 0.80 0.72 0.63 0.60 1.01 1.11 1.54 1.06 0.64 0.93 1.17 1.01 0.67 0.41 0.42 0.62 0.57 0.60 0.42 0.54 0.47 0.60 0.53 0.33 0.12 0.26 0.17 0.03 0.01 0.03 0.04 0.05 0.03 0.07 0.07 0.04 0.02 0.01 0.00 0.01 0.01 0.00
0.78 0.57 0.39 0.27 0.23 0.25 0.28 0.34 0.42 0.49 0.60 0.74 0.86 0.80 0.67 0.81 1.12 0.70 0.70 0.56 0.71 1.01 0.93 0.94 0.58 0.67 0.46 0.91 0.62 0.55 0.61 0.79 0.79 0.64 0.47 0.34 0.33 0.44 0.39 0.07 0.00 0.00 0.01 0.03 0.05 0.05 0.03 0.03 0.02 0.01 0.01 0.01 0.01 0.01
0.38 0.29 0.26 0.22 0.24 0.32 0.39 0.44 0.47 0.51 0.68 0.75 0.66 0.64 1.08 1.41 1.31 1.05 0.76 0.91 0.96 1.00 0.93 0.42 0.42 0.66 0.63 0.91 1.08 0.60 0.58 0.67 0.58 0.61 0.56 0.49 0.45 0.78 0.43 0.17 0.05 0.01 0.00 0.01 0.00 0.02 0.04 0.02 0.02 0.02 0.01 0.02 0.06 0.17
0.34 0.33 0.28 0.23 0.28 0.33 0.31 0.32 0.35 0.41 0.48 0.60 0.84 1.28 1.63 1.29 1.13 1.16 1.21 1.35 1.17 0.63 0.39 0.34 0.26 0.35 0.89 0.84 1.00 1.18 0.91 0.51 0.36 0.38 0.55 0.76 0.64 0.27 0.08 0.06 0.09 0.08 0.05 0.02 0.01 0.01 0.03 0.03 0.03 0.04 0.07 0.14 0.22 0.18
0.32 0.27 0.27 0.33 0.37 0.34 0.34 0.30 0.24 0.32 0.90 1.29 1.50 1.48 1.27 1.21 1.04 1.16 1.14 1.07 0.70 0.38 0.13 0.14 0.13 0.27 0.52 1.00 0.85 0.70 0.92 1.03 0.46 0.26 0.42 0.64 0.58 0.33 0.13 0.06 0.06 0.07 0.09 0.10 0.05 0.03 0.05 0.08 0.16 0.29 0.29 0.20 0.12 0.12
0.27 0.19 0.14 0.18 0.19 0.15 0.19 0.21 0.26 0.47 0.97 1.43 1.34 1.16 1.24 1.31 1.07 0.96 1.04 0.69 0.35 0.24 0.14 0.14 0.16 0.24 0.44 0.88 1.09 0.82 0.66 0.65 0.86 0.51 0.53 0.50 0.31 0.21 0.25 0.25 0.21 0.18 0.14 0.13 0.14 0.18 0.24 0.30 0.31 0.19 0.11 0.12 0.17 0.21
0.21 0.17 0.16 0.18 0.13 0.13 0.22 0.45 0.57 0.95 1.36 1.49 1.41 1.50 1.57 1.52 1.47 1.15 0.74 0.42 0.40 0.47 0.34 0.21 0.21 0.50 0.49 0.79 1.31 1.10 1.00 0.74 0.72 0.78 0.76 0.58 0.37 0.30 0.31 0.26 0.25 0.24 0.25 0.29 0.33 0.29 0.20 0.17 0.20 0.23 0.31 0.42 0.44 0.50
0.16 0.17 0.21 0.23 0.22 0.36 0.63 0.70 1.07 1.41 1.20 1.37 1.42 1.51 1.50 1.34 0.95 0.77 0.44 0.31 0.41 0.48 0.41 0.30 0.27 0.35 0.55 1.00 1.73 1.44 1.28 0.75 0.82 0.70 0.48 0.50 0.67 0.74 0.58 0.51 0.48 0.53 0.54 0.53 0.54 0.50 0.53 0.56 0.61 0.65 0.64 0.67 0.55 0.60
0.10 0.13 0.16 0.27 0.36 0.53 0.65 0.64 0.87 0.94 0.79 0.71 0.55 0.86 0.86 0.87 0.67 0.56 0.43 0.43 0.53 0.80 0.78 0.79 0.83 0.69 0.75 1.14 1.24 0.93 0.67 0.55 0.47 0.58 0.71 0.78 0.76 0.67 0.49 0.43 0.43 0.47 0.50 0.53 0.58 0.53 0.58 0.59 0.51 0.59 0.61 0.54 0.40 0.40
0.11 0.19 0.29 0.36 0.41 0.39 0.37 0.48 0.63 0.67 0.39 0.28 0.54 0.80 0.71 0.67 0.67 0.63 0.59 0.63 0.68 0.92 0.98 0.92 0.81 0.73 0.84 0.74 0.62 0.66 0.49 0.55 0.65 0.54 0.59 0.61 0.62 0.64 0.68 0.65 0.63 0.64 0.58 0.51 0.48 0.43 0.41 0.38 0.31 0.33 0.33 0.30 0.31 0.24
0.11 0.11 0.18 0.24 0.28 0.34 0.31 0.33 0.35 0.25 0.31 0.38 0.78 0.94 0.82 0.71 0.78 0.87 0.80 0.74 0.68 0.66 0.63 0.40 0.38 0.50 0.49 0.40 0.47 0.49 0.70 0.71 0.65 0.63 0.62 0.65 0.69 0.68 0.66 0.66 0.66 0.56 0.43 0.37 0.36 0.31 0.30 0.26 0.16 0.10 0.14 0.21 0.16 0.15
0.18 0.11 0.14 0.18 0.21 0.23 0.27 0.21 0.15 0.14 0.39 0.67 0.73 0.98 0.75 0.81 0.79 0.77 0.78 0.62 0.50 0.45 0.39 0.37 0.27 0.30 0.47 0.44 0.53 0.60 0.62 0.70 0.76 0.79 0.82 0.89 0.83 0.72 0.64 0.55 0.53 0.41 0.32 0.33 0.28 0.27 0.24 0.17 0.13 0.17 0.16 0.14 0.08 0.08
0.38 0.34 0.27 0.27 0.20 0.12 0.16 0.14 0.03 0.20 0.56 0.64 0.67 0.60 0.52 0.59 0.54 0.54 0.39 0.24 0.16 0.14 0.18 0.25 0.30 0.43 0.61 0.71 0.76 0.72 0.69 0.65 0.67 0.69 0.64 0.68 0.65 0.59 0.52 0.44 0.38 0.37 0.31 0.28 0.21 0.19 0.18 0.15 0.16 0.14 0.12 0.08 0.10 0.12
0.53 0.48 0.36 0.32 0.16 0.06 0.03 0.05 0.01 0.10 0.31 0.33 0.26 0.13 0.10 0.15 0.08 0.04 0.03 0.02 0.03 0.06 0.14 0.29 0.57 0.69 0.69 0.73 0.72 0.71 0.68 0.59 0.44 0.33 0.39 0.48 0.50 0.41 0.45 0.39 0.35 0.31 0.22 0.20 0.19 0.17 0.14 0.13 0.15 0.14 0.13 0.13 0.11 0.11
0.30 0.33 0.35 0.28 0.18 0.02 0.01 0.02 0.05 0.05 0.08 0.09 0.06 0.01 0.01 0.01 0.01 0.01 0.01 0.00 0.03 0.10 0.33 0.49 0.50 0.52 0.40 0.41 0.40 0.40 0.38 0.33 0.33 0.27 0.30 0.35 0.42 0.31 0.31 0.31 0.28 0.27 0.24 0.26 0.23 0.25 0.21 0.23 0.21 0.17 0.15 0.11 0.10 0.09
0.10 0.22 0.25 0.28 0.30 0.13 0.02 0.00 0.02 0.02 0.01 0.02 0.01 0.02 0.02 0.03 0.03 0.02 0.01 0.04 0.21 0.40 0.43 0.30 0.27 0.22 0.17 0.19 0.21 0.19 0.28 0.25 0.30 0.35 0.36 0.27 0.27 0.27 0.30 0.37 0.28 0.29 0.28 0.29 0.25 0.22 0.18 0.16 0.14 0.12 0.08 0.07 0.05 0.05
0.18 0.32 0.33 0.29 0.28 0.14 0.09 0.02 0.03 0.00 0.01 0.01 0.02 0.02 0.02 0.03 0.03 0.02 0.05 0.14 0.33 0.36 0.30 0.17 0.14 0.13 0.13 0.18 0.10 0.08 0.07 0.07 0.12 0.23 0.32 0.31 0.30 0.32 0.30 0.30 0.28 0.25 0.22 0.21 0.18 0.15 0.13 0.10 0.06 0.04 0.03 0.04 0.05 0.04
0.24 0.43 0.44 0.33 0.16 0.14 0.08 0.07 0.04 0.03 0.01 0.02 0.03 0.04 0.04 0.04 0.02 0.03 0.07 0.17 0.30 0.18 0.12 0.15 0.14 0.15 0.13 0.13 0.14 0.18 0.21 0.15 0.17 0.20 0.23 0.19 0.17 0.21 0.15 0.14 0.12 0.12 0.11 0.09 0.06 0.04 0.03 0.02 0.02 0.04 0.04 0.04 0.03 0.04
0.41 0.36 0.32 0.26 0.14 0.07 0.04 0.04 0.05 0.04 0.03 0.02 0.04 0.05 0.04 0.02 0.04 0.05 0.08 0.24 0.20 0.18 0.17 0.17 0.15 0.14 0.16 0.19 0.18 0.17 0.14 0.12 0.10 0.10 0.13 0.11 0.10 0.09 0.06 0.05 0.04 0.05 0.04 0.05 0.03 0.03 0.03 0.04 0.03 0.03 0.03 0.05 0.07 0.08
0.36 0.22 0.14 0.10 0.07 0.08 0.05 0.03 0.03 0.04 0.04 0.09 0.11 0.09 0.05 0.08 0.08 0.13 0.18 0.27 0.22 0.23 0.25 0.26 0.22 0.15 0.14 0.13 0.12 0.11 0.08 0.08 0.05 0.04 0.06 0.02 0.04 0.05 0.04 0.03 0.03 0.03 0.05 0.06 0.07 0.07 0.03 0.03 0.04 0.04 0.06 0.06 0.08 0.12
0.16 0.10 0.04 0.03 0.07 0.13 0.18 0.15 0.14 0.16 0.15 0.16 0.12 0.09 0.13 0.17 0.15 0.22 0.25 0.25 0.23 0.25 0.20 0.18 0.13 0.11 0.12 0.11 0.08 0.06 0.02 0.01 0.01 0.02 0.01 0.02 0.03 0.04 0.06 0.09 0.12 0.10 0.05 0.05 0.08 0.10 0.11 0.10 0.08 0.07 0.08 0.08 0.10 0.15
0.06 0.07 0.08 0.11 0.18 0.20 0.18 0.16 0.19 0.22 0.23 0.20 0.16 0.15 0.16 0.15 0.21 0.28 0.27 0.29 0.21 0.13 0.08 0.06 0.03 0.03 0.03 0.05 0.06 0.06 0.03 0.01 0.01 0.01 0.02 0.06 0.07 0.05 0.04 0.06 0.06 0.04 0.05 0.07 0.08 0.09 0.10 0.13 0.12 0.12 0.12 0.14 0.17 0.19
0.09 0.10 0.10 0.10 0.06 0.04 0.08 0.12 0.13 0.13 0.13 0.10 0.08 0.10 0.11 0.15 0.25 0.25 0.24 0.19 0.15 0.10 0.08 0.07 0.11 0.07 0.05 0.02 0.02 0.02 0.01 0.01 0.00 0.00 0.01 0.03 0.07 0.05 0.03 0.04 0.05 0.04 0.05 0.05 0.05 0.06 0.10 0.13 0.12 0.16 0.19 0.21 0.19 0.16
0.01 0.01 0.01 0.00 0.02 0.06 0.10 0.07 0.09 0.08 0.04 0.03 0.04 0.07 0.09 0.19 0.30 0.22 0.15 0.13 0.11 0.11 0.11 0.09 0.09 0.05 0.05 0.04 0.03 0.04 0.06 0.02 0.01 0.02 0.04 0.04 0.04 0.05 0.04 0.05 0.04 0.05 0.06 0.06 0.04 0.04 0.06 0.05 0.07 0.15 0.10 0.10 0.12 0.12
0.01 0.01 0.01 0.01 0.06 0.10 0.07 0.04 0.05 0.07 0.07 0.05 0.05 0.06 0.14 0.17 0.18 0.14 0.11 0.14 0.07 0.06 0.05 0.03 0.03 0.03 0.02 0.02 0.03 0.03 0.04 0.03 0.03 0.03 0.03 0.04 0.04 0.04 0.04 0.03 0.04 0.06 0.06 0.06 0.06 0.07 0.07 0.07 0.09 0.11 0.06 0.06 0.08 0.08
0.01 0.03 0.02 0.05 0.12 0.08 0.08 0.12 0.09 0.12 0.10 0.06 0.09 0.07 0.11 0.10 0.09 0.10 0.09 0.09 0.06 0.05 0.03 0.04 0.04 0.05 0.04 0.03 0.03 0.04 0.04 0.03 0.02 0.02 0.03 0.04 0.04 0.03 0.03 0.02 0.04 0.06 0.06 0.06 0.06 0.08 0.09 0.09 0.09 0.08 0.09 0.07 0.07 0.06
0.02 0.01 0.01 0.02 0.05 0.08 0.07 0.05 0.06 0.06 0.07 0.08 0.11 0.10 0.11 0.10 0.08 0.11 0.10 0.05 0.06 0.04 0.03 0.03 0.03 0.04 0.05 0.02 0.01 0.02 0.01 0.01 0.01 0.02 0.03 0.04 0.02 0.02 0.02 0.03 0.04 0.05 0.06 0.07 0.08 0.09 0.08 0.07 0.07 0.07 0.06 0.06 0.05 0.04

GFSWCAN_prec_precacc_066.txt.gz
Total_Precipitation_Accumulation
0.69 0.54 0.60 0.57 0.52 0.47 0.46 0.63 0.58 0.61 0.60 0.70 0.65 0.67 0.58 0.56 0.79 1.27 1.12 1.01 1.24 1.38 0.66 0.40 0.31 0.25 0.07 0.08 0.09 0.04 0.27 0.27 0.28 0.20 0.07 0.03 0.02 0.01 0.01 0.00 0.03 0.07 0.16 0.21 0.29 0.30 0.13 0.04 0.08 0.08 0.04 0.02 0.01 0.00
1.00 0.83 0.61 0.47 0.50 0.41 0.46 0.51 0.51 0.52 0.58 0.70 0.59 0.56 0.56 0.56 0.78 1.17 1.18 0.91 1.10 1.41 0.94 0.54 0.30 0.28 0.13 0.03 0.04 0.04 0.09 0.09 0.12 0.19 0.05 0.06 0.03 0.01 0.00 0.00 0.00 0.03 0.04 0.07 0.07 0.06 0.04 0.04 0.11 0.11 0.05 0.04 0.01 0.01
1.15 0.77 0.49 0.42 0.40 0.46 0.44 0.48 0.47 0.50 0.60 0.66 0.60 0.53 0.61 0.69 0.84 1.18 1.06 0.85 1.77 1.74 0.94 0.58 0.45 0.25 0.22 0.11 0.10 0.18 0.06 0.03 0.10 0.09 0.13 0.11 0.07 0.00 0.01 0.00 0.00 0.00 0.00 0.01 0.04 0.01 0.02 0.03 0.06 0.03 0.01 0.01 0.01 0.01
0.92 0.75 0.49 0.35 0.36 0.41 0.39 0.45 0.49 0.55 0.57 0.70 0.62 0.63 0.80 0.85 0.93 1.18 0.97 1.05 1.87 1.55 1.39 0.65 0.31 0.23 0.19 0.16 0.11 0.19 0.14 0.10 0.19 0.23 0.22 0.25 0.12 0.03 0.01 0.00 0.00 0.00 0.02 0.02 0.04 0.00 0.00 0.01 0.05 0.07 0.06 0.03 0.01 0.01
0.85 0.70 0.48 0.29 0.30 0.35 0.39 0.50 0.54 0.60 0.73 0.73 0.67 0.78 1.05 0.98 0.90 1.07 0.94 1.12 1.27 1.25 1.21 0.83 0.24 0.23 0.32 0.28 0.21 0.19 0.22 0.27 0.40 0.66 0.37 0.11 0.04 0.05 0.07 0.09 0.02 0.01 0.02 0.05 0.03 0.04 0.03 0.04 0.02 0.02 0.03 0.04 0.03 0.00
0.89 0.66 0.46 0.30 0.28 0.29 0.31 0.39 0.41 0.54 0.67 0.71 0.74 1.00 0.90 0.73 1.02 1.65 2.34 1.59 1.02 0.90 1.22 0.96 0.55 0.16 0.32 0.38 0.55 0.31 0.25 0.39 0.47 0.64 0.56 0.16 0.07 0.13 0.06 0.02 0.02 0.04 0.04 0.04 0.03 0.03 0.04 0.03 0.01 0.01 0.02 0.03 0.02 0.01
0.84 0.59 0.46 0.35 0.25 0.24 0.26 0.30 0.37 0.48 0.62 0.75 0.88 0.75 0.66 0.63 1.12 1.31 1.62 1.11 0.65 0.93 1.19 1.03 0.68 0.43 0.42 0.63 0.59 0.60 0.44 0.57 0.51 0.63 0.58 0.35 0.13 0.33 0.27 0.18 0.07 0.04 0.04 0.05 0.03 0.07 0.07 0.04 0.03 0.02 0.01 0.02 0.02 0.01
0.79 0.60 0.43 0.30 0.29 0.28 0.30 0.36 0.45 0.52 0.62 0.80 0.98 0.85 0.74 0.87 1.19 0.75 0.70 0.56 0.71 1.04 1.00 1.13 0.60 0.75 0.48 0.93 0.67 0.59 0.63 0.82 0.83 0.65 0.47 0.35 0.35 0.47 0.43 0.12 0.05 0.02 0.02 0.03 0.05 0.05 0.03 0.03 0.02 0.02 0.02 0.02 0.02 0.02
0.38 0.34 0.31 0.25 0.26 0.38 0.49 0.53 0.55 0.61 0.79 0.91 0.80 0.78 1.24 1.48 1.39 1.08 0.77 0.92 0.97 1.03 0.99 0.65 0.51 0.75 0.68 0.97 1.09 0.62 0.59 0.70 0.62 0.66 0.57 0.50 0.50 0.84 0.50 0.22 0.08 0.02 0.02 0.02 0.01 0.03 0.05 0.07 0.09 0.08 0.04 0.04 0.08 0.18
0.35 0.33 0.29 0.25 0.30 0.34 0.35 0.38 0.42 0.47 0.55 0.66 0.90 1.38 1.82 1.41 1.19 1.25 1.38 1.49 1.31 0.76 0.45 0.41 0.29 0.36 0.94 0.91 1.01 1.22 0.94 0.53 0.39 0.44 0.57 0.78 0.68 0.30 0.09 0.06 0.12 0.16 0.15 0.08 0.04 0.03 0.04 0.04 0.06 0.09 0.11 0.16 0.23 0.19
0.32 0.27 0.28 0.33 0.38 0.35 0.34 0.30 0.25 0.32 0.92 1.31 1.54 1.63 1.61 1.46 1.15 1.32 1.36 1.25 0.93 0.54 0.16 0.15 0.13 0.27 0.53 1.01 0.85 0.71 1.00 1.05 0.49 0.30 0.46 0.67 0.60 0.35 0.13 0.06 0.06 0.08 0.11 0.12 0.11 0.10 0.09 0.11 0.18 0.30 0.30 0.20 0.12 0.12
0.27 0.19 0.14 0.18 0.19 0.15 0.19 0.21 0.27 0.47 0.97 1.44 1.40 1.38 1.43 1.35 1.10 1.00 1.10 0.75 0.39 0.25 0.15 0.14 0.16 0.24 0.45 0.88 1.10 0.84 0.80 0.74 0.90 0.58 0.58 0.54 0.33 0.22 0.25 0.25 0.22 0.19 0.15 0.14 0.16 0.21 0.29 0.35 0.34 0.21 0.13 0.14 0.18 0.22
0.21 0.17 0.16 0.18 0.13 0.13 0.22 0.46 0.58 0.96 1.36 1.49 1.41 1.51 1.57 1.52 1.47 1.15 0.74 0.43 0.41 0.47 0.34 0.22 0.21 0.50 0.49 0.79 1.32 1.12 1.05 0.84 0.77 0.82 0.80 0.60 0.39 0.31 0.31 0.27 0.26 0.25 0.26 0.31 0.36 0.32 0.23 0.20 0.22 0.25 0.32 0.44 0.46 0.52
0.16 0.17 0.21 0.23 0.22 0.36 0.63 0.70 1.07 1.41 1.20 1.37 1.42 1.51 1.50 1.34 0.95 0.78 0.45 0.32 0.43 0.49 0.41 0.31 0.28 0.35 0.56 1.02 1.78 1.53 1.32 0.76 0.83 0.71 0.50 0.52 0.68 0.75 0.59 0.52 0.49 0.55 0.56 0.54 0.56 0.53 0.56 0.58 0.64 0.68 0.67 0.71 0.57 0.63
0.10 0.13 0.16 0.27 0.36 0.53 0.65 0.64 0.87 0.94 0.79 0.71 0.55 0.87 0.86 0.88 0.69 0.58 0.45 0.45 0.55 0.83 0.81 0.82 0.85 0.70 0.79 1.19 1.26 0.96 0.69 0.56 0.48 0.59 0.72 0.80 0.78 0.68 0.51 0.46 0.45 0.49 0.53 0.56 0.61 0.56 0.62 0.64 0.54 0.63 0.66 0.58 0.44 0.44
0.11 0.19 0.29 0.36 0.41 0.39 0.37 0.48 0.63 0.67 0.39 0.28 0.54 0.81 0.71 0.68 0.67 0.64 0.60 0.65 0.70 0.95 1.00 0.93 0.82 0.74 0.88 0.79 0.66 0.69 0.50 0.55 0.66 0.55 0.61 0.63 0.64 0.67 0.72 0.69 0.68 0.70 0.63 0.56 0.52 0.47 0.44 0.42 0.34 0.37 0.36 0.33 0.33 0.26
0.11 0.11 0.18 0.24 0.28 0.34 0.31 0.33 0.35 0.25 0.31 0.39 0.78 0.94 0.83 0.72 0.79 0.89 0.81 0.75 0.69 0.66 0.64 0.41 0.39 0.52 0.52 0.43 0.52 0.54 0.76 0.75 0.69 0.68 0.66 0.68 0.72 0.73 0.72 0.71 0.72 0.60 0.46 0.40 0.39 0.35 0.33 0.30 0.19 0.11 0.16 0.25 0.18 0.17
0.18 0.11 0.14 0.18 0.21 0.23 0.27 0.21 0.15 0.15 0.41 0.70 0.74 0.99 0.76 0.82 0.80 0.77 0.78 0.62 0.50 0.45 0.39 0.37 0.28 0.30 0.50 0.48 0.54 0.61 0.64 0.73 0.80 0.84 0.88 0.95 0.88 0.77 0.68 0.59 0.57 0.45 0.36 0.37 0.31 0.29 0.25 0.18 0.13 0.18 0.16 0.14 0.08 0.08
0.38 0.34 0.27 0.27 0.20 0.12 0.16 0.14 0.03 0.21 0.58 0.65 0.68 0.60 0.52 0.59 0.54 0.54 0.39 0.24 0.16 0.14 0.18 0.25 0.30 0.43 0.62 0.71 0.76 0.73 0.70 0.66 0.69 0.72 0.68 0.73 0.70 0.63 0.57 0.48 0.42 0.40 0.33 0.30 0.21 0.19 0.18 0.15 0.16 0.14 0.12 0.08 0.10 0.12
0.53 0.48 0.36 0.32 0.16 0.06 0.03 0.06 0.01 0.11 0.33 0.34 0.28 0.14 0.10 0.16 0.08 0.04 0.03 0.02 0.03 0.06 0.14 0.30 0.58 0.70 0.70 0.74 0.72 0.71 0.69 0.60 0.45 0.34 0.41 0.51 0.53 0.44 0.47 0.41 0.36 0.32 0.23 0.21 0.20 0.17 0.14 0.13 0.15 0.14 0.13 0.13 0.11 0.11
0.30 0.33 0.35 0.28 0.18 0.02 0.01 0.02 0.05 0.05 0.09 0.11 0.07 0.02 0.02 0.01 0.01 0.01 0.01 0.00 0.03 0.11 0.34 0.51 0.53 0.55 0.41 0.42 0.41 0.40 0.39 0.34 0.34 0.28 0.31 0.37 0.44 0.31 0.32 0.32 0.28 0.27 0.24 0.26 0.23 0.25 0.22 0.23 0.21 0.17 0.15 0.11 0.10 0.09
0.10 0.22 0.25 0.28 0.30 0.13 0.02 0.00 0.02 0.02 0.01 0.02 0.02 0.02 0.02 0.03 0.03 0.02 0.01 0.04 0.22 0.42 0.46 0.33 0.29 0.24 0.18 0.20 0.22 0.20 0.29 0.26 0.31 0.35 0.37 0.28 0.27 0.27 0.31 0.37 0.28 0.30 0.28 0.29 0.25 0.22 0.19 0.16 0.14 0.12 0.08 0.07 0.05 0.05
0.18 0.32 0.33 0.29 0.28 0.14 0.09 0.02 0.03 0.01 0.01 0.01 0.02 0.02 0.02 0.03 0.03 0.02 0.05 0.15 0.35 0.39 0.31 0.17 0.14 0.13 0.14 0.18 0.11 0.09 0.07 0.07 0.12 0.23 0.32 0.31 0.30 0.32 0.30 0.30 0.28 0.25 0.22 0.21 0.18 0.15 0.13 0.10 0.07 0.04 0.03 0.04 0.05 0.04
0.24 0.43 0.44 0.33 0.16 0.14 0.08 0.07 0.04 0.03 0.01 0.02 0.03 0.04 0.04 0.04 0.02 0.03 0.08 0.18 0.31 0.19 0.12 0.16 0.14 0.15 0.13 0.13 0.14 0.18 0.21 0.15 0.17 0.20 0.23 0.19 0.17 0.21 0.16 0.14 0.12 0.12 0.11 0.09 0.06 0.04 0.03 0.02 0.02 0.04 0.04 0.04 0.03 0.04
0.41 0.36 0.32 0.26 0.14 0.07 0.04 0.04 0.05 0.04 0.03 0.02 0.04 0.06 0.04 0.02 0.04 0.05 0.08 0.25 0.20 0.18 0.17 0.17 0.15 0.14 0.16 0.19 0.18 0.17 0.14 0.12 0.10 0.10 0.13 0.11 0.10 0.09 0.06 0.05 0.04 0.05 0.04 0.05 0.03 0.03 0.03 0.04 0.03 0.03 0.03 0.05 0.07 0.08
0.36 0.22 0.14 0.10 0.07 0.08 0.05 0.03 0.03 0.04 0.04 0.09 0.11 0.09 0.05 0.08 0.08 0.13 0.19 0.27 0.22 0.23 0.25 0.26 0.22 0.15 0.14 0.13 0.12 0.11 0.08 0.08 0.05 0.04 0.06 0.02 0.04 0.05 0.04 0.03 0.03 0.03 0.05 0.06 0.07 0.07 0.03 0.03 0.04 0.04 0.06 0.06 0.08 0.12
0.16 0.10 0.04 0.03 0.07 0.13 0.18 0.15 0.14 0.16 0.15 0.16 0.12 0.09 0.13 0.17 0.15 0.23 0.26 0.25 0.23 0.25 0.20 0.18 0.13 0.11 0.12 0.11 0.08 0.06 0.02 0.01 0.01 0.02 0.01 0.02 0.03 0.04 0.06 0.09 0.12 0.10 0.05 0.05 0.08 0.10 0.11 0.10 0.08 0.07 0.08 0.09 0.10 0.15
0.06 0.07 0.08 0.11 0.18 0.20 0.18 0.16 0.19 0.22 0.24 0.20 0.16 0.15 0.16 0.15 0.21 0.29 0.27 0.29 0.21 0.13 0.08 0.06 0.03 0.03 0.03 0.05 0.06 0.06 0.03 0.01 0.01 0.01 0.02 0.06 0.07 0.05 0.04 0.06 0.06 0.04 0.05 0.07 0.08 0.09 0.10 0.13 0.12 0.12 0.12 0.14 0.17 0.19
0.09 0.10 0.10 0.10 0.06 0.04 0.08 0.12 0.13 0.14 0.13 0.10 0.08 0.10 0.12 0.15 0.26 0.25 0.25 0.20 0.15 0.10 0.08 0.07 0.11 0.07 0.05 0.02 0.02 0.02 0.01 0.01 0.00 0.00 0.01 0.03 0.07 0.05 0.03 0.04 0.05 0.04 0.05 0.05 0.05 0.07 0.10 0.13 0.12 0.16 0.19 0.21 0.19 0.16
0.01 0.01 0.01 0.00 0.03 0.06 0.11 0.08 0.10 0.08 0.04 0.03 0.04 0.07 0.09 0.20 0.32 0.23 0.16 0.13 0.11 0.11 0.11 0.09 0.09 0.05 0.05 0.04 0.03 0.04 0.06 0.02 0.01 0.02 0.04 0.04 0.04 0.05 0.04 0.05 0.04 0.05 0.06 0.06 0.04 0.04 0.06 0.05 0.07 0.15 0.10 0.10 0.12 0.12
0.01 0.01 0.01 0.01 0.06 0.10 0.07 0.04 0.05 0.07 0.07 0.05 0.05 0.06 0.15 0.18 0.19 0.15 0.12 0.14 0.07 0.06 0.05 0.04 0.03 0.03 0.02 0.02 0.03 0.03 0.04 0.03 0.03 0.03 0.03 0.04 0.04 0.04 0.04 0.04 0.04 0.06 0.06 0.06 0.06 0.07 0.07 0.07 0.10 0.11 0.06 0.06 0.08 0.08
0.01 0.03 0.02 0.05 0.12 0.09 0.08 0.12 0.09 0.12 0.10 0.06 0.09 0.07 0.11 0.10 0.09 0.10 0.09 0.09 0.06 0.05 0.03 0.04 0.04 0.05 0.04 0.03 0.03 0.04 0.04 0.03 0.02 0.02 0.03 0.04 0.04 0.03 0.03 0.02 0.04 0.06 0.06 0.06 0.06 0.08 0.09 0.09 0.09 0.08 0.09 0.07 0.07 0.06
0.02 0.01 0.01 0.02 0.05 0.08 0.07 0.05 0.06 0.06 0.07 0.08 0.12 0.10 0.11 0.10 0.08 0.12 0.10 0.06 0.07 0.04 0.03 0.03 0.03 0.04 0.05 0.02 0.01 0.02 0.01 0.01 0.01 0.02 0.03 0.04 0.02 0.02 0.02 0.03 0.04 0.05 0.06 0.07 0.08 0.09 0.08 0.07 0.07 0.07 0.06 0.06 0.05 0.04

GFSWCAN_prec_precacc_069.txt.gz
Total_Precipitation_Accumulation
0.71 0.55 0.60 0.57 0.52 0.47 0.46 0.64 0.59 0.62 0.61 0.71 0.68 0.76 0.69 0.65 0.86 1.36 1.27 1.08 1.31 1.51 0.70 0.41 0.32 0.26 0.08 0.10 0.12 0.05 0.36 0.33 0.33 0.24 0.09 0.03 0.02 0.01 0.01 0.00 0.03 0.07 0.16 0.21 0.30 0.32 0.13 0.04 0.08 0.08 0.04 0.02 0.01 0.00
1.01 0.83 0.62 0.47 0.51 0.44 0.48 0.53 0.53 0.53 0.59 0.71 0.61 0.59 0.63 0.65 0.90 1.35 1.39 1.03 1.16 1.52 1.00 0.56 0.32 0.29 0.13 0.03 0.05 0.07 0.11 0.10 0.12 0.19 0.05 0.06 0.03 0.01 0.00 0.00 0.00 0.03 0.04 0.07 0.07 0.06 0.04 0.04 0.12 0.11 0.05 0.04 0.01 0.01
1.18 0.80 0.52 0.44 0.42 0.47 0.46 0.50 0.49 0.52 0.61 0.69 0.64 0.57 0.66 0.78 0.95 1.44 1.32 0.95 1.94 2.00 1.06 0.62 0.49 0.26 0.22 0.11 0.11 0.19 0.06 0.03 0.10 0.09 0.13 0.11 0.07 0.00 0.01 0.00 0.00 0.00 0.00 0.01 0.04 0.01 0.02 0.03 0.06 0.03 0.01 0.01 0.01 0.01
0.97 0.81 0.52 0.36 0.37 0.43 0.42 0.47 0.51 0.57 0.59 0.74 0.70 0.73 0.88 0.92 1.05 1.39 1.19 1.23 2.01 1.66 1.49 0.71 0.31 0.25 0.20 0.16 0.12 0.19 0.14 0.11 0.21 0.25 0.22 0.25 0.12 0.03 0.01 0.00 0.00 0.00 0.02 0.02 0.04 0.00 0.00 0.01 0.05 0.07 0.06 0.03 0.01 0.01
0.98 0.75 0.48 0.30 0.30 0.35 0.40 0.52 0.56 0.63 0.76 0.75 0.73 0.88 1.16 1.06 1.04 1.25 1.10 1.31 1.35 1.32 1.32 0.86 0.24 0.23 0.32 0.29 0.22 0.19 0.24 0.29 0.42 0.73 0.45 0.12 0.04 0.05 0.07 0.09 0.02 0.01 0.02 0.05 0.03 0.04 0.03 0.04 0.02 0.02 0.03 0.04 0.03 0.01
0.94 0.66 0.47 0.31 0.29 0.30 0.32 0.41 0.43 0.57 0.69 0.73 0.77 1.05 0.99 0.82 1.25 1.91 2.68 1.82 1.11 0.97 1.28 0.98 0.55 0.16 0.32 0.38 0.55 0.32 0.33 0.48 0.54 0.72 0.60 0.17 0.08 0.14 0.06 0.02 0.02 0.04 0.04 0.04 0.03 0.03 0.04 0.03 0.01 0.01 0.02 0.03 0.02 0.02
0.88 0.63 0.48 0.37 0.26 0.25 0.26 0.31 0.37 0.49 0.66 0.78 0.91 0.78 0.72 0.79 1.45 1.43 1.68 1.15 0.69 0.96 1.22 1.03 0.68 0.44 0.42 0.63 0.60 0.61 0.48 0.77 0.73 0.86 0.71 0.39 0.15 0.36 0.27 0.18 0.07 0.04 0.04 0.05 0.03 0.07 0.07 0.04 0.03 0.02 0.02 0.02 0.02 0.01
0.86 0.64 0.46 0.33 0.31 0.29 0.31 0.36 0.45 0.53 0.67 0.89 1.02 0.89 0.83 1.07 1.40 0.88 0.71 0.56 0.72 1.06 1.00 1.14 0.61 0.77 0.49 0.94 0.70 0.60 0.68 0.92 0.91 0.75 0.54 0.37 0.36 0.56 0.50 0.13 0.05 0.02 0.02 0.03 0.05 0.06 0.04 0.03 0.02 0.02 0.02 0.02 0.02 0.02
0.40 0.35 0.34 0.29 0.30 0.43 0.54 0.56 0.59 0.65 0.93 1.08 0.91 0.90 1.38 1.64 1.64 1.23 0.78 0.93 0.97 1.03 0.99 0.66 0.54 0.86 0.70 0.99 1.14 0.73 0.61 0.73 0.64 0.71 0.58 0.51 0.53 0.86 0.51 0.22 0.08 0.03 0.02 0.02 0.01 0.04 0.07 0.09 0.10 0.10 0.09 0.10 0.15 0.24
0.35 0.33 0.30 0.28 0.32 0.37 0.42 0.48 0.55 0.70 0.86 0.84 1.03 1.52 1.96 1.47 1.24 1.30 1.41 1.53 1.33 0.76 0.45 0.42 0.38 0.49 0.97 0.94 1.05 1.29 0.97 0.55 0.41 0.45 0.61 0.84 0.70 0.32 0.09 0.06 0.12 0.16 0.15 0.11 0.07 0.07 0.09 0.11 0.12 0.18 0.23 0.30 0.36 0.31
0.32 0.27 0.28 0.34 0.41 0.38 0.36 0.35 0.31 0.39 0.95 1.34 1.57 1.77 1.82 1.51 1.17 1.38 1.42 1.30 0.96 0.57 0.16 0.17 0.20 0.29 0.60 1.13 0.86 0.73 1.02 1.06 0.50 0.34 0.55 0.71 0.62 0.37 0.14 0.06 0.06 0.08 0.11 0.13 0.14 0.13 0.13 0.16 0.25 0.38 0.38 0.27 0.16 0.14
0.27 0.19 0.14 0.18 0.19 0.16 0.20 0.21 0.27 0.47 0.97 1.44 1.43 1.51 1.50 1.41 1.25 1.11 1.16 0.79 0.45 0.30 0.16 0.16 0.18 0.25 0.49 1.01 1.11 0.85 0.86 0.82 0.93 0.62 0.61 0.56 0.35 0.23 0.26 0.25 0.22 0.19 0.16 0.15 0.16 0.22 0.30 0.37 0.38 0.27 0.19 0.20 0.23 0.26
0.21 0.17 0.16 0.18 0.13 0.13 0.22 0.46 0.59 0.96 1.37 1.49 1.42 1.51 1.57 1.54 1.49 1.16 0.75 0.44 0.42 0.49 0.35 0.23 0.23 0.51 0.51 0.79 1.33 1.14 1.07 0.93 0.83 0.86 0.83 0.62 0.40 0.31 0.32 0.27 0.26 0.25 0.27 0.32 0.38 0.34 0.24 0.22 0.25 0.28 0.36 0.48 0.49 0.55
0.16 0.17 0.21 0.23 0.22 0.36 0.63 0.70 1.07 1.41 1.20 1.37 1.42 1.51 1.50 1.34 0.96 0.79 0.46 0.33 0.44 0.51 0.44 0.32 0.29 0.35 0.56 1.02 1.80 1.55 1.36 0.78 0.86 0.73 0.50 0.54 0.70 0.76 0.60 0.53 0.50 0.56 0.57 0.56 0.59 0.56 0.59 0.61 0.66 0.71 0.70 0.74 0.59 0.65
0.10 0.13 0.16 0.27 0.36 0.53 0.65 0.64 0.87 0.94 0.79 0.71 0.55 0.87 0.87 0.89 0.70 0.60 0.47 0.47 0.57 0.85 0.84 0.83 0.86 0.70 0.79 1.20 1.27 0.97 0.71 0.58 0.49 0.60 0.73 0.82 0.80 0.71 0.53 0.48 0.47 0.52 0.56 0.59 0.64 0.59 0.65 0.66 0.56 0.66 0.70 0.62 0.47 0.48
0.11 0.19 0.29 0.36 0.41 0.39 0.37 0.48 0.63 0.67 0.39 0.28 0.54 0.81 0.71 0.68 0.68 0.65 0.62 0.66 0.72 0.97 1.01 0.93 0.82 0.75 0.91 0.81 0.68 0.72 0.52 0.57 0.68 0.58 0.64 0.66 0.67 0.71 0.77 0.73 0.72 0.74 0.67 0.61 0.57 0.51 0.48 0.46 0.38 0.41 0.40 0.36 0.37 0.29
0.11 0.11 0.18 0.24 0.28 0.34 0.31 0.33 0.35 0.25 0.31 0.39 0.79 0.95 0.83 0.73 0.80 0.90 0.83 0.76 0.70 0.67 0.64 0.41 0.39 0.54 0.56 0.46 0.57 0.60 0.82 0.81 0.74 0.72 0.71 0.72 0.76 0.77 0.76 0.75 0.76 0.65 0.51 0.45 0.44 0.39 0.37 0.34 0.23 0.14 0.19 0.29 0.21 0.19
0.18 0.11 0.14 0.18 0.21 0.23 0.27 0.21 0.15 0.15 0.41 0.71 0.75 1.00 0.76 0.83 0.80 0.78 0.78 0.62 0.50 0.45 0.39 0.38 0.29 0.33 0.53 0.50 0.57 0.64 0.67 0.77 0.84 0.87 0.92 0.99 0.93 0.81 0.73 0.63 0.62 0.49 0.40 0.40 0.34 0.32 0.28 0.21 0.15 0.20 0.17 0.15 0.08 0.08
0.38 0.34 0.27 0.27 0.20 0.12 0.16 0.14 0.03 0.22 0.58 0.66 0.69 0.60 0.52 0.59 0.54 0.54 0.39 0.24 0.16 0.14 0.18 0.25 0.31 0.44 0.63 0.72 0.77 0.73 0.71 0.68 0.71 0.75 0.72 0.77 0.74 0.67 0.61 0.52 0.45 0.43 0.36 0.33 0.24 0.21 0.20 0.16 0.17 0.15 0.12 0.08 0.10 0.12
0.53 0.48 0.36 0.32 0.16 0.06 0.03 0.06 0.01 0.11 0.33 0.35 0.28 0.14 0.10 0.16 0.08 0.04 0.03 0.02 0.03 0.06 0.14 0.30 0.59 0.71 0.71 0.75 0.73 0.72 0.70 0.61 0.46 0.35 0.43 0.53 0.55 0.46 0.50 0.43 0.39 0.34 0.25 0.23 0.21 0.18 0.14 0.13 0.15 0.14 0.13 0.13 0.11 0.11
0.30 0.33 0.35 0.28 0.18 0.02 0.01 0.02 0.05 0.05 0.09 0.11 0.07 0.02 0.02 0.01 0.01 0.01 0.01 0.00 0.03 0.11 0.35 0.53 0.54 0.57 0.43 0.43 0.42 0.41 0.39 0.34 0.34 0.28 0.31 0.38 0.45 0.33 0.33 0.33 0.29 0.27 0.24 0.26 0.23 0.25 0.22 0.23 0.21 0.17 0.15 0.11 0.10 0.09
0.10 0.22 0.25 0.28 0.30 0.13 0.03 0.00 0.02 0.02 0.01 0.02 0.02 0.02 0.02 0.03 0.03 0.02 0.01 0.04 0.23 0.43 0.47 0.34 0.30 0.25 0.18 0.21 0.23 0.20 0.29 0.26 0.31 0.36 0.37 0.28 0.27 0.27 0.31 0.37 0.28 0.30 0.28 0.29 0.25 0.22 0.19 0.16 0.14 0.12 0.08 0.07 0.05 0.05
0.18 0.32 0.33 0.29 0.28 0.14 0.10 0.02 0.03 0.01 0.01 0.01 0.02 0.02 0.02 0.03 0.03 0.02 0.05 0.15 0.37 0.41 0.32 0.18 0.15 0.13 0.14 0.18 0.11 0.09 0.07 0.07 0.12 0.23 0.32 0.31 0.30 0.32 0.30 0.30 0.28 0.25 0.22 0.21 0.18 0.15 0.13 0.11 0.07 0.04 0.03 0.04 0.05 0.04
0.24 0.43 0.44 0.33 0.16 0.14 0.08 0.07 0.04 0.03 0.01 0.02 0.03 0.04 0.04 0.04 0.02 0.03 0.08 0.18 0.32 0.20 0.13 0.16 0.14 0.15 0.13 0.13 0.14 0.18 0.21 0.15 0.17 0.20 0.23 0.19 0.17 0.21 0.16 0.14 0.12 0.12 0.11 0.09 0.06 0.04 0.03 0.02 0.02 0.04 0.04 0.04 0.03 0.04
0.41 0.36 0.32 0.26 0.14 0.07 0.04 0.04 0.05 0.04 0.03 0.02 0.04 0.06 0.04 0.02 0.04 0.05 0.08 0.25 0.21 0.19 0.18 0.17 0.15 0.14 0.16 0.19 0.18 0.17 0.14 0.12 0.10 0.10 0.13 0.11 0.10 0.09 0.06 0.05 0.04 0.05 0.04 0.05 0.03 0.03 0.03 0.04 0.03 0.03 0.03 0.05 0.07 0.08
0.36 0.22 0.14 0.10 0.07 0.08 0.05 0.03 0.03 0.04 0.04 0.09 0.11 0.09 0.05 0.08 0.08 0.13 0.19 0.27 0.22 0.23 0.25 0.26 0.22 0.15 0.14 0.13 0.12 0.11 0.08 0.08 0.05 0.04 0.06 0.02 0.04 0.05 0.04 0.03 0.03 0.03 0.05 0.06 0.07 0.07 0.03 0.03 0.04 0.04 0.06 0.06 0.08 0.12
0.16 0.10 0.04 0.03 0.07 0.13 0.18 0.15 0.14 0.16 0.15 0.16 0.12 0.09 0.13 0.17 0.15 0.23 0.27 0.26 0.23 0.25 0.20 0.18 0.13 0.11 0.12 0.11 0.08 0.06 0.02 0.01 0.01 0.02 0.01 0.02 0.03 0.04 0.06 0.09 0.12 0.10 0.05 0.05 0.08 0.10 0.11 0.10 0.08 0.07 0.08 0.09 0.10 0.15
0.06 0.07 0.08 0.11 0.18 0.20 0.18 0.16 0.19 0.22 0.24 0.20 0.16 0.15 0.16 0.15 0.22 0.29 0.28 0.30 0.21 0.13 0.08 0.06 0.03 0.03 0.03 0.05 0.06 0.06 0.03 0.01 0.01 0.01 0.02 0.06 0.07 0.05 0.04 0.06 0.06 0.04 0.05 0.07 0.08 0.09 0.10 0.13 0.12 0.12 0.12 0.14 0.17 0.20
0.09 0.10 0.10 0.10 0.06 0.04 0.09 0.12 0.13 0.14 0.14 0.10 0.08 0.10 0.12 0.16 0.26 0.26 0.26 0.20 0.15 0.10 0.08 0.07 0.11 0.07 0.05 0.02 0.02 0.02 0.01 0.01 0.00 0.00 0.01 0.03 0.07 0.05 0.03 0.04 0.05 0.04 0.05 0.05 0.05 0.07 0.10 0.14 0.12 0.16 0.19 0.21 0.19 0.16
0.01 0.01 0.01 0.00 0.03 0.07 0.12 0.08 0.10 0.09 0.04 0.03 0.04 0.07 0.10 0.22 0.34 0.24 0.16 0.13 0.11 0.11 0.11 0.09 0.09 0.05 0.05 0.04 0.03 0.04 0.06 0.02 0.01 0.03 0.04 0.04 0.04 0.05 0.04 0.05 0.04 0.05 0.06 0.06 0.04 0.04 0.06 0.06 0.07 0.15 0.10 0.10 0.12 0.12
0.01 0.01 0.01 0.01 0.06 0.10 0.07 0.04 0.05 0.07 0.07 0.05 0.05 0.06 0.15 0.19 0.20 0.16 0.12 0.14 0.07 0.06 0.05 0.04 0.03 0.03 0.02 0.02 0.03 0.03 0.04 0.03 0.03 0.03 0.03 0.04 0.04 0.04 0.04 0.04 0.04 0.06 0.06 0.06 0.06 0.07 0.07 0.07 0.10 0.11 0.06 0.06 0.08 0.08
0.01 0.03 0.02 0.05 0.13 0.09 0.09 0.12 0.09 0.12 0.10 0.06 0.09 0.07 0.11 0.10 0.09 0.10 0.10 0.10 0.06 0.05 0.03 0.04 0.04 0.05 0.04 0.03 0.03 0.04 0.04 0.03 0.02 0.02 0.03 0.04 0.04 0.03 0.03 0.02 0.04 0.06 0.06 0.06 0.06 0.08 0.09 0.09 0.09 0.08 0.09 0.07 0.07 0.06
0.02 0.01 0.01 0.02 0.05 0.08 0.07 0.05 0.06 0.06 0.07 0.08 0.12 0.11 0.11 0.10 0.08 0.12 0.11 0.06 0.07 0.04 0.03 0.03 0.03 0.04 0.05 0.02 0.01 0.02 0.01 0.01 0.01 0.02 0.03 0.04 0.02 0.02 0.02 0.03 0.04 0.05 0.06 0.07 0.08 0.09 0.08 0.07 0.07 0.07 0.06 0.06 0.05 0.04

GFSWCAN_prec_precacc_075.txt.gz
Total_Precipitation_Accumulation
0.74 0.58 0.62 0.58 0.54 0.49 0.49 0.68 0.61 0.64 0.63 0.74 0.71 0.80 0.78 0.76 1.00 1.60 1.56 1.13 1.37 1.61 0.73 0.44 0.35 0.31 0.13 0.16 0.24 0.22 0.52 0.50 0.54 0.40 0.16 0.08 0.05 0.03 0.01 0.04 0.07 0.09 0.18 0.23 0.32 0.35 0.14 0.04 0.09 0.11 0.07 0.02 0.01 0.00
1.03 0.85 0.63 0.49 0.53 0.47 0.52 0.57 0.57 0.58 0.62 0.72 0.62 0.62 0.68 0.78 1.07 1.60 1.78 1.18 1.21 1.60 1.06 0.58 0.33 0.32 0.20 0.12 0.20 0.26 0.20 0.14 0.15 0.26 0.11 0.11 0.07 0.03 0.01 0.01 0.02 0.08 0.05 0.09 0.08 0.06 0.04 0.04 0.15 0.12 0.05 0.04 0.01 0.01
1.19 0.82 0.55 0.48 0.45 0.49 0.47 0.52 0.51 0.55 0.64 0.71 0.66 0.60 0.70 0.85 1.13 1.74 1.67 1.09 2.09 2.33 1.17 0.63 0.50 0.27 0.23 0.16 0.19 0.30 0.12 0.11 0.15 0.14 0.23 0.19 0.13 0.03 0.03 0.00 0.01 0.00 0.01 0.04 0.06 0.02 0.03 0.04 0.06 0.03 0.01 0.01 0.01 0.01
1.01 0.89 0.58 0.38 0.38 0.44 0.43 0.49 0.53 0.59 0.61 0.76 0.73 0.78 0.93 1.00 1.22 1.74 1.54 1.35 2.12 1.88 1.60 0.74 0.31 0.25 0.21 0.18 0.15 0.21 0.17 0.17 0.29 0.33 0.30 0.32 0.16 0.04 0.02 0.01 0.00 0.00 0.02 0.02 0.04 0.00 0.00 0.01 0.05 0.07 0.06 0.03 0.01 0.01
1.11 0.82 0.50 0.31 0.31 0.36 0.41 0.53 0.56 0.65 0.79 0.78 0.77 0.96 1.25 1.18 1.28 1.60 1.39 1.48 1.41 1.38 1.42 0.88 0.25 0.23 0.33 0.32 0.27 0.27 0.32 0.38 0.58 0.89 0.58 0.17 0.08 0.10 0.10 0.11 0.03 0.01 0.02 0.06 0.04 0.06 0.03 0.04 0.02 0.02 0.03 0.04 0.03 0.01
0.99 0.68 0.48 0.33 0.31 0.32 0.34 0.42 0.44 0.58 0.71 0.77 0.80 1.14 1.15 1.05 1.62 2.38 3.36 2.29 1.26 1.05 1.38 1.06 0.57 0.16 0.32 0.40 0.60 0.39 0.40 0.61 0.78 0.92 0.72 0.25 0.14 0.22 0.13 0.04 0.03 0.06 0.05 0.05 0.04 0.03 0.04 0.03 0.01 0.01 0.02 0.03 0.02 0.02
0.89 0.65 0.50 0.39 0.28 0.26 0.28 0.32 0.39 0.51 0.68 0.82 0.94 0.87 0.97 1.09 1.65 1.64 1.85 1.34 0.87 1.07 1.35 1.11 0.72 0.45 0.43 0.68 0.65 0.71 0.63 0.99 0.97 1.10 0.84 0.45 0.21 0.44 0.34 0.22 0.11 0.04 0.04 0.05 0.03 0.07 0.08 0.04 0.03 0.02 0.02 0.02 0.02 0.01
0.86 0.65 0.49 0.35 0.38 0.31 0.31 0.38 0.47 0.57 0.72 0.94 1.07 1.07 1.19 1.28 1.62 1.12 0.74 0.57 0.74 1.16 1.09 1.20 0.65 0.80 0.51 1.00 0.76 0.68 0.86 1.12 1.09 0.89 0.64 0.43 0.46 0.69 0.65 0.15 0.05 0.02 0.02 0.03 0.05 0.06 0.04 0.03 0.02 0.02 0.02 0.02 0.02 0.02
0.40 0.36 0.37 0.31 0.40 0.49 0.56 0.60 0.64 0.79 1.08 1.15 1.13 1.44 1.94 1.97 1.99 1.43 0.84 0.98 1.06 1.15 1.05 0.69 0.58 0.91 0.72 1.02 1.19 0.78 0.68 0.87 0.75 0.82 0.63 0.57 0.61 0.96 0.59 0.23 0.09 0.03 0.02 0.02 0.01 0.04 0.07 0.09 0.11 0.11 0.10 0.11 0.16 0.26
0.35 0.35 0.33 0.35 0.39 0.46 0.48 0.56 0.87 1.12 1.07 1.05 1.41 1.95 2.40 1.83 1.47 1.51 1.78 1.89 1.61 0.86 0.48 0.44 0.44 0.59 1.01 0.98 1.11 1.41 1.04 0.65 0.50 0.52 0.67 0.94 0.78 0.35 0.10 0.07 0.12 0.16 0.16 0.11 0.07 0.07 0.09 0.12 0.13 0.19 0.26 0.35 0.44 0.42
0.33 0.28 0.32 0.49 0.57 0.58 0.70 0.82 0.66 0.51 1.00 1.42 1.77 2.05 2.19 1.83 1.35 1.53 1.59 1.40 1.03 0.61 0.17 0.20 0.22 0.33 0.63 1.18 0.91 0.82 1.14 1.11 0.57 0.40 0.61 0.77 0.65 0.40 0.14 0.07 0.06 0.08 0.11 0.13 0.14 0.14 0.14 0.17 0.27 0.41 0.41 0.32 0.25 0.27
0.27 0.20 0.15 0.23 0.29 0.31 0.35 0.29 0.29 0.49 1.01 1.45 1.50 1.71 1.73 1.57 1.34 1.16 1.20 0.83 0.47 0.34 0.19 0.19 0.22 0.29 0.54 1.19 1.17 0.89 0.96 0.91 1.00 0.64 0.63 0.58 0.38 0.24 0.26 0.26 0.23 0.19 0.16 0.15 0.17 0.23 0.31 0.38 0.39 0.28 0.22 0.23 0.28 0.32
0.22 0.17 0.16 0.18 0.14 0.13 0.22 0.46 0.59 0.97 1.37 1.49 1.42 1.52 1.59 1.58 1.52 1.18 0.77 0.45 0.44 0.51 0.40 0.28 0.29 0.55 0.61 1.09 1.39 1.18 1.09 1.05 0.89 0.91 0.86 0.64 0.42 0.32 0.32 0.28 0.27 0.26 0.28 0.33 0.39 0.36 0.26 0.25 0.28 0.31 0.39 0.53 0.54 0.60
0.21 0.18 0.21 0.25 0.23 0.36 0.63 0.70 1.07 1.41 1.20 1.37 1.42 1.51 1.51 1.35 0.97 0.80 0.47 0.34 0.45 0.54 0.48 0.34 0.29 0.36 0.60 1.10 1.86 1.57 1.38 0.78 0.88 0.75 0.53 0.57 0.72 0.78 0.62 0.55 0.52 0.59 0.60 0.59 0.62 0.59 0.62 0.64 0.71 0.76 0.74 0.79 0.63 0.69
0.11 0.14 0.16 0.27 0.36 0.53 0.65 0.64 0.87 0.94 0.79 0.71 0.55 0.87 0.87 0.91 0.72 0.62 0.48 0.48 0.59 0.89 0.86 0.84 0.86 0.70 0.79 1.20 1.27 0.97 0.72 0.59 0.50 0.62 0.77 0.86 0.84 0.75 0.58 0.52 0.52 0.56 0.60 0.63 0.69 0.63 0.69 0.71 0.60 0.71 0.76 0.68 0.51 0.52
0.11 0.19 0.29 0.36 0.41 0.39 0.37 0.48 0.63 0.67 0.39 0.28 0.55 0.82 0.72 0.71 0.71 0.68 0.64 0.69 0.75 0.99 1.01 0.93 0.82 0.75 0.92 0.81 0.68 0.73 0.53 0.58 0.70 0.62 0.70 0.71 0.72 0.77 0.82 0.79 0.78 0.80 0.72 0.65 0.62 0.57 0.54 0.52 0.44 0.47 0.47 0.42 0.43 0.34
0.11 0.11 0.18 0.24 0.28 0.34 0.31 0.33 0.35 0.25 0.31 0.39 0.80 0.96 0.85 0.74 0.83 0.93 0.86 0.78 0.72 0.68 0.64 0.41 0.39 0.55 0.57 0.47 0.59 0.63 0.87 0.88 0.82 0.81 0.80 0.81 0.84 0.84 0.83 0.81 0.82 0.71 0.57 0.52 0.50 0.46 0.44 0.41 0.29 0.19 0.24 0.35 0.25 0.22
0.18 0.11 0.14 0.18 0.21 0.23 0.27 0.21 0.15 0.15 0.41 0.72 0.76 1.02 0.77 0.84 0.82 0.79 0.80 0.63 0.50 0.45 0.39 0.38 0.30 0.34 0.55 0.53 0.60 0.68 0.73 0.83 0.90 0.93 0.98 1.06 0.99 0.87 0.79 0.69 0.67 0.55 0.46 0.46 0.40 0.38 0.33 0.26 0.19 0.24 0.20 0.16 0.09 0.09
0.38 0.34 0.27 0.27 0.20 0.12 0.16 0.14 0.03 0.22 0.59 0.67 0.70 0.61 0.53 0.59 0.54 0.54 0.39 0.24 0.16 0.14 0.18 0.25 0.31 0.46 0.66 0.75 0.78 0.75 0.73 0.69 0.72 0.78 0.75 0.81 0.78 0.71 0.65 0.56 0.49 0.47 0.41 0.37 0.29 0.25 0.23 0.19 0.18 0.15 0.12 0.08 0.10 0.12
0.53 0.48 0.36 0.32 0.16 0.06 0.03 0.06 0.01 0.11 0.33 0.35 0.28 0.14 0.10 0.16 0.08 0.04 0.03 0.02 0.03 0.06 0.15 0.31 0.62 0.74 0.73 0.78 0.74 0.73 0.70 0.61 0.46 0.36 0.45 0.55 0.57 0.48 0.53 0.46 0.42 0.38 0.28 0.26 0.23 0.19 0.14 0.13 0.15 0.14 0.13 0.13 0.11 0.12
0.30 0.33 0.35 0.28 0.18 0.02 0.01 0.02 0.05 0.05 0.09 0.12 0.07 0.02 0.02 0.01 0.01 0.01 0.01 0.00 0.03 0.12 0.37 0.56 0.57 0.60 0.44 0.45 0.43 0.41 0.40 0.35 0.35 0.29 0.32 0.39 0.47 0.34 0.35 0.35 0.31 0.28 0.25 0.26 0.23 0.25 0.22 0.23 0.21 0.17 0.15 0.11 0.10 0.09
0.10 0.22 0.25 0.28 0.30 0.13 0.03 0.00 0.02 0.02 0.01 0.02 0.02 0.02 0.03 0.03 0.03 0.02 0.01 0.05 0.24 0.46 0.50 0.36 0.31 0.26 0.19 0.22 0.23 0.21 0.30 0.26 0.31 0.36 0.37 0.29 0.28 0.27 0.31 0.37 0.28 0.30 0.28 0.29 0.25 0.23 0.19 0.16 0.14 0.12 0.09 0.07 0.05 0.05
0.18 0.32 0.33 0.29 0.28 0.14 0.12 0.04 0.04 0.02 0.01 0.01 0.02 0.02 0.02 0.03 0.03 0.02 0.05 0.16 0.40 0.44 0.33 0.19 0.16 0.14 0.14 0.19 0.11 0.09 0.07 0.07 0.12 0.23 0.32 0.31 0.30 0.32 0.30 0.30 0.28 0.25 0.22 0.21 0.18 0.15 0.13 0.11 0.07 0.04 0.03 0.04 0.05 0.04
0.24 0.43 0.44 0.33 0.16 0.15 0.08 0.07 0.04 0.03 0.01 0.02 0.03 0.04 0.04 0.04 0.02 0.03 0.08 0.19 0.34 0.22 0.13 0.16 0.15 0.15 0.13 0.13 0.14 0.18 0.21 0.15 0.17 0.20 0.23 0.19 0.17 0.21 0.16 0.14 0.12 0.12 0.11 0.09 0.06 0.04 0.03 0.02 0.03 0.04 0.05 0.04 0.03 0.05
0.41 0.36 0.32 0.26 0.14 0.07 0.04 0.04 0.05 0.04 0.03 0.02 0.04 0.06 0.04 0.02 0.04 0.05 0.08 0.26 0.22 0.20 0.18 0.17 0.15 0.14 0.16 0.19 0.18 0.17 0.14 0.12 0.10 0.10 0.13 0.11 0.10 0.09 0.06 0.05 0.04 0.05 0.04 0.05 0.04 0.03 0.03 0.04 0.04 0.04 0.03 0.05 0.07 0.08
0.36 0.22 0.14 0.10 0.07 0.08 0.05 0.03 0.03 0.04 0.04 0.09 0.11 0.09 0.05 0.08 0.08 0.13 0.19 0.28 0.23 0.24 0.26 0.26 0.22 0.15 0.14 0.13 0.12 0.11 0.08 0.08 0.05 0.04 0.06 0.02 0.04 0.05 0.04 0.03 0.03 0.03 0.05 0.06 0.08 0.07 0.03 0.03 0.04 0.04 0.06 0.06 0.08 0.12
0.16 0.10 0.04 0.03 0.07 0.13 0.18 0.15 0.14 0.16 0.16 0.16 0.12 0.09 0.13 0.17 0.15 0.24 0.28 0.27 0.24 0.25 0.20 0.18 0.13 0.11 0.12 0.11 0.08 0.06 0.02 0.01 0.01 0.02 0.01 0.02 0.03 0.04 0.06 0.09 0.12 0.10 0.05 0.05 0.08 0.10 0.12 0.10 0.08 0.07 0.08 0.09 0.10 0.16
0.06 0.07 0.08 0.11 0.18 0.20 0.18 0.16 0.19 0.22 0.24 0.20 0.16 0.15 0.16 0.15 0.22 0.31 0.29 0.31 0.22 0.13 0.08 0.06 0.03 0.03 0.03 0.05 0.06 0.06 0.03 0.01 0.01 0.01 0.02 0.06 0.07 0.05 0.04 0.06 0.06 0.04 0.05 0.07 0.09 0.09 0.11 0.13 0.13 0.12 0.12 0.15 0.17 0.20
0.09 0.10 0.10 0.10 0.06 0.04 0.09 0.12 0.13 0.14 0.14 0.10 0.08 0.10 0.12 0.16 0.29 0.27 0.27 0.21 0.16 0.10 0.08 0.07 0.11 0.07 0.05 0.02 0.02 0.02 0.01 0.01 0.00 0.00 0.01 0.03 0.07 0.06 0.03 0.04 0.05 0.05 0.05 0.05 0.05 0.07 0.11 0.14 0.12 0.16 0.20 0.22 0.19 0.16
0.01 0.01 0.01 0.00 0.03 0.07 0.13 0.09 0.11 0.09 0.05 0.04 0.04 0.08 0.10 0.24 0.37 0.26 0.17 0.14 0.12 0.11 0.12 0.09 0.09 0.05 0.05 0.04 0.03 0.04 0.06 0.02 0.01 0.03 0.04 0.04 0.05 0.05 0.05 0.05 0.05 0.05 0.06 0.06 0.05 0.04 0.06 0.06 0.07 0.15 0.10 0.10 0.13 0.12
0.01 0.01 0.01 0.01 0.07 0.12 0.09 0.05 0.05 0.07 0.07 0.05 0.05 0.07 0.16 0.20 0.22 0.16 0.13 0.15 0.07 0.07 0.06 0.04 0.03 0.03 0.02 0.02 0.03 0.03 0.04 0.03 0.03 0.03 0.03 0.04 0.04 0.04 0.05 0.04 0.05 0.06 0.06 0.06 0.06 0.07 0.07 0.07 0.10 0.11 0.06 0.06 0.08 0.08
0.01 0.03 0.02 0.05 0.13 0.09 0.09 0.13 0.09 0.13 0.10 0.06 0.09 0.07 0.11 0.10 0.10 0.11 0.10 0.10 0.07 0.05 0.04 0.04 0.05 0.05 0.04 0.03 0.03 0.04 0.04 0.03 0.02 0.02 0.03 0.04 0.04 0.03 0.03 0.02 0.04 0.06 0.06 0.06 0.06 0.08 0.09 0.09 0.09 0.08 0.09 0.07 0.07 0.06
0.02 0.01 0.01 0.02 0.05 0.08 0.07 0.05 0.06 0.06 0.07 0.08 0.12 0.11 0.12 0.10 0.09 0.13 0.11 0.07 0.08 0.06 0.03 0.03 0.03 0.04 0.05 0.02 0.01 0.02 0.01 0.01 0.01 0.02 0.03 0.04 0.02 0.02 0.02 0.03 0.04 0.05 0.06 0.07 0.08 0.09 0.08 0.07 0.07 0.07 0.06 0.06 0.05 0.04

GFSWCAN_prec_precacc_078.txt.gz
Total_Precipitation_Accumulation
0.75 0.58 0.63 0.59 0.54 0.50 0.50 0.69 0.63 0.67 0.66 0.77 0.73 0.81 0.78 0.78 1.04 1.64 1.57 1.14 1.41 1.65 0.73 0.45 0.35 0.33 0.17 0.20 0.30 0.31 0.58 0.54 0.55 0.44 0.20 0.12 0.10 0.07 0.03 0.07 0.11 0.12 0.21 0.25 0.34 0.38 0.15 0.04 0.10 0.15 0.14 0.05 0.01 0.00
1.03 0.86 0.64 0.49 0.54 0.47 0.52 0.58 0.58 0.59 0.66 0.78 0.65 0.63 0.69 0.78 1.08 1.64 1.82 1.19 1.24 1.64 1.07 0.58 0.34 0.32 0.21 0.17 0.31 0.35 0.34 0.20 0.17 0.27 0.14 0.16 0.13 0.09 0.03 0.04 0.04 0.12 0.06 0.10 0.08 0.07 0.04 0.04 0.17 0.14 0.05 0.04 0.01 0.01
1.20 0.83 0.55 0.48 0.46 0.49 0.47 0.52 0.52 0.56 0.66 0.76 0.71 0.61 0.71 0.86 1.15 1.81 1.75 1.11 2.13 2.46 1.24 0.64 0.50 0.27 0.23 0.16 0.30 0.57 0.17 0.14 0.22 0.28 0.38 0.29 0.22 0.08 0.07 0.02 0.03 0.02 0.03 0.08 0.13 0.04 0.05 0.10 0.07 0.03 0.01 0.01 0.01 0.01
1.01 0.90 0.59 0.38 0.38 0.44 0.43 0.49 0.53 0.59 0.62 0.77 0.75 0.80 0.94 1.00 1.24 1.84 1.72 1.45 2.20 2.01 1.66 0.74 0.31 0.25 0.21 0.18 0.15 0.24 0.21 0.18 0.34 0.47 0.47 0.39 0.22 0.08 0.06 0.03 0.02 0.01 0.05 0.04 0.10 0.06 0.04 0.11 0.17 0.08 0.06 0.03 0.01 0.01
1.12 0.83 0.50 0.31 0.31 0.36 0.41 0.53 0.56 0.65 0.79 0.79 0.78 0.98 1.27 1.20 1.31 1.68 1.58 1.58 1.46 1.43 1.47 0.89 0.25 0.23 0.33 0.32 0.27 0.27 0.33 0.41 0.63 0.95 0.63 0.19 0.11 0.12 0.10 0.13 0.04 0.02 0.04 0.09 0.11 0.11 0.09 0.12 0.04 0.02 0.03 0.04 0.03 0.01
1.03 0.68 0.48 0.33 0.31 0.32 0.34 0.42 0.45 0.58 0.72 0.77 0.81 1.16 1.19 1.07 1.66 2.61 3.72 2.48 1.31 1.08 1.50 1.15 0.61 0.16 0.32 0.40 0.60 0.40 0.44 0.69 0.89 1.03 0.77 0.29 0.18 0.25 0.16 0.08 0.05 0.09 0.05 0.05 0.05 0.03 0.04 0.03 0.01 0.01 0.02 0.03 0.02 0.02
0.90 0.65 0.50 0.40 0.28 0.27 0.29 0.32 0.39 0.51 0.69 0.82 0.96 0.90 1.05 1.15 1.72 1.79 1.94 1.39 0.90 1.13 1.45 1.15 0.78 0.46 0.43 0.68 0.66 0.73 0.68 1.08 1.05 1.20 0.92 0.47 0.26 0.53 0.39 0.25 0.17 0.08 0.05 0.05 0.03 0.07 0.08 0.04 0.03 0.02 0.02 0.02 0.02 0.01
0.86 0.65 0.49 0.36 0.41 0.33 0.32 0.38 0.47 0.58 0.72 0.95 1.10 1.09 1.27 1.41 1.73 1.21 0.75 0.57 0.76 1.25 1.14 1.25 0.73 0.83 0.51 1.01 0.78 0.71 0.91 1.18 1.15 0.92 0.66 0.43 0.47 0.76 0.73 0.17 0.05 0.02 0.02 0.03 0.05 0.06 0.04 0.03 0.02 0.02 0.02 0.02 0.02 0.02
0.40 0.38 0.39 0.39 0.44 0.50 0.57 0.63 0.66 0.81 1.09 1.18 1.22 1.58 2.14 2.11 2.10 1.50 0.86 1.00 1.08 1.20 1.10 0.72 0.63 0.94 0.73 1.05 1.21 0.82 0.77 0.98 0.80 0.85 0.64 0.59 0.64 1.06 0.64 0.23 0.09 0.03 0.02 0.02 0.01 0.04 0.07 0.09 0.11 0.11 0.10 0.11 0.16 0.27
0.35 0.38 0.37 0.38 0.39 0.46 0.50 0.60 0.92 1.20 1.17 1.18 1.57 2.07 2.50 1.90 1.61 1.62 1.98 2.11 1.80 0.94 0.54 0.48 0.49 0.62 1.02 1.00 1.14 1.45 1.08 0.67 0.54 0.53 0.68 0.97 0.81 0.37 0.10 0.07 0.12 0.16 0.16 0.11 0.07 0.07 0.09 0.12 0.14 0.19 0.26 0.35 0.44 0.42
0.34 0.32 0.42 0.52 0.59 0.64 0.83 0.97 0.79 0.64 1.10 1.54 1.87 2.09 2.26 1.97 1.49 1.68 1.77 1.54 1.15 0.67 0.20 0.26 0.27 0.36 0.66 1.20 0.93 0.85 1.17 1.12 0.62 0.46 0.62 0.85 0.68 0.41 0.14 0.07 0.06 0.08 0.11 0.13 0.14 0.14 0.14 0.18 0.27 0.41 0.41 0.32 0.25 0.27
0.28 0.20 0.18 0.28 0.37 0.45 0.50 0.40 0.41 0.62 1.10 1.48 1.51 1.75 1.85 1.74 1.46 1.23 1.27 0.87 0.51 0.37 0.20 0.23 0.26 0.31 0.56 1.22 1.21 0.90 1.00 0.94 1.04 0.67 0.66 0.63 0.40 0.24 0.26 0.26 0.23 0.19 0.16 0.15 0.17 0.23 0.31 0.39 0.40 0.29 0.22 0.24 0.29 0.34
0.23 0.18 0.17 0.20 0.16 0.16 0.28 0.53 0.68 1.01 1.38 1.50 1.42 1.55 1.64 1.64 1.55 1.24 0.80 0.48 0.46 0.51 0.40 0.28 0.29 0.55 0.61 1.09 1.40 1.20 1.12 1.09 0.90 0.93 0.89 0.67 0.43 0.32 0.33 0.28 0.27 0.26 0.28 0.33 0.40 0.36 0.27 0.25 0.28 0.31 0.40 0.54 0.56 0.62
0.22 0.21 0.25 0.26 0.23 0.36 0.64 0.71 1.08 1.41 1.20 1.37 1.42 1.51 1.52 1.35 0.97 0.81 0.49 0.35 0.45 0.54 0.49 0.35 0.30 0.37 0.63 1.13 1.88 1.60 1.38 0.79 0.89 0.77 0.55 0.60 0.73 0.79 0.63 0.55 0.52 0.59 0.61 0.60 0.63 0.60 0.63 0.65 0.72 0.77 0.76 0.81 0.64 0.71
0.13 0.16 0.18 0.28 0.36 0.53 0.65 0.64 0.87 0.94 0.79 0.71 0.55 0.87 0.88 0.92 0.73 0.63 0.49 0.49 0.60 0.90 0.87 0.86 0.86 0.71 0.80 1.22 1.29 0.98 0.72 0.60 0.51 0.65 0.79 0.87 0.84 0.75 0.59 0.53 0.53 0.58 0.62 0.65 0.70 0.64 0.70 0.72 0.61 0.72 0.78 0.70 0.53 0.54
0.11 0.19 0.29 0.36 0.41 0.39 0.37 0.48 0.63 0.67 0.39 0.28 0.55 0.84 0.74 0.74 0.74 0.69 0.66 0.71 0.77 1.01 1.02 0.94 0.82 0.75 0.92 0.81 0.69 0.73 0.54 0.60 0.73 0.64 0.71 0.72 0.73 0.78 0.84 0.81 0.81 0.82 0.74 0.67 0.64 0.59 0.56 0.53 0.45 0.48 0.49 0.44 0.45 0.36
0.11 0.11 0.18 0.24 0.28 0.34 0.31 0.33 0.35 0.26 0.32 0.39 0.80 0.97 0.86 0.76 0.85 0.95 0.88 0.80 0.73 0.69 0.65 0.41 0.40 0.55 0.57 0.47 0.59 0.63 0.89 0.90 0.83 0.82 0.81 0.83 0.86 0.86 0.84 0.83 0.85 0.73 0.59 0.54 0.51 0.47 0.46 0.43 0.31 0.21 0.25 0.36 0.26 0.23
0.18 0.11 0.14 0.18 0.21 0.23 0.27 0.21 0.15 0.15 0.42 0.73 0.77 1.04 0.78 0.86 0.84 0.81 0.81 0.63 0.50 0.45 0.39 0.38 0.30 0.34 0.56 0.54 0.62 0.69 0.74 0.83 0.90 0.94 0.99 1.07 1.00 0.88 0.80 0.70 0.69 0.56 0.47 0.48 0.41 0.40 0.35 0.27 0.21 0.25 0.21 0.16 0.09 0.09
0.38 0.34 0.27 0.27 0.20 0.12 0.16 0.14 0.03 0.22 0.60 0.68 0.71 0.62 0.54 0.60 0.55 0.55 0.39 0.24 0.16 0.14 0.18 0.25 0.32 0.47 0.67 0.76 0.79 0.76 0.74 0.70 0.73 0.78 0.76 0.81 0.79 0.72 0.65 0.56 0.50 0.48 0.42 0.38 0.30 0.26 0.24 0.20 0.19 0.15 0.12 0.08 0.10 0.12
0.53 0.48 0.36 0.32 0.16 0.06 0.03 0.06 0.01 0.11 0.34 0.35 0.29 0.14 0.11 0.16 0.09 0.04 0.03 0.02 0.03 0.06 0.15 0.32 0.64 0.77 0.75 0.79 0.75 0.73 0.71 0.62 0.47 0.37 0.45 0.56 0.58 0.49 0.54 0.47 0.43 0.38 0.29 0.26 0.23 0.19 0.15 0.13 0.15 0.14 0.13 0.13 0.12 0.12
0.30 0.33 0.35 0.28 0.18 0.02 0.01 0.02 0.05 0.05 0.09 0.12 0.07 0.02 0.03 0.01 0.01 0.01 0.01 0.00 0.03 0.12 0.38 0.57 0.58 0.62 0.45 0.46 0.44 0.42 0.41 0.37 0.37 0.30 0.32 0.39 0.47 0.34 0.35 0.35 0.31 0.29 0.26 0.27 0.23 0.25 0.22 0.23 0.21 0.17 0.15 0.11 0.11 0.09
0.10 0.22 0.25 0.28 0.30 0.13 0.03 0.00 0.02 0.02 0.01 0.02 0.02 0.03 0.03 0.04 0.03 0.02 0.01 0.05 0.25 0.48 0.51 0.37 0.32 0.26 0.19 0.22 0.24 0.21 0.30 0.26 0.31 0.36 0.37 0.29 0.28 0.27 0.31 0.38 0.28 0.30 0.29 0.30 0.25 0.23 0.19 0.16 0.14 0.13 0.09 0.07 0.05 0.05
0.18 0.32 0.33 0.29 0.28 0.14 0.13 0.04 0.04 0.02 0.01 0.01 0.02 0.02 0.03 0.03 0.03 0.02 0.06 0.16 0.41 0.45 0.34 0.19 0.16 0.14 0.14 0.19 0.11 0.09 0.07 0.07 0.12 0.23 0.32 0.31 0.30 0.32 0.30 0.30 0.28 0.25 0.22 0.21 0.18 0.15 0.14 0.11 0.07 0.04 0.03 0.04 0.05 0.04
0.24 0.43 0.44 0.33 0.16 0.15 0.08 0.08 0.04 0.03 0.01 0.02 0.03 0.04 0.04 0.04 0.02 0.03 0.08 0.19 0.35 0.22 0.14 0.16 0.15 0.15 0.13 0.13 0.14 0.18 0.21 0.15 0.17 0.20 0.23 0.19 0.17 0.21 0.16 0.14 0.12 0.12 0.11 0.09 0.06 0.04 0.03 0.03 0.03 0.05 0.05 0.04 0.03 0.05
0.41 0.36 0.32 0.26 0.14 0.07 0.04 0.04 0.05 0.04 0.03 0.02 0.04 0.06 0.04 0.02 0.04 0.05 0.08 0.26 0.22 0.20 0.19 0.17 0.15 0.15 0.17 0.19 0.18 0.17 0.14 0.12 0.10 0.10 0.13 0.11 0.10 0.09 0.06 0.05 0.04 0.05 0.04 0.05 0.04 0.04 0.03 0.04 0.04 0.04 0.03 0.05 0.07 0.09
0.36 0.22 0.14 0.10 0.07 0.08 0.05 0.03 0.03 0.04 0.04 0.09 0.11 0.09 0.05 0.08 0.08 0.13 0.20 0.29 0.24 0.24 0.27 0.27 0.22 0.16 0.14 0.13 0.12 0.11 0.08 0.08 0.05 0.04 0.06 0.02 0.04 0.05 0.05 0.03 0.03 0.04 0.05 0.06 0.08 0.07 0.04 0.03 0.04 0.04 0.06 0.06 0.08 0.12
0.16 0.10 0.04 0.03 0.07 0.13 0.18 0.15 0.14 0.16 0.16 0.16 0.12 0.09 0.13 0.17 0.15 0.24 0.29 0.27 0.24 0.25 0.20 0.18 0.13 0.11 0.12 0.11 0.08 0.06 0.02 0.01 0.01 0.02 0.01 0.02 0.03 0.04 0.06 0.10 0.12 0.11 0.05 0.05 0.08 0.10 0.12 0.10 0.09 0.07 0.08 0.09 0.10 0.16
0.06 0.07 0.08 0.11 0.18 0.20 0.18 0.16 0.19 0.22 0.24 0.20 0.16 0.15 0.16 0.15 0.23 0.32 0.30 0.31 0.22 0.13 0.08 0.06 0.03 0.03 0.03 0.05 0.06 0.06 0.03 0.01 0.01 0.01 0.02 0.07 0.07 0.05 0.04 0.06 0.06 0.04 0.05 0.07 0.09 0.09 0.11 0.13 0.13 0.12 0.12 0.15 0.17 0.20
0.09 0.10 0.10 0.10 0.06 0.04 0.09 0.13 0.14 0.14 0.14 0.10 0.08 0.10 0.12 0.17 0.30 0.28 0.28 0.21 0.16 0.11 0.08 0.07 0.11 0.07 0.05 0.02 0.02 0.02 0.01 0.01 0.01 0.00 0.01 0.03 0.08 0.06 0.04 0.04 0.05 0.05 0.05 0.05 0.06 0.07 0.11 0.14 0.12 0.16 0.20 0.22 0.20 0.16
0.01 0.01 0.01 0.00 0.03 0.07 0.14 0.10 0.12 0.10 0.05 0.04 0.04 0.08 0.11 0.26 0.40 0.28 0.18 0.15 0.13 0.12 0.12 0.10 0.09 0.06 0.05 0.04 0.03 0.04 0.06 0.02 0.02 0.03 0.04 0.04 0.05 0.05 0.05 0.05 0.05 0.05 0.06 0.07 0.05 0.04 0.07 0.06 0.08 0.15 0.10 0.10 0.13 0.12
0.01 0.01 0.01 0.01 0.07 0.12 0.10 0.05 0.06 0.08 0.08 0.05 0.05 0.07 0.17 0.21 0.23 0.17 0.14 0.16 0.08 0.07 0.06 0.04 0.03 0.03 0.02 0.02 0.03 0.03 0.05 0.04 0.03 0.03 0.03 0.04 0.04 0.05 0.05 0.04 0.05 0.06 0.06 0.06 0.06 0.07 0.07 0.07 0.10 0.11 0.07 0.06 0.08 0.08
0.01 0.03 0.02 0.06 0.14 0.10 0.12 0.14 0.10 0.13 0.10 0.07 0.10 0.08 0.11 0.10 0.10 0.12 0.11 0.11 0.08 0.06 0.04 0.04 0.05 0.06 0.04 0.03 0.03 0.04 0.04 0.03 0.02 0.02 0.03 0.04 0.04 0.04 0.03 0.02 0.04 0.06 0.06 0.06 0.06 0.08 0.09 0.09 0.09 0.08 0.09 0.07 0.07 0.06
0.02 0.01 0.01 0.02 0.06 0.09 0.08 0.05 0.06 0.06 0.07 0.08 0.12 0.11 0.12 0.10 0.09 0.13 0.11 0.08 0.10 0.07 0.04 0.04 0.04 0.04 0.05 0.02 0.01 0.02 0.01 0.01 0.01 0.02 0.03 0.04 0.02 0.02 0.02 0.03 0.05 0.05 0.06 0.07 0.08 0.09 0.08 0.07 0.07 0.07 0.06 0.06 0.05 0.04

GFSWCAN_prec_precacc_084.txt.gz
Total_Precipitation_Accumulation
0.77 0.60 0.64 0.60 0.55 0.50 0.50 0.69 0.64 0.67 0.68 0.79 0.77 0.85 0.82 0.82 1.14 1.88 1.65 1.15 1.44 1.68 0.74 0.45 0.35 0.34 0.17 0.23 0.38 0.39 0.61 0.75 0.67 0.46 0.20 0.12 0.11 0.09 0.11 0.17 0.19 0.19 0.25 0.28 0.36 0.40 0.15 0.05 0.11 0.17 0.17 0.06 0.01 0.01
1.05 0.87 0.65 0.50 0.54 0.48 0.53 0.59 0.59 0.60 0.66 0.78 0.67 0.66 0.72 0.83 1.15 1.84 2.03 1.21 1.28 1.66 1.07 0.58 0.34 0.32 0.21 0.17 0.34 0.49 0.62 0.45 0.33 0.35 0.17 0.19 0.17 0.15 0.09 0.10 0.18 0.40 0.18 0.13 0.09 0.08 0.10 0.15 0.22 0.17 0.10 0.12 0.08 0.03
1.21 0.84 0.56 0.49 0.46 0.50 0.47 0.53 0.52 0.57 0.67 0.77 0.73 0.65 0.75 0.90 1.21 1.92 1.90 1.15 2.29 2.59 1.27 0.64 0.50 0.27 0.23 0.16 0.30 0.59 0.27 0.35 0.54 0.43 0.42 0.34 0.27 0.13 0.12 0.07 0.22 0.46 0.35 0.15 0.22 0.16 0.14 0.27 0.25 0.06 0.08 0.05 0.03 0.05
1.02 0.90 0.59 0.39 0.39 0.46 0.46 0.51 0.55 0.60 0.63 0.78 0.77 0.84 0.99 1.05 1.30 1.93 1.80 1.51 2.30 2.07 1.67 0.74 0.31 0.25 0.21 0.18 0.16 0.25 0.27 0.30 0.43 0.52 0.55 0.55 0.29 0.13 0.22 0.14 0.18 0.20 0.29 0.38 0.47 0.26 0.22 0.26 0.71 0.31 0.08 0.05 0.03 0.02
1.13 0.84 0.53 0.34 0.35 0.40 0.45 0.55 0.58 0.65 0.80 0.80 0.81 1.01 1.32 1.26 1.38 1.71 1.62 1.60 1.48 1.45 1.50 0.92 0.26 0.23 0.33 0.32 0.27 0.27 0.34 0.42 0.65 0.97 0.66 0.22 0.13 0.19 0.19 0.28 0.23 0.06 0.19 0.47 0.53 0.57 0.41 0.41 0.33 0.32 0.17 0.07 0.03 0.01
1.06 0.73 0.53 0.36 0.32 0.34 0.35 0.43 0.45 0.58 0.72 0.79 0.85 1.21 1.24 1.16 1.77 2.78 4.11 2.69 1.35 1.09 1.57 1.19 0.62 0.17 0.33 0.40 0.60 0.40 0.44 0.71 0.92 1.07 0.78 0.30 0.23 0.41 0.34 0.25 0.29 0.15 0.07 0.09 0.32 0.33 0.41 0.35 0.15 0.05 0.03 0.03 0.02 0.02
0.93 0.67 0.52 0.41 0.29 0.28 0.29 0.33 0.39 0.52 0.70 0.84 1.00 0.95 1.12 1.29 1.91 1.94 2.04 1.42 0.91 1.21 1.72 1.25 0.80 0.51 0.44 0.71 0.67 0.73 0.70 1.14 1.11 1.26 0.94 0.48 0.29 0.61 0.60 0.37 0.24 0.13 0.08 0.06 0.06 0.15 0.13 0.07 0.06 0.02 0.02 0.02 0.02 0.01
0.88 0.65 0.50 0.36 0.42 0.35 0.33 0.40 0.48 0.59 0.74 0.97 1.15 1.14 1.40 1.75 2.06 1.26 0.76 0.57 0.78 1.45 1.28 1.30 0.77 0.97 0.57 1.06 0.82 0.73 0.92 1.20 1.19 0.95 0.67 0.44 0.49 0.81 0.82 0.23 0.05 0.02 0.02 0.03 0.05 0.06 0.04 0.03 0.02 0.02 0.02 0.02 0.02 0.02
0.41 0.38 0.39 0.40 0.45 0.51 0.58 0.67 0.69 0.85 1.15 1.22 1.34 1.81 2.73 2.76 2.33 1.56 0.88 1.01 1.11 1.28 1.15 0.74 0.67 1.17 0.79 1.08 1.25 0.83 0.78 0.99 0.83 0.88 0.65 0.61 0.67 1.11 0.70 0.25 0.09 0.03 0.02 0.03 0.01 0.04 0.08 0.10 0.11 0.11 0.10 0.11 0.16 0.27
0.36 0.39 0.39 0.39 0.39 0.47 0.53 0.72 0.97 1.26 1.31 1.40 1.91 2.47 2.94 2.12 1.64 1.71 2.34 2.52 2.11 1.06 0.57 0.50 0.53 0.89 1.10 1.03 1.18 1.48 1.11 0.69 0.58 0.54 0.69 1.04 0.87 0.40 0.11 0.07 0.12 0.16 0.16 0.11 0.07 0.08 0.10 0.13 0.14 0.20 0.27 0.36 0.45 0.43
0.38 0.39 0.45 0.52 0.60 0.66 0.90 1.09 0.91 0.81 1.36 1.90 2.25 2.28 2.36 2.04 1.60 1.94 2.11 1.76 1.30 0.71 0.20 0.28 0.29 0.40 0.77 1.27 0.97 0.86 1.20 1.16 0.64 0.47 0.64 0.92 0.72 0.45 0.15 0.07 0.06 0.08 0.11 0.13 0.15 0.14 0.15 0.19 0.29 0.42 0.42 0.33 0.26 0.28
0.32 0.23 0.22 0.31 0.43 0.58 0.67 0.66 0.65 0.80 1.28 1.64 1.61 1.87 2.00 1.99 1.64 1.42 1.45 0.92 0.54 0.39 0.21 0.25 0.31 0.40 0.67 1.34 1.25 0.91 1.01 0.98 1.08 0.78 0.86 0.73 0.46 0.26 0.26 0.26 0.23 0.20 0.16 0.15 0.17 0.23 0.32 0.39 0.40 0.29 0.23 0.25 0.31 0.35
0.27 0.21 0.24 0.29 0.32 0.39 0.54 0.81 0.90 1.06 1.42 1.54 1.45 1.67 1.81 1.83 1.64 1.41 0.90 0.51 0.48 0.52 0.41 0.29 0.38 0.62 0.63 1.12 1.48 1.21 1.13 1.18 0.99 1.05 0.96 0.70 0.46 0.32 0.33 0.28 0.27 0.26 0.28 0.33 0.40 0.36 0.27 0.26 0.29 0.32 0.41 0.56 0.57 0.63
0.26 0.25 0.30 0.33 0.33 0.53 0.86 0.94 1.20 1.45 1.23 1.39 1.43 1.53 1.57 1.38 0.99 0.85 0.51 0.36 0.46 0.54 0.49 0.35 0.31 0.40 0.64 1.13 1.90 1.63 1.39 0.79 0.92 0.81 0.57 0.63 0.74 0.79 0.63 0.55 0.52 0.59 0.61 0.60 0.63 0.60 0.64 0.66 0.73 0.78 0.77 0.82 0.65 0.73
0.17 0.19 0.21 0.34 0.43 0.58 0.68 0.66 0.88 0.94 0.79 0.71 0.55 0.88 0.88 0.93 0.76 0.66 0.51 0.49 0.62 0.92 0.88 0.86 0.87 0.71 0.81 1.24 1.30 0.99 0.73 0.61 0.52 0.66 0.82 0.89 0.85 0.76 0.60 0.54 0.53 0.58 0.62 0.65 0.71 0.64 0.71 0.73 0.61 0.74 0.79 0.72 0.54 0.56
0.12 0.20 0.30 0.37 0.41 0.39 0.38 0.48 0.63 0.67 0.39 0.28 0.56 0.86 0.78 0.77 0.77 0.72 0.68 0.74 0.81 1.06 1.03 0.95 0.82 0.75 0.93 0.82 0.69 0.74 0.55 0.61 0.75 0.66 0.73 0.73 0.74 0.79 0.85 0.82 0.81 0.83 0.75 0.68 0.64 0.59 0.57 0.54 0.46 0.50 0.50 0.45 0.46 0.37
0.11 0.11 0.18 0.24 0.28 0.34 0.31 0.33 0.35 0.28 0.32 0.40 0.81 0.99 0.89 0.77 0.88 0.98 0.91 0.84 0.78 0.73 0.66 0.42 0.40 0.56 0.57 0.47 0.59 0.64 0.90 0.92 0.84 0.84 0.83 0.83 0.86 0.87 0.85 0.84 0.86 0.75 0.61 0.55 0.53 0.49 0.47 0.44 0.32 0.22 0.27 0.38 0.27 0.23
0.18 0.11 0.14 0.18 0.21 0.23 0.27 0.21 0.16 0.16 0.43 0.75 0.79 1.06 0.79 0.88 0.85 0.83 0.81 0.63 0.50 0.45 0.39 0.38 0.30 0.34 0.56 0.55 0.62 0.71 0.76 0.85 0.91 0.94 0.99 1.07 1.01 0.89 0.80 0.71 0.70 0.57 0.47 0.48 0.42 0.41 0.36 0.29 0.21 0.26 0.21 0.17 0.09 0.09
0.38 0.34 0.27 0.27 0.20 0.12 0.16 0.14 0.03 0.23 0.62 0.70 0.74 0.64 0.54 0.62 0.56 0.56 0.39 0.24 0.16 0.14 0.18 0.25 0.32 0.47 0.68 0.77 0.80 0.76 0.74 0.70 0.74 0.79 0.77 0.82 0.79 0.72 0.65 0.57 0.50 0.49 0.42 0.39 0.31 0.28 0.26 0.21 0.20 0.16 0.14 0.09 0.10 0.12
0.53 0.48 0.36 0.32 0.16 0.06 0.03 0.06 0.01 0.11 0.35 0.36 0.30 0.15 0.12 0.18 0.10 0.04 0.03 0.02 0.03 0.06 0.15 0.33 0.68 0.81 0.78 0.82 0.75 0.74 0.71 0.62 0.47 0.37 0.46 0.57 0.59 0.50 0.56 0.48 0.43 0.39 0.30 0.27 0.24 0.20 0.15 0.13 0.15 0.14 0.14 0.13 0.12 0.13
0.30 0.33 0.35 0.28 0.18 0.02 0.01 0.02 0.05 0.05 0.09 0.12 0.07 0.02 0.04 0.02 0.01 0.01 0.01 0.00 0.03 0.13 0.39 0.60 0.62 0.65 0.46 0.47 0.44 0.43 0.43 0.39 0.40 0.31 0.33 0.40 0.47 0.35 0.36 0.36 0.33 0.32 0.27 0.28 0.24 0.25 0.22 0.23 0.21 0.17 0.15 0.11 0.11 0.09
0.10 0.22 0.25 0.28 0.30 0.13 0.03 0.00 0.02 0.02 0.01 0.03 0.04 0.03 0.04 0.05 0.03 0.02 0.01 0.05 0.27 0.52 0.54 0.39 0.33 0.26 0.19 0.22 0.24 0.21 0.30 0.26 0.31 0.36 0.37 0.29 0.29 0.28 0.31 0.38 0.29 0.30 0.29 0.30 0.26 0.23 0.19 0.16 0.14 0.13 0.09 0.07 0.06 0.05
0.18 0.32 0.33 0.29 0.28 0.14 0.13 0.05 0.05 0.02 0.02 0.02 0.02 0.03 0.03 0.03 0.03 0.02 0.06 0.16 0.44 0.46 0.34 0.19 0.16 0.14 0.14 0.19 0.11 0.09 0.07 0.07 0.12 0.23 0.32 0.31 0.30 0.32 0.30 0.30 0.28 0.25 0.22 0.21 0.18 0.15 0.14 0.11 0.07 0.04 0.03 0.05 0.06 0.04
0.24 0.43 0.44 0.33 0.16 0.15 0.08 0.08 0.04 0.03 0.01 0.02 0.03 0.04 0.04 0.04 0.02 0.03 0.09 0.20 0.35 0.22 0.14 0.16 0.15 0.15 0.13 0.13 0.14 0.18 0.21 0.15 0.17 0.20 0.23 0.19 0.17 0.21 0.16 0.14 0.12 0.12 0.11 0.09 0.06 0.04 0.03 0.03 0.03 0.05 0.05 0.05 0.04 0.06
0.41 0.36 0.32 0.26 0.14 0.07 0.04 0.04 0.05 0.04 0.03 0.02 0.04 0.06 0.04 0.02 0.04 0.05 0.09 0.27 0.23 0.21 0.19 0.17 0.16 0.15 0.17 0.19 0.18 0.17 0.14 0.12 0.10 0.10 0.13 0.11 0.10 0.09 0.06 0.05 0.04 0.05 0.04 0.06 0.05 0.04 0.03 0.04 0.04 0.04 0.03 0.05 0.07 0.09
0.36 0.22 0.14 0.10 0.07 0.08 0.05 0.03 0.03 0.04 0.04 0.09 0.11 0.09 0.05 0.08 0.08 0.14 0.21 0.30 0.25 0.25 0.27 0.27 0.23 0.16 0.14 0.13 0.12 0.11 0.08 0.08 0.05 0.04 0.06 0.02 0.04 0.06 0.05 0.03 0.03 0.04 0.05 0.06 0.08 0.08 0.04 0.03 0.04 0.04 0.06 0.06 0.08 0.12
0.16 0.10 0.04 0.03 0.07 0.13 0.18 0.15 0.14 0.16 0.16 0.16 0.12 0.09 0.13 0.17 0.15 0.26 0.34 0.28 0.25 0.26 0.21 0.18 0.13 0.11 0.12 0.11 0.08 0.06 0.02 0.01 0.01 0.02 0.01 0.02 0.03 0.04 0.06 0.10 0.12 0.11 0.05 0.05 0.08 0.10 0.13 0.10 0.09 0.07 0.08 0.09 0.11 0.16
0.06 0.07 0.08 0.11 0.18 0.20 0.18 0.16 0.19 0.22 0.24 0.20 0.16 0.15 0.16 0.15 0.25 0.35 0.33 0.34 0.22 0.13 0.08 0.06 0.03 0.03 0.03 0.05 0.06 0.06 0.03 0.01 0.01 0.01 0.02 0.07 0.07 0.05 0.04 0.06 0.06 0.04 0.05 0.07 0.09 0.09 0.11 0.13 0.13 0.12 0.13 0.15 0.17 0.20
0.09 0.10 0.10 0.10 0.06 0.04 0.09 0.13 0.14 0.14 0.14 0.10 0.08 0.10 0.13 0.20 0.33 0.31 0.28 0.21 0.16 0.11 0.08 0.07 0.11 0.07 0.05 0.02 0.02 0.02 0.01 0.01 0.01 0.00 0.01 0.04 0.09 0.07 0.04 0.04 0.05 0.05 0.06 0.06 0.06 0.07 0.11 0.14 0.12 0.16 0.20 0.22 0.20 0.16
0.01 0.01 0.01 0.00 0.03 0.08 0.16 0.11 0.12 0.10 0.05 0.04 0.05 0.10 0.14 0.32 0.45 0.29 0.19 0.16 0.14 0.12 0.12 0.10 0.10 0.06 0.05 0.04 0.03 0.04 0.06 0.02 0.02 0.03 0.05 0.05 0.05 0.06 0.05 0.05 0.05 0.05 0.06 0.07 0.05 0.04 0.07 0.06 0.08 0.15 0.11 0.11 0.13 0.13
0.01 0.01 0.01 0.01 0.08 0.15 0.12 0.06 0.07 0.08 0.08 0.05 0.05 0.07 0.18 0.25 0.26 0.21 0.16 0.17 0.08 0.07 0.06 0.05 0.04 0.04 0.02 0.02 0.04 0.04 0.05 0.04 0.03 0.03 0.03 0.04 0.04 0.05 0.05 0.04 0.05 0.06 0.06 0.06 0.06 0.07 0.07 0.07 0.10 0.11 0.07 0.06 0.08 0.08
0.01 0.03 0.02 0.06 0.16 0.12 0.15 0.15 0.10 0.13 0.11 0.07 0.10 0.08 0.12 0.10 0.11 0.13 0.12 0.13 0.09 0.07 0.05 0.05 0.06 0.06 0.04 0.03 0.03 0.04 0.04 0.03 0.02 0.02 0.03 0.05 0.04 0.04 0.03 0.02 0.04 0.06 0.06 0.06 0.06 0.08 0.09 0.09 0.09 0.08 0.09 0.07 0.07 0.06
0.02 0.01 0.01 0.02 0.06 0.09 0.09 0.06 0.06 0.06 0.07 0.09 0.13 0.13 0.13 0.10 0.10 0.14 0.12 0.09 0.14 0.07 0.05 0.04 0.04 0.04 0.05 0.02 0.01 0.02 0.01 0.01 0.01 0.02 0.03 0.04 0.02 0.02 0.02 0.03 0.05 0.05 0.06 0.07 0.08 0.09 0.08 0.07 0.07 0.07 0.06 0.06 0.05 0.04

GFSWCAN_prec_precacc_087.txt.gz
Total_Precipitation_Accumulation
0.78 0.61 0.65 0.61 0.56 0.52 0.51 0.69 0.64 0.67 0.68 0.79 0.77 0.85 0.82 0.84 1.17 1.92 1.68 1.15 1.45 1.68 0.74 0.45 0.35 0.34 0.17 0.23 0.38 0.39 0.61 0.75 0.68 0.47 0.20 0.12 0.11 0.09 0.11 0.17 0.19 0.19 0.25 0.28 0.36 0.41 0.16 0.05 0.11 0.18 0.18 0.06 0.03 0.04
1.05 0.88 0.66 0.51 0.56 0.49 0.53 0.59 0.59 0.60 0.67 0.78 0.67 0.66 0.73 0.84 1.19 1.91 2.08 1.22 1.29 1.67 1.07 0.58 0.34 0.32 0.21 0.17 0.34 0.49 0.62 0.45 0.39 0.44 0.20 0.20 0.17 0.15 0.09 0.10 0.19 0.40 0.20 0.17 0.09 0.08 0.10 0.15 0.22 0.18 0.11 0.14 0.10 0.05
1.22 0.84 0.57 0.50 0.47 0.50 0.47 0.53 0.53 0.57 0.67 0.77 0.73 0.65 0.75 0.91 1.24 2.03 2.00 1.16 2.37 2.70 1.29 0.64 0.50 0.27 0.23 0.16 0.30 0.59 0.27 0.35 0.59 0.65 0.58 0.38 0.27 0.13 0.12 0.07 0.22 0.48 0.64 0.62 0.36 0.19 0.15 0.28 0.26 0.08 0.10 0.06 0.04 0.06
1.03 0.91 0.60 0.40 0.40 0.46 0.46 0.51 0.56 0.61 0.64 0.79 0.77 0.84 1.00 1.07 1.34 2.03 1.88 1.52 2.36 2.13 1.68 0.74 0.31 0.25 0.21 0.18 0.16 0.25 0.27 0.30 0.44 0.59 0.61 0.56 0.29 0.13 0.22 0.15 0.20 0.34 0.51 0.53 0.72 0.48 0.32 0.29 0.72 0.32 0.10 0.07 0.04 0.02
1.14 0.85 0.54 0.35 0.35 0.40 0.45 0.57 0.61 0.68 0.81 0.81 0.81 1.01 1.33 1.31 1.46 1.82 1.69 1.64 1.54 1.50 1.52 0.92 0.26 0.23 0.33 0.32 0.27 0.27 0.34 0.42 0.65 0.99 0.67 0.22 0.13 0.19 0.20 0.36 0.29 0.10 0.29 0.65 0.80 0.97 0.70 0.56 0.41 0.38 0.27 0.14 0.06 0.02
1.07 0.74 0.53 0.36 0.33 0.34 0.36 0.44 0.47 0.60 0.73 0.79 0.85 1.21 1.26 1.24 1.86 2.84 4.21 2.74 1.39 1.13 1.58 1.19 0.62 0.17 0.33 0.40 0.60 0.40 0.44 0.71 0.93 1.08 0.78 0.30 0.23 0.42 0.36 0.47 0.40 0.29 0.18 0.17 0.40 0.54 0.75 0.60 0.28 0.10 0.07 0.05 0.03 0.02
0.94 0.68 0.52 0.41 0.30 0.28 0.30 0.33 0.40 0.52 0.70 0.85 1.00 0.96 1.16 1.34 1.95 1.96 2.04 1.42 0.92 1.22 1.73 1.25 0.80 0.51 0.46 0.71 0.67 0.73 0.70 1.15 1.13 1.27 0.95 0.48 0.29 0.62 0.62 0.42 0.28 0.18 0.10 0.07 0.07 0.16 0.15 0.10 0.07 0.02 0.02 0.02 0.02 0.01
0.88 0.66 0.50 0.37 0.43 0.35 0.33 0.40 0.48 0.59 0.74 0.97 1.17 1.17 1.45 1.81 2.17 1.29 0.76 0.57 0.78 1.45 1.28 1.30 0.77 0.97 0.57 1.06 0.83 0.73 0.92 1.22 1.23 0.96 0.67 0.44 0.50 0.85 0.85 0.24 0.06 0.02 0.02 0.03 0.05 0.06 0.04 0.03 0.02 0.02 0.02 0.02 0.02 0.02
0.42 0.39 0.39 0.40 0.45 0.51 0.59 0.67 0.69 0.85 1.16 1.23 1.39 1.88 2.93 3.00 2.41 1.57 0.88 1.01 1.12 1.28 1.15 0.74 0.67 1.20 0.83 1.10 1.28 0.84 0.78 1.00 0.83 0.88 0.65 0.62 0.69 1.13 0.71 0.26 0.09 0.03 0.02 0.03 0.02 0.04 0.08 0.10 0.11 0.11 0.10 0.11 0.16 0.28
0.36 0.39 0.39 0.40 0.40 0.47 0.54 0.72 0.97 1.27 1.34 1.49 2.11 2.61 3.16 2.20 1.65 1.75 2.44 2.59 2.18 1.09 0.59 0.51 0.53 0.92 1.20 1.05 1.22 1.50 1.11 0.70 0.59 0.55 0.71 1.08 0.89 0.41 0.11 0.07 0.12 0.16 0.16 0.11 0.07 0.08 0.11 0.13 0.14 0.20 0.27 0.36 0.45 0.43
0.39 0.40 0.47 0.53 0.61 0.67 0.91 1.10 0.93 0.87 1.66 2.36 2.55 2.35 2.44 2.07 1.67 2.04 2.18 1.80 1.34 0.73 0.21 0.28 0.29 0.40 0.82 1.33 0.98 0.87 1.24 1.17 0.65 0.48 0.68 0.96 0.73 0.46 0.15 0.07 0.06 0.08 0.11 0.13 0.15 0.15 0.15 0.19 0.29 0.42 0.42 0.33 0.26 0.28
0.37 0.32 0.24 0.32 0.44 0.59 0.70 0.72 0.76 1.02 1.62 1.85 1.68 1.96 2.10 2.05 1.78 1.48 1.52 0.93 0.54 0.39 0.21 0.25 0.31 0.40 0.77 1.53 1.28 0.91 1.05 1.03 1.09 0.85 0.90 0.74 0.47 0.26 0.26 0.26 0.23 0.20 0.16 0.15 0.17 0.24 0.32 0.40 0.41 0.29 0.23 0.26 0.31 0.36
0.40 0.29 0.25 0.30 0.34 0.42 0.59 0.90 1.05 1.16 1.50 1.56 1.52 1.75 1.89 1.96 1.70 1.42 0.93 0.51 0.48 0.52 0.41 0.29 0.38 0.62 0.68 1.36 1.52 1.22 1.14 1.19 1.01 1.08 0.98 0.71 0.47 0.33 0.33 0.28 0.27 0.26 0.28 0.33 0.40 0.37 0.28 0.26 0.29 0.32 0.42 0.56 0.57 0.64
0.35 0.31 0.34 0.36 0.41 0.60 0.93 1.02 1.30 1.54 1.26 1.44 1.53 1.59 1.64 1.39 0.99 0.85 0.51 0.36 0.46 0.54 0.49 0.35 0.31 0.40 0.64 1.15 1.93 1.65 1.39 0.79 0.93 0.82 0.57 0.64 0.74 0.80 0.63 0.55 0.52 0.59 0.61 0.60 0.63 0.60 0.64 0.66 0.73 0.78 0.77 0.82 0.66 0.74
0.24 0.25 0.26 0.39 0.47 0.60 0.70 0.69 0.91 0.96 0.79 0.71 0.55 0.88 0.88 0.93 0.77 0.67 0.51 0.49 0.62 0.92 0.88 0.86 0.87 0.72 0.81 1.24 1.30 0.99 0.73 0.61 0.52 0.66 0.82 0.89 0.85 0.76 0.60 0.54 0.53 0.58 0.62 0.65 0.71 0.64 0.71 0.73 0.61 0.74 0.80 0.72 0.55 0.57
0.15 0.26 0.35 0.43 0.46 0.41 0.40 0.49 0.63 0.68 0.39 0.28 0.56 0.86 0.79 0.77 0.78 0.73 0.69 0.74 0.83 1.08 1.03 0.95 0.82 0.75 0.93 0.82 0.69 0.74 0.55 0.61 0.75 0.66 0.73 0.73 0.74 0.79 0.85 0.82 0.81 0.83 0.75 0.68 0.64 0.59 0.57 0.54 0.46 0.50 0.51 0.46 0.47 0.38
0.11 0.12 0.21 0.26 0.30 0.36 0.32 0.33 0.35 0.28 0.32 0.40 0.82 1.00 0.89 0.78 0.89 1.00 0.93 0.87 0.81 0.73 0.66 0.42 0.40 0.56 0.57 0.47 0.59 0.64 0.90 0.92 0.85 0.84 0.83 0.83 0.86 0.87 0.85 0.84 0.86 0.75 0.61 0.55 0.53 0.49 0.47 0.44 0.32 0.22 0.27 0.39 0.28 0.23
0.18 0.11 0.15 0.19 0.21 0.23 0.27 0.21 0.16 0.16 0.43 0.75 0.79 1.07 0.79 0.88 0.86 0.84 0.82 0.64 0.51 0.45 0.39 0.38 0.30 0.34 0.56 0.55 0.62 0.71 0.76 0.86 0.91 0.94 1.00 1.08 1.01 0.89 0.80 0.71 0.70 0.57 0.47 0.48 0.42 0.41 0.37 0.29 0.22 0.26 0.21 0.17 0.09 0.09
0.38 0.35 0.28 0.27 0.20 0.12 0.16 0.14 0.03 0.23 0.62 0.71 0.75 0.64 0.55 0.62 0.56 0.56 0.39 0.24 0.16 0.14 0.18 0.25 0.32 0.47 0.68 0.78 0.80 0.77 0.74 0.70 0.75 0.79 0.77 0.82 0.79 0.72 0.65 0.57 0.50 0.49 0.43 0.40 0.31 0.28 0.27 0.22 0.21 0.17 0.14 0.10 0.11 0.12
0.53 0.48 0.36 0.32 0.16 0.06 0.03 0.06 0.01 0.11 0.35 0.37 0.30 0.16 0.12 0.19 0.11 0.04 0.03 0.02 0.03 0.06 0.15 0.33 0.68 0.82 0.78 0.82 0.75 0.74 0.71 0.62 0.47 0.37 0.46 0.57 0.59 0.50 0.56 0.48 0.43 0.39 0.30 0.28 0.25 0.21 0.16 0.14 0.16 0.14 0.14 0.14 0.13 0.13
0.30 0.33 0.35 0.28 0.18 0.02 0.01 0.02 0.05 0.05 0.09 0.12 0.07 0.02 0.04 0.02 0.01 0.01 0.01 0.00 0.03 0.13 0.40 0.61 0.63 0.66 0.46 0.47 0.44 0.43 0.43 0.39 0.40 0.31 0.33 0.40 0.48 0.35 0.36 0.36 0.34 0.32 0.28 0.28 0.24 0.25 0.22 0.23 0.21 0.17 0.15 0.11 0.11 0.09
0.10 0.22 0.25 0.28 0.30 0.13 0.03 0.00 0.02 0.02 0.01 0.03 0.04 0.04 0.04 0.05 0.03 0.02 0.01 0.05 0.27 0.53 0.54 0.39 0.33 0.26 0.19 0.22 0.24 0.21 0.30 0.26 0.31 0.36 0.37 0.29 0.29 0.28 0.32 0.39 0.29 0.31 0.30 0.30 0.26 0.23 0.19 0.16 0.14 0.13 0.09 0.07 0.06 0.05
0.18 0.32 0.33 0.29 0.28 0.14 0.13 0.05 0.05 0.02 0.02 0.02 0.02 0.03 0.03 0.03 0.03 0.02 0.06 0.16 0.44 0.47 0.34 0.19 0.16 0.14 0.14 0.19 0.11 0.09 0.07 0.07 0.12 0.23 0.32 0.31 0.30 0.32 0.30 0.30 0.28 0.25 0.22 0.21 0.18 0.15 0.14 0.11 0.07 0.04 0.03 0.05 0.06 0.04
0.24 0.43 0.44 0.33 0.16 0.15 0.08 0.08 0.04 0.03 0.01 0.02 0.03 0.04 0.04 0.04 0.02 0.03 0.09 0.21 0.36 0.22 0.14 0.16 0.15 0.15 0.13 0.13 0.14 0.18 0.21 0.15 0.17 0.20 0.23 0.19 0.17 0.21 0.16 0.14 0.12 0.12 0.11 0.09 0.06 0.04 0.03 0.03 0.03 0.05 0.05 0.05 0.04 0.06
0.41 0.36 0.32 0.26 0.14 0.07 0.04 0.04 0.05 0.04 0.03 0.02 0.04 0.06 0.04 0.02 0.04 0.05 0.09 0.28 0.23 0.21 0.19 0.17 0.16 0.15 0.17 0.19 0.18 0.17 0.14 0.12 0.10 0.10 0.13 0.11 0.10 0.09 0.06 0.05 0.04 0.05 0.04 0.06 0.05 0.04 0.03 0.04 0.04 0.04 0.03 0.05 0.07 0.09
0.36 0.22 0.14 0.10 0.07 0.08 0.05 0.03 0.03 0.04 0.04 0.09 0.11 0.09 0.05 0.08 0.08 0.14 0.21 0.30 0.25 0.25 0.27 0.27 0.23 0.16 0.14 0.13 0.12 0.11 0.08 0.08 0.05 0.04 0.06 0.02 0.04 0.06 0.05 0.03 0.03 0.04 0.05 0.06 0.08 0.08 0.04 0.03 0.04 0.04 0.06 0.06 0.08 0.12
0.16 0.10 0.04 0.03 0.07 0.13 0.18 0.15 0.14 0.16 0.16 0.16 0.12 0.09 0.13 0.17 0.15 0.27 0.35 0.28 0.25 0.26 0.21 0.18 0.13 0.11 0.12 0.11 0.08 0.06 0.02 0.01 0.01 0.02 0.01 0.02 0.03 0.04 0.06 0.10 0.12 0.11 0.05 0.05 0.08 0.10 0.13 0.11 0.09 0.07 0.08 0.09 0.11 0.16
0.06 0.07 0.08 0.11 0.18 0.20 0.18 0.16 0.19 0.22 0.24 0.20 0.16 0.15 0.16 0.15 0.26 0.36 0.33 0.34 0.22 0.13 0.08 0.06 0.03 0.03 0.03 0.05 0.06 0.06 0.03 0.01 0.01 0.01 0.02 0.07 0.07 0.05 0.04 0.06 0.06 0.04 0.05 0.07 0.09 0.09 0.11 0.13 0.13 0.12 0.13 0.15 0.17 0.20
0.09 0.10 0.10 0.10 0.06 0.04 0.09 0.13 0.14 0.15 0.14 0.10 0.08 0.11 0.14 0.21 0.33 0.31 0.29 0.21 0.16 0.11 0.08 0.07 0.11 0.07 0.05 0.02 0.02 0.02 0.01 0.01 0.01 0.00 0.01 0.04 0.09 0.07 0.04 0.04 0.05 0.05 0.06 0.06 0.06 0.07 0.11 0.14 0.12 0.16 0.20 0.22 0.20 0.16
0.01 0.01 0.01 0.00 0.03 0.09 0.17 0.11 0.13 0.10 0.05 0.04 0.05 0.10 0.14 0.34 0.49 0.30 0.19 0.16 0.14 0.12 0.12 0.10 0.10 0.06 0.05 0.04 0.03 0.04 0.06 0.02 0.02 0.03 0.05 0.05 0.05 0.06 0.05 0.05 0.05 0.05 0.06 0.07 0.05 0.04 0.07 0.06 0.08 0.15 0.11 0.11 0.13 0.13
0.01 0.01 0.01 0.01 0.09 0.16 0.13 0.06 0.07 0.08 0.08 0.05 0.05 0.07 0.19 0.27 0.28 0.23 0.17 0.17 0.08 0.07 0.06 0.05 0.04 0.04 0.02 0.02 0.04 0.04 0.05 0.04 0.03 0.03 0.03 0.04 0.04 0.05 0.05 0.04 0.05 0.06 0.06 0.06 0.06 0.07 0.07 0.07 0.10 0.11 0.07 0.06 0.08 0.08
0.01 0.03 0.02 0.06 0.16 0.13 0.16 0.16 0.10 0.13 0.11 0.07 0.10 0.08 0.12 0.10 0.11 0.14 0.13 0.13 0.09 0.07 0.05 0.05 0.06 0.06 0.04 0.03 0.03 0.04 0.04 0.03 0.02 0.02 0.03 0.05 0.04 0.04 0.03 0.02 0.04 0.06 0.06 0.06 0.06 0.08 0.09 0.09 0.09 0.08 0.09 0.07 0.07 0.06
0.02 0.01 0.01 0.02 0.06 0.09 0.10 0.07 0.06 0.06 0.07 0.09 0.14 0.13 0.13 0.10 0.10 0.14 0.13 0.09 0.14 0.07 0.05 0.04 0.04 0.04 0.05 0.02 0.01 0.02 0.01 0.01 0.01 0.02 0.03 0.04 0.02 0.02 0.02 0.03 0.05 0.05 0.06 0.07 0.08 0.09 0.08 0.07 0.07 0.07 0.06 0.06 0.05 0.04

GFSWCAN_prec_precacc_090.txt.gz
Total_Precipitation_Accumulation
0.78 0.61 0.65 0.61 0.57 0.52 0.52 0.71 0.66 0.68 0.68 0.79 0.77 0.85 0.83 0.84 1.18 1.96 1.72 1.17 1.46 1.69 0.74 0.45 0.35 0.34 0.17 0.23 0.38 0.39 0.61 0.75 0.68 0.47 0.20 0.12 0.11 0.09 0.11 0.17 0.19 0.19 0.25 0.28 0.36 0.42 0.16 0.05 0.11 0.18 0.18 0.06 0.03 0.06
1.06 0.89 0.66 0.52 0.56 0.49 0.55 0.61 0.60 0.60 0.67 0.79 0.68 0.67 0.73 0.84 1.20 1.95 2.13 1.24 1.30 1.70 1.08 0.58 0.34 0.32 0.21 0.17 0.34 0.49 0.62 0.45 0.40 0.48 0.23 0.21 0.18 0.15 0.09 0.10 0.19 0.41 0.21 0.19 0.11 0.09 0.11 0.15 0.23 0.18 0.11 0.14 0.10 0.06
1.23 0.85 0.57 0.50 0.47 0.51 0.49 0.54 0.53 0.57 0.67 0.78 0.74 0.66 0.76 0.91 1.24 2.06 2.05 1.22 2.50 2.76 1.30 0.64 0.50 0.27 0.23 0.16 0.30 0.59 0.27 0.35 0.59 0.66 0.61 0.43 0.30 0.14 0.12 0.07 0.22 0.48 0.64 0.69 0.66 0.43 0.17 0.29 0.28 0.09 0.11 0.07 0.05 0.07
1.04 0.93 0.61 0.41 0.41 0.48 0.47 0.52 0.56 0.61 0.64 0.79 0.78 0.84 1.01 1.08 1.34 2.07 1.94 1.56 2.45 2.18 1.68 0.74 0.31 0.25 0.21 0.18 0.16 0.25 0.27 0.30 0.44 0.59 0.61 0.59 0.30 0.13 0.22 0.15 0.21 0.35 0.52 0.62 0.94 0.64 0.41 0.39 0.81 0.35 0.12 0.08 0.05 0.03
1.14 0.86 0.55 0.36 0.37 0.42 0.46 0.57 0.61 0.69 0.83 0.84 0.83 1.03 1.34 1.32 1.50 1.91 1.78 1.66 1.56 1.51 1.53 0.92 0.26 0.23 0.33 0.32 0.27 0.27 0.34 0.42 0.65 1.00 0.69 0.22 0.13 0.20 0.20 0.38 0.30 0.14 0.33 0.69 0.87 1.09 0.88 0.76 0.62 0.52 0.34 0.21 0.11 0.05
1.09 0.75 0.54 0.37 0.34 0.35 0.36 0.44 0.47 0.61 0.76 0.83 0.88 1.22 1.26 1.28 1.97 2.94 4.40 2.87 1.48 1.21 1.62 1.19 0.62 0.17 0.33 0.40 0.60 0.40 0.44 0.71 0.93 1.11 0.80 0.30 0.23 0.43 0.36 0.50 0.46 0.44 0.27 0.22 0.47 0.66 0.94 0.81 0.45 0.20 0.14 0.09 0.05 0.04
0.94 0.68 0.53 0.42 0.31 0.28 0.30 0.33 0.41 0.54 0.73 0.87 1.02 0.96 1.17 1.39 2.04 2.01 2.06 1.42 0.94 1.26 1.77 1.25 0.80 0.51 0.46 0.71 0.67 0.73 0.70 1.15 1.13 1.29 0.96 0.48 0.29 0.62 0.64 0.43 0.29 0.21 0.12 0.07 0.08 0.18 0.17 0.11 0.09 0.02 0.02 0.02 0.02 0.01
0.89 0.67 0.51 0.38 0.43 0.35 0.33 0.41 0.51 0.62 0.77 0.99 1.19 1.19 1.48 1.87 2.24 1.35 0.76 0.57 0.79 1.46 1.28 1.30 0.77 0.97 0.57 1.06 0.83 0.74 0.92 1.22 1.24 1.00 0.68 0.44 0.50 0.86 0.88 0.25 0.06 0.02 0.02 0.03 0.05 0.06 0.04 0.03 0.02 0.02 0.02 0.02 0.02 0.02
0.42 0.39 0.40 0.40 0.45 0.51 0.59 0.68 0.72 0.90 1.18 1.26 1.45 1.98 3.10 3.12 2.42 1.61 0.91 1.02 1.12 1.28 1.15 0.74 0.67 1.20 0.83 1.12 1.29 0.85 0.78 1.00 0.83 0.90 0.65 0.62 0.69 1.13 0.71 0.26 0.09 0.03 0.02 0.03 0.02 0.04 0.08 0.10 0.11 0.11 0.10 0.11 0.16 0.28
0.37 0.40 0.39 0.40 0.40 0.47 0.55 0.73 0.99 1.30 1.37 1.56 2.31 2.83 3.37 2.25 1.67 1.83 2.54 2.62 2.21 1.10 0.61 0.52 0.53 0.92 1.21 1.06 1.24 1.50 1.11 0.70 0.59 0.55 0.71 1.09 0.90 0.42 0.12 0.07 0.12 0.16 0.16 0.11 0.07 0.08 0.11 0.13 0.14 0.20 0.27 0.36 0.45 0.43
0.40 0.40 0.47 0.54 0.61 0.68 0.93 1.12 0.95 0.91 1.77 2.61 2.78 2.44 2.50 2.13 1.71 2.10 2.22 1.83 1.36 0.74 0.21 0.28 0.29 0.40 0.84 1.36 0.98 0.88 1.25 1.17 0.65 0.48 0.69 0.97 0.74 0.47 0.16 0.07 0.06 0.08 0.11 0.13 0.15 0.15 0.16 0.20 0.29 0.42 0.42 0.33 0.26 0.29
0.39 0.34 0.28 0.36 0.47 0.61 0.72 0.75 0.82 1.20 1.85 2.00 1.77 2.03 2.20 2.14 1.90 1.55 1.56 0.94 0.55 0.39 0.21 0.25 0.31 0.40 0.78 1.65 1.29 0.91 1.09 1.11 1.11 0.88 0.94 0.74 0.47 0.26 0.26 0.26 0.23 0.20 0.16 0.15 0.17 0.24 0.32 0.40 0.41 0.29 0.23 0.26 0.31 0.36
0.47 0.42 0.35 0.34 0.36 0.43 0.60 0.95 1.16 1.31 1.57 1.68 1.65 1.87 1.94 2.03 1.77 1.44 0.94 0.51 0.48 0.52 0.41 0.29 0.39 0.63 0.69 1.55 1.57 1.22 1.14 1.22 1.03 1.10 1.00 0.71 0.47 0.33 0.33 0.28 0.27 0.26 0.28 0.33 0.40 0.37 0.28 0.26 0.29 0.32 0.42 0.56 0.57 0.64
0.61 0.46 0.40 0.38 0.43 0.61 0.96 1.14 1.42 1.73 1.42 1.70 1.72 1.72 1.69 1.41 0.99 0.85 0.51 0.36 0.46 0.54 0.49 0.35 0.32 0.40 0.64 1.23 2.03 1.66 1.39 0.79 0.93 0.82 0.57 0.64 0.75 0.80 0.63 0.55 0.52 0.59 0.61 0.60 0.63 0.60 0.64 0.66 0.73 0.78 0.78 0.83 0.66 0.74
0.48 0.29 0.29 0.42 0.49 0.66 0.81 0.91 1.06 1.09 0.90 0.81 0.57 0.88 0.89 0.93 0.77 0.67 0.51 0.49 0.62 0.92 0.88 0.86 0.87 0.72 0.81 1.25 1.30 0.99 0.73 0.61 0.52 0.66 0.82 0.89 0.85 0.76 0.60 0.54 0.53 0.58 0.62 0.65 0.71 0.64 0.71 0.73 0.61 0.74 0.80 0.72 0.55 0.57
0.26 0.31 0.43 0.47 0.48 0.45 0.50 0.60 0.68 0.70 0.39 0.28 0.57 0.87 0.79 0.77 0.79 0.74 0.70 0.75 0.84 1.09 1.03 0.95 0.83 0.76 0.93 0.82 0.69 0.74 0.55 0.61 0.75 0.66 0.73 0.74 0.74 0.79 0.85 0.82 0.81 0.83 0.75 0.68 0.64 0.59 0.57 0.54 0.47 0.50 0.51 0.46 0.47 0.38
0.14 0.19 0.31 0.31 0.33 0.38 0.32 0.34 0.38 0.29 0.32 0.40 0.83 1.01 0.89 0.78 0.89 1.00 0.94 0.88 0.83 0.74 0.66 0.42 0.40 0.56 0.57 0.47 0.59 0.64 0.90 0.92 0.85 0.84 0.83 0.83 0.86 0.87 0.85 0.84 0.86 0.75 0.61 0.55 0.53 0.49 0.47 0.44 0.32 0.22 0.27 0.39 0.28 0.23
0.20 0.13 0.17 0.21 0.22 0.25 0.28 0.22 0.16 0.16 0.43 0.76 0.80 1.08 0.79 0.89 0.87 0.85 0.84 0.67 0.51 0.45 0.39 0.38 0.30 0.34 0.56 0.55 0.62 0.71 0.76 0.86 0.92 0.94 1.00 1.08 1.01 0.90 0.80 0.71 0.70 0.57 0.47 0.48 0.42 0.41 0.37 0.29 0.22 0.26 0.22 0.18 0.10 0.09
0.39 0.37 0.28 0.27 0.21 0.14 0.18 0.14 0.03 0.23 0.62 0.72 0.76 0.65 0.55 0.63 0.57 0.56 0.40 0.25 0.16 0.14 0.18 0.25 0.32 0.47 0.68 0.78 0.80 0.77 0.74 0.70 0.75 0.80 0.77 0.82 0.79 0.72 0.66 0.57 0.51 0.49 0.43 0.40 0.31 0.28 0.27 0.23 0.21 0.18 0.15 0.10 0.11 0.12
0.57 0.50 0.36 0.32 0.16 0.07 0.03 0.06 0.01 0.11 0.35 0.37 0.31 0.16 0.13 0.19 0.11 0.04 0.03 0.02 0.03 0.06 0.15 0.33 0.68 0.82 0.78 0.82 0.75 0.74 0.71 0.62 0.47 0.37 0.47 0.58 0.59 0.50 0.56 0.48 0.44 0.39 0.30 0.28 0.26 0.21 0.16 0.14 0.16 0.15 0.14 0.15 0.14 0.14
0.31 0.33 0.35 0.28 0.18 0.02 0.02 0.02 0.05 0.05 0.09 0.12 0.08 0.02 0.04 0.02 0.01 0.01 0.01 0.00 0.03 0.13 0.40 0.61 0.63 0.67 0.47 0.47 0.44 0.43 0.43 0.39 0.40 0.31 0.33 0.41 0.48 0.35 0.36 0.37 0.34 0.32 0.28 0.28 0.24 0.26 0.22 0.23 0.21 0.17 0.15 0.11 0.11 0.10
0.10 0.22 0.25 0.28 0.30 0.13 0.03 0.00 0.02 0.02 0.01 0.03 0.05 0.04 0.05 0.05 0.03 0.02 0.01 0.05 0.27 0.53 0.54 0.39 0.33 0.26 0.19 0.22 0.24 0.21 0.30 0.26 0.31 0.36 0.37 0.29 0.29 0.29 0.32 0.39 0.29 0.31 0.30 0.31 0.26 0.23 0.19 0.16 0.14 0.13 0.09 0.07 0.06 0.05
0.18 0.32 0.33 0.29 0.28 0.14 0.13 0.05 0.05 0.02 0.02 0.02 0.03 0.03 0.03 0.03 0.03 0.02 0.06 0.17 0.45 0.47 0.34 0.19 0.16 0.14 0.14 0.19 0.11 0.09 0.07 0.07 0.12 0.23 0.32 0.31 0.30 0.32 0.30 0.30 0.28 0.25 0.22 0.21 0.18 0.15 0.14 0.11 0.07 0.04 0.03 0.05 0.06 0.04
0.24 0.43 0.44 0.33 0.16 0.15 0.08 0.08 0.04 0.03 0.02 0.02 0.03 0.04 0.04 0.04 0.02 0.03 0.09 0.21 0.37 0.22 0.14 0.16 0.15 0.15 0.13 0.13 0.14 0.18 0.21 0.15 0.17 0.20 0.23 0.19 0.17 0.21 0.16 0.14 0.12 0.12 0.11 0.09 0.06 0.04 0.03 0.03 0.03 0.05 0.05 0.05 0.04 0.06
0.41 0.36 0.32 0.26 0.14 0.07 0.04 0.04 0.05 0.04 0.03 0.02 0.04 0.06 0.04 0.02 0.04 0.05 0.09 0.28 0.24 0.21 0.19 0.17 0.16 0.15 0.17 0.19 0.18 0.17 0.14 0.12 0.10 0.10 0.13 0.11 0.10 0.09 0.06 0.05 0.04 0.05 0.04 0.06 0.05 0.04 0.03 0.04 0.04 0.04 0.03 0.05 0.07 0.09
0.36 0.22 0.14 0.10 0.07 0.08 0.05 0.03 0.03 0.04 0.04 0.09 0.11 0.09 0.05 0.08 0.08 0.14 0.21 0.30 0.25 0.25 0.27 0.27 0.23 0.16 0.14 0.13 0.12 0.11 0.08 0.08 0.05 0.04 0.06 0.02 0.04 0.06 0.05 0.03 0.03 0.04 0.05 0.06 0.08 0.08 0.04 0.03 0.04 0.04 0.06 0.06 0.08 0.12
0.16 0.10 0.04 0.03 0.07 0.13 0.18 0.15 0.14 0.16 0.16 0.16 0.12 0.09 0.13 0.17 0.16 0.27 0.35 0.29 0.25 0.26 0.21 0.18 0.13 0.11 0.12 0.11 0.08 0.06 0.02 0.01 0.01 0.02 0.01 0.02 0.03 0.04 0.06 0.10 0.13 0.11 0.05 0.05 0.08 0.10 0.13 0.11 0.09 0.07 0.08 0.09 0.11 0.16
0.06 0.07 0.09 0.11 0.18 0.20 0.18 0.16 0.19 0.22 0.24 0.21 0.16 0.15 0.16 0.15 0.26 0.37 0.34 0.34 0.22 0.13 0.08 0.06 0.03 0.03 0.03 0.05 0.06 0.06 0.03 0.01 0.01 0.01 0.02 0.07 0.07 0.05 0.04 0.06 0.06 0.04 0.05 0.07 0.09 0.09 0.11 0.13 0.13 0.12 0.13 0.15 0.17 0.20
0.09 0.10 0.10 0.10 0.06 0.04 0.09 0.13 0.14 0.15 0.15 0.11 0.08 0.11 0.14 0.22 0.34 0.32 0.29 0.21 0.16 0.11 0.08 0.07 0.11 0.07 0.05 0.02 0.02 0.02 0.01 0.01 0.01 0.00 0.01 0.04 0.09 0.07 0.04 0.04 0.05 0.05 0.06 0.06 0.06 0.07 0.11 0.14 0.12 0.16 0.20 0.22 0.20 0.17
0.01 0.01 0.01 0.00 0.04 0.09 0.17 0.12 0.13 0.11 0.05 0.04 0.05 0.10 0.15 0.36 0.53 0.31 0.19 0.16 0.14 0.12 0.12 0.10 0.10 0.06 0.05 0.04 0.03 0.04 0.06 0.02 0.02 0.03 0.05 0.05 0.05 0.06 0.05 0.05 0.05 0.05 0.06 0.07 0.05 0.04 0.07 0.07 0.08 0.15 0.11 0.11 0.13 0.13
0.01 0.01 0.01 0.01 0.09 0.16 0.13 0.07 0.07 0.08 0.08 0.05 0.05 0.07 0.19 0.29 0.31 0.25 0.17 0.17 0.08 0.07 0.06 0.05 0.04 0.04 0.02 0.02 0.04 0.04 0.05 0.04 0.03 0.03 0.03 0.04 0.04 0.05 0.05 0.04 0.05 0.06 0.06 0.06 0.06 0.07 0.07 0.07 0.10 0.11 0.07 0.06 0.08 0.08
0.01 0.03 0.02 0.06 0.16 0.13 0.16 0.16 0.10 0.14 0.11 0.07 0.10 0.08 0.12 0.10 0.11 0.14 0.14 0.14 0.09 0.07 0.05 0.05 0.06 0.06 0.04 0.03 0.03 0.04 0.04 0.03 0.03 0.02 0.03 0.05 0.04 0.04 0.03 0.02 0.04 0.06 0.06 0.06 0.06 0.08 0.09 0.09 0.09 0.08 0.09 0.07 0.07 0.06
0.02 0.01 0.01 0.02 0.06 0.09 0.10 0.07 0.06 0.06 0.07 0.09 0.14 0.13 0.13 0.10 0.10 0.15 0.14 0.10 0.14 0.07 0.05 0.04 0.04 0.04 0.05 0.02 0.01 0.02 0.01 0.01 0.01 0.02 0.03 0.04 0.02 0.02 0.02 0.03 0.05 0.05 0.06 0.07 0.08 0.09 0.08 0.07 0.07 0.07 0.06 0.06 0.05 0.04

GFSWCAN_prec_precacc_093.txt.gz
Total_Precipitation_Accumulation
0.80 0.64 0.67 0.61 0.57 0.52 0.52 0.71 0.66 0.70 0.70 0.80 0.77 0.85 0.83 0.84 1.20 2.04 1.77 1.18 1.49 1.70 0.74 0.45 0.35 0.34 0.17 0.23 0.38 0.39 0.61 0.75 0.68 0.47 0.20 0.13 0.11 0.09 0.11 0.17 0.19 0.19 0.25 0.28 0.36 0.42 0.16 0.05 0.11 0.18 0.18 0.07 0.03 0.06
1.08 0.90 0.67 0.52 0.56 0.50 0.55 0.61 0.61 0.62 0.67 0.79 0.68 0.67 0.73 0.84 1.20 2.00 2.18 1.24 1.34 1.74 1.08 0.58 0.34 0.32 0.21 0.17 0.34 0.49 0.62 0.45 0.40 0.48 0.23 0.22 0.18 0.15 0.09 0.10 0.19 0.41 0.22 0.19 0.12 0.13 0.16 0.16 0.23 0.18 0.12 0.15 0.12 0.08
1.24 0.87 0.58 0.51 0.48 0.52 0.49 0.55 0.54 0.58 0.68 0.78 0.74 0.66 0.76 0.92 1.25 2.08 2.07 1.23 2.56 2.84 1.31 0.64 0.50 0.27 0.23 0.16 0.30 0.59 0.27 0.35 0.59 0.66 0.61 0.43 0.31 0.14 0.12 0.07 0.22 0.48 0.64 0.70 0.68 0.55 0.29 0.32 0.29 0.11 0.15 0.19 0.10 0.09
1.05 0.93 0.62 0.41 0.41 0.48 0.47 0.53 0.57 0.62 0.64 0.79 0.78 0.85 1.02 1.09 1.35 2.09 1.96 1.56 2.47 2.26 1.70 0.74 0.31 0.25 0.21 0.18 0.16 0.25 0.27 0.30 0.44 0.59 0.61 0.59 0.31 0.13 0.23 0.15 0.22 0.36 0.53 0.63 1.00 0.70 0.49 0.43 0.89 0.43 0.19 0.14 0.09 0.03
1.16 0.88 0.56 0.37 0.38 0.42 0.47 0.58 0.62 0.69 0.83 0.84 0.83 1.04 1.35 1.34 1.51 1.95 1.81 1.67 1.57 1.57 1.56 0.92 0.26 0.23 0.33 0.32 0.27 0.27 0.34 0.42 0.65 1.00 0.70 0.23 0.13 0.20 0.21 0.40 0.31 0.15 0.37 0.71 0.90 1.13 0.94 0.84 0.74 0.65 0.46 0.29 0.15 0.07
1.12 0.77 0.55 0.38 0.35 0.36 0.38 0.46 0.48 0.61 0.76 0.84 0.91 1.26 1.28 1.29 2.00 3.00 4.49 2.91 1.51 1.30 1.73 1.20 0.62 0.17 0.33 0.40 0.60 0.40 0.44 0.71 0.93 1.12 0.84 0.32 0.23 0.44 0.37 0.50 0.47 0.50 0.32 0.28 0.51 0.71 1.01 0.90 0.53 0.28 0.20 0.13 0.05 0.04
0.96 0.71 0.54 0.42 0.31 0.29 0.31 0.34 0.41 0.54 0.73 0.89 1.07 1.00 1.18 1.41 2.11 2.09 2.12 1.43 0.97 1.34 1.95 1.26 0.80 0.51 0.46 0.71 0.67 0.73 0.70 1.15 1.13 1.29 0.97 0.49 0.29 0.63 0.65 0.44 0.29 0.23 0.14 0.08 0.09 0.19 0.19 0.14 0.11 0.03 0.02 0.02 0.02 0.01
0.91 0.68 0.52 0.38 0.44 0.36 0.34 0.41 0.51 0.62 0.78 1.04 1.29 1.24 1.51 1.99 2.42 1.48 0.79 0.57 0.79 1.50 1.31 1.30 0.77 0.98 0.57 1.06 0.83 0.74 0.92 1.22 1.25 1.00 0.69 0.45 0.50 0.87 0.88 0.25 0.06 0.02 0.02 0.03 0.05 0.06 0.04 0.04 0.02 0.02 0.02 0.02 0.02 0.02
0.44 0.40 0.41 0.41 0.46 0.52 0.60 0.68 0.72 0.90 1.22 1.35 1.62 2.18 3.26 3.21 2.47 1.65 0.94 1.03 1.12 1.29 1.15 0.74 0.67 1.20 0.84 1.15 1.31 0.88 0.78 1.01 0.83 0.90 0.66 0.62 0.69 1.13 0.71 0.26 0.09 0.03 0.02 0.03 0.02 0.04 0.08 0.10 0.11 0.11 0.10 0.11 0.16 0.28
0.38 0.40 0.40 0.40 0.41 0.48 0.55 0.74 0.99 1.32 1.45 1.73 2.59 3.12 3.44 2.30 1.71 1.87 2.63 2.65 2.23 1.10 0.61 0.52 0.53 0.92 1.22 1.10 1.25 1.52 1.11 0.70 0.59 0.55 0.71 1.09 0.90 0.42 0.12 0.07 0.12 0.16 0.16 0.11 0.07 0.08 0.11 0.14 0.14 0.20 0.27 0.36 0.45 0.43
0.40 0.41 0.48 0.55 0.62 0.69 0.93 1.12 0.96 0.98 2.00 2.88 3.03 2.65 2.57 2.20 1.73 2.16 2.24 1.85 1.37 0.74 0.21 0.28 0.29 0.40 0.84 1.38 0.99 0.88 1.25 1.17 0.65 0.48 0.70 0.98 0.74 0.47 0.16 0.07 0.06 0.08 0.11 0.13 0.15 0.15 0.16 0.20 0.29 0.42 0.43 0.34 0.27 0.29
0.40 0.35 0.29 0.37 0.47 0.62 0.73 0.76 0.86 1.40 2.07 2.08 1.88 2.09 2.27 2.31 1.98 1.57 1.57 0.94 0.55 0.39 0.21 0.25 0.31 0.40 0.78 1.70 1.32 0.92 1.10 1.17 1.11 0.90 0.95 0.75 0.48 0.27 0.26 0.26 0.23 0.20 0.16 0.15 0.17 0.24 0.32 0.40 0.41 0.29 0.23 0.26 0.32 0.37
0.47 0.43 0.37 0.35 0.38 0.44 0.60 0.97 1.27 1.50 1.66 1.77 1.79 1.94 1.98 2.08 1.83 1.45 0.95 0.51 0.48 0.52 0.41 0.29 0.40 0.63 0.69 1.60 1.63 1.22 1.14 1.24 1.06 1.12 1.01 0.71 0.47 0.33 0.33 0.28 0.27 0.26 0.28 0.33 0.40 0.37 0.28 0.26 0.29 0.32 0.42 0.56 0.57 0.64
0.65 0.52 0.44 0.40 0.45 0.63 0.97 1.18 1.58 1.96 1.59 1.85 1.92 1.87 1.70 1.42 0.99 0.85 0.51 0.36 0.46 0.54 0.49 0.35 0.32 0.41 0.64 1.28 2.13 1.66 1.39 0.79 0.94 0.82 0.57 0.64 0.75 0.80 0.63 0.55 0.52 0.59 0.61 0.60 0.63 0.60 0.64 0.66 0.73 0.78 0.78 0.83 0.66 0.74
0.66 0.39 0.31 0.43 0.52 0.69 0.83 0.98 1.29 1.35 1.11 1.00 0.70 0.94 0.89 0.93 0.77 0.67 0.51 0.49 0.62 0.92 0.88 0.86 0.88 0.73 0.81 1.26 1.31 0.99 0.74 0.62 0.52 0.66 0.82 0.90 0.86 0.76 0.60 0.54 0.53 0.58 0.62 0.65 0.71 0.64 0.71 0.73 0.61 0.75 0.80 0.72 0.55 0.57
0.46 0.36 0.45 0.49 0.56 0.56 0.65 0.80 0.85 0.81 0.54 0.32 0.59 0.87 0.80 0.77 0.79 0.74 0.70 0.75 0.84 1.09 1.03 0.95 0.83 0.76 0.93 0.82 0.69 0.74 0.55 0.61 0.75 0.66 0.74 0.74 0.74 0.79 0.85 0.82 0.81 0.83 0.75 0.68 0.64 0.59 0.57 0.54 0.47 0.50 0.51 0.46 0.47 0.38
0.17 0.31 0.39 0.37 0.41 0.47 0.43 0.42 0.45 0.34 0.44 0.42 0.83 1.01 0.89 0.78 0.89 1.01 0.94 0.89 0.84 0.75 0.66 0.42 0.40 0.56 0.57 0.47 0.59 0.64 0.90 0.92 0.85 0.85 0.83 0.83 0.86 0.87 0.85 0.84 0.86 0.75 0.61 0.55 0.53 0.49 0.47 0.44 0.32 0.22 0.27 0.39 0.28 0.23
0.22 0.20 0.22 0.25 0.27 0.28 0.33 0.26 0.19 0.17 0.45 0.77 0.80 1.08 0.79 0.89 0.87 0.85 0.85 0.69 0.52 0.46 0.39 0.38 0.30 0.34 0.56 0.55 0.62 0.71 0.76 0.86 0.92 0.94 1.00 1.08 1.01 0.90 0.80 0.71 0.70 0.57 0.47 0.48 0.42 0.41 0.37 0.29 0.22 0.26 0.22 0.18 0.10 0.09
0.41 0.42 0.33 0.29 0.22 0.16 0.24 0.16 0.03 0.23 0.63 0.72 0.77 0.65 0.55 0.63 0.57 0.57 0.40 0.25 0.16 0.14 0.18 0.25 0.32 0.47 0.68 0.78 0.80 0.77 0.74 0.70 0.75 0.80 0.78 0.83 0.79 0.72 0.66 0.57 0.51 0.49 0.43 0.40 0.31 0.29 0.27 0.23 0.22 0.18 0.15 0.10 0.11 0.12
0.59 0.52 0.38 0.33 0.16 0.09 0.03 0.06 0.01 0.11 0.35 0.40 0.32 0.16 0.13 0.20 0.11 0.04 0.03 0.02 0.03 0.06 0.15 0.33 0.68 0.82 0.78 0.82 0.75 0.74 0.71 0.62 0.47 0.38 0.47 0.58 0.59 0.50 0.57 0.48 0.44 0.39 0.31 0.29 0.26 0.22 0.16 0.14 0.16 0.15 0.14 0.15 0.14 0.15
0.32 0.33 0.35 0.28 0.18 0.02 0.02 0.02 0.05 0.05 0.09 0.14 0.08 0.02 0.05 0.03 0.02 0.02 0.01 0.00 0.03 0.13 0.40 0.61 0.63 0.67 0.47 0.47 0.44 0.43 0.43 0.39 0.40 0.31 0.33 0.41 0.48 0.35 0.37 0.37 0.34 0.33 0.28 0.28 0.24 0.26 0.22 0.23 0.21 0.17 0.15 0.11 0.11 0.10
0.10 0.22 0.25 0.28 0.30 0.13 0.03 0.00 0.02 0.02 0.02 0.04 0.05 0.04 0.05 0.06 0.04 0.02 0.01 0.05 0.28 0.54 0.54 0.39 0.34 0.26 0.19 0.22 0.24 0.21 0.30 0.26 0.31 0.36 0.37 0.29 0.29 0.29 0.32 0.39 0.29 0.31 0.30 0.31 0.26 0.23 0.19 0.16 0.14 0.13 0.09 0.07 0.06 0.05
0.18 0.32 0.33 0.29 0.28 0.14 0.13 0.05 0.05 0.02 0.02 0.03 0.03 0.03 0.03 0.03 0.03 0.02 0.06 0.17 0.45 0.47 0.34 0.19 0.16 0.14 0.14 0.19 0.11 0.09 0.07 0.07 0.12 0.23 0.32 0.31 0.30 0.32 0.30 0.30 0.28 0.25 0.22 0.21 0.18 0.15 0.14 0.11 0.07 0.04 0.03 0.05 0.06 0.04
0.24 0.43 0.44 0.33 0.16 0.16 0.08 0.08 0.04 0.03 0.02 0.02 0.03 0.04 0.04 0.04 0.02 0.03 0.09 0.21 0.37 0.23 0.14 0.16 0.15 0.15 0.13 0.13 0.14 0.18 0.21 0.15 0.17 0.20 0.23 0.19 0.17 0.21 0.16 0.14 0.12 0.12 0.11 0.09 0.06 0.04 0.03 0.03 0.03 0.05 0.05 0.05 0.04 0.06
0.41 0.36 0.32 0.26 0.14 0.07 0.04 0.04 0.05 0.04 0.03 0.02 0.04 0.06 0.04 0.02 0.04 0.05 0.09 0.28 0.25 0.22 0.19 0.17 0.16 0.15 0.17 0.19 0.18 0.17 0.14 0.12 0.10 0.10 0.13 0.11 0.10 0.09 0.06 0.05 0.04 0.05 0.04 0.06 0.05 0.04 0.03 0.04 0.04 0.04 0.03 0.05 0.07 0.09
0.36 0.22 0.14 0.10 0.07 0.08 0.05 0.03 0.03 0.04 0.04 0.09 0.11 0.09 0.05 0.08 0.08 0.14 0.21 0.30 0.25 0.25 0.27 0.27 0.23 0.16 0.14 0.13 0.12 0.11 0.08 0.08 0.05 0.04 0.06 0.02 0.04 0.06 0.05 0.03 0.03 0.04 0.05 0.06 0.08 0.08 0.04 0.03 0.04 0.05 0.06 0.06 0.08 0.12
0.16 0.10 0.04 0.03 0.07 0.13 0.18 0.15 0.14 0.16 0.16 0.16 0.12 0.09 0.13 0.17 0.16 0.27 0.36 0.29 0.25 0.26 0.21 0.18 0.13 0.11 0.12 0.11 0.08 0.06 0.02 0.01 0.01 0.02 0.01 0.02 0.03 0.04 0.06 0.10 0.13 0.11 0.05 0.05 0.08 0.10 0.13 0.11 0.09 0.07 0.09 0.09 0.11 0.16
0.06 0.07 0.09 0.11 0.18 0.20 0.18 0.16 0.19 0.22 0.25 0.21 0.16 0.15 0.16 0.15 0.26 0.38 0.34 0.35 0.22 0.13 0.08 0.06 0.03 0.03 0.03 0.05 0.06 0.06 0.03 0.01 0.01 0.01 0.02 0.07 0.07 0.05 0.04 0.06 0.06 0.04 0.05 0.07 0.09 0.09 0.11 0.13 0.13 0.12 0.13 0.15 0.17 0.20
0.09 0.10 0.10 0.10 0.06 0.04 0.09 0.14 0.15 0.15 0.16 0.11 0.08 0.11 0.14 0.22 0.35 0.32 0.30 0.22 0.16 0.11 0.08 0.07 0.11 0.07 0.05 0.02 0.02 0.02 0.01 0.01 0.01 0.00 0.01 0.04 0.09 0.07 0.04 0.04 0.05 0.05 0.06 0.06 0.06 0.07 0.12 0.15 0.13 0.16 0.20 0.22 0.20 0.17
0.01 0.01 0.01 0.00 0.04 0.09 0.18 0.12 0.13 0.11 0.05 0.04 0.05 0.11 0.15 0.37 0.55 0.32 0.20 0.16 0.14 0.12 0.12 0.10 0.10 0.06 0.05 0.04 0.03 0.04 0.06 0.02 0.02 0.03 0.05 0.05 0.05 0.06 0.05 0.05 0.05 0.05 0.06 0.07 0.05 0.04 0.07 0.07 0.08 0.15 0.11 0.11 0.13 0.13
0.01 0.01 0.01 0.01 0.09 0.16 0.14 0.07 0.07 0.08 0.08 0.05 0.05 0.07 0.20 0.31 0.32 0.27 0.19 0.18 0.08 0.07 0.06 0.05 0.04 0.04 0.02 0.02 0.04 0.04 0.05 0.04 0.03 0.03 0.03 0.04 0.04 0.05 0.05 0.04 0.05 0.06 0.06 0.06 0.06 0.07 0.07 0.07 0.10 0.11 0.07 0.06 0.08 0.08
0.01 0.03 0.02 0.06 0.16 0.13 0.16 0.16 0.10 0.14 0.11 0.07 0.10 0.08 0.12 0.10 0.12 0.15 0.15 0.14 0.09 0.07 0.05 0.05 0.06 0.06 0.04 0.03 0.03 0.04 0.04 0.03 0.03 0.02 0.03 0.05 0.04 0.04 0.03 0.02 0.04 0.06 0.06 0.06 0.06 0.08 0.09 0.09 0.09 0.08 0.09 0.07 0.07 0.06
0.02 0.01 0.01 0.02 0.06 0.10 0.10 0.07 0.06 0.06 0.07 0.09 0.14 0.13 0.13 0.10 0.10 0.15 0.14 0.10 0.14 0.07 0.05 0.04 0.04 0.04 0.05 0.02 0.01 0.02 0.01 0.01 0.01 0.02 0.03 0.04 0.02 0.02 0.02 0.03 0.05 0.05 0.06 0.07 0.08 0.09 0.08 0.07 0.07 0.07 0.06 0.06 0.05 0.04

GFSWCAN_prec_precacc_096.txt.gz
Total_Precipitation_Accumulation
0.82 0.66 0.70 0.63 0.57 0.52 0.52 0.72 0.66 0.70 0.70 0.81 0.78 0.85 0.83 0.84 1.20 2.07 1.84 1.19 1.49 1.71 0.74 0.45 0.35 0.34 0.17 0.23 0.38 0.39 0.61 0.75 0.68 0.47 0.21 0.13 0.11 0.10 0.11 0.17 0.20 0.19 0.26 0.28 0.36 0.42 0.16 0.05 0.11 0.18 0.19 0.07 0.03 0.06
1.08 0.90 0.69 0.57 0.58 0.50 0.55 0.61 0.61 0.62 0.68 0.80 0.68 0.67 0.73 0.84 1.20 2.02 2.26 1.30 1.35 1.77 1.08 0.58 0.34 0.32 0.21 0.17 0.34 0.49 0.62 0.45 0.40 0.49 0.24 0.22 0.18 0.15 0.09 0.11 0.19 0.42 0.23 0.20 0.14 0.16 0.18 0.17 0.24 0.20 0.13 0.16 0.14 0.11
1.25 0.88 0.59 0.51 0.48 0.52 0.49 0.55 0.54 0.58 0.69 0.80 0.74 0.66 0.76 0.92 1.25 2.10 2.10 1.27 2.59 2.86 1.31 0.64 0.50 0.27 0.23 0.16 0.30 0.59 0.27 0.35 0.60 0.66 0.61 0.43 0.32 0.15 0.12 0.07 0.22 0.49 0.65 0.71 0.72 0.58 0.31 0.35 0.31 0.13 0.17 0.25 0.20 0.13
1.06 0.94 0.63 0.43 0.42 0.48 0.47 0.53 0.57 0.62 0.65 0.81 0.78 0.85 1.02 1.09 1.37 2.12 1.99 1.57 2.48 2.28 1.71 0.74 0.31 0.25 0.21 0.18 0.16 0.25 0.27 0.30 0.44 0.59 0.62 0.59 0.31 0.14 0.23 0.16 0.22 0.36 0.53 0.64 1.04 0.73 0.51 0.44 0.91 0.47 0.21 0.15 0.10 0.05
1.18 0.89 0.57 0.38 0.38 0.43 0.47 0.59 0.62 0.70 0.84 0.84 0.83 1.04 1.35 1.35 1.52 1.99 1.85 1.69 1.57 1.59 1.58 0.92 0.26 0.23 0.33 0.32 0.27 0.27 0.34 0.42 0.66 1.00 0.71 0.25 0.14 0.21 0.22 0.42 0.31 0.15 0.39 0.74 0.93 1.15 0.97 0.86 0.77 0.69 0.48 0.31 0.16 0.07
1.14 0.79 0.57 0.39 0.36 0.37 0.38 0.46 0.48 0.62 0.77 0.84 0.91 1.26 1.28 1.31 2.04 3.07 4.54 2.93 1.52 1.32 1.84 1.22 0.62 0.17 0.33 0.40 0.60 0.40 0.44 0.71 0.94 1.13 0.87 0.36 0.24 0.47 0.38 0.51 0.47 0.53 0.34 0.33 0.57 0.74 1.03 0.92 0.55 0.29 0.22 0.15 0.06 0.04
1.00 0.74 0.58 0.44 0.32 0.30 0.31 0.35 0.42 0.55 0.73 0.89 1.08 1.03 1.22 1.43 2.15 2.14 2.13 1.43 0.98 1.37 2.08 1.29 0.80 0.51 0.46 0.71 0.67 0.73 0.70 1.15 1.14 1.30 0.98 0.50 0.30 0.64 0.66 0.44 0.30 0.24 0.14 0.09 0.11 0.21 0.20 0.14 0.11 0.03 0.02 0.02 0.02 0.01
0.93 0.70 0.55 0.39 0.44 0.36 0.34 0.42 0.52 0.63 0.78 1.04 1.32 1.31 1.57 2.04 2.49 1.53 0.82 0.59 0.80 1.56 1.37 1.33 0.77 0.98 0.57 1.07 0.83 0.74 0.92 1.23 1.26 1.02 0.69 0.46 0.52 0.88 0.89 0.25 0.06 0.02 0.02 0.03 0.05 0.06 0.04 0.04 0.02 0.02 0.02 0.02 0.02 0.02
0.45 0.42 0.42 0.42 0.47 0.52 0.60 0.68 0.72 0.90 1.22 1.37 1.73 2.40 3.44 3.33 2.54 1.72 1.01 1.09 1.13 1.30 1.16 0.75 0.67 1.21 0.85 1.16 1.32 0.88 0.79 1.02 0.85 0.91 0.66 0.63 0.70 1.14 0.71 0.26 0.09 0.03 0.02 0.03 0.02 0.04 0.08 0.10 0.11 0.11 0.10 0.11 0.16 0.28
0.38 0.41 0.41 0.41 0.42 0.49 0.56 0.74 0.99 1.32 1.46 1.86 2.93 3.37 3.58 2.39 1.75 1.94 2.72 2.68 2.24 1.11 0.62 0.53 0.53 0.92 1.24 1.15 1.28 1.55 1.12 0.72 0.61 0.55 0.72 1.10 0.90 0.43 0.12 0.07 0.13 0.16 0.16 0.11 0.07 0.08 0.11 0.14 0.15 0.20 0.27 0.36 0.45 0.43
0.40 0.41 0.48 0.55 0.62 0.70 0.95 1.13 0.96 0.99 2.13 3.12 3.31 2.77 2.64 2.28 1.76 2.18 2.25 1.86 1.38 0.75 0.21 0.28 0.29 0.40 0.84 1.40 1.00 0.88 1.25 1.18 0.66 0.48 0.70 0.98 0.74 0.48 0.16 0.07 0.06 0.08 0.11 0.13 0.15 0.15 0.16 0.20 0.30 0.42 0.43 0.34 0.27 0.29
0.41 0.35 0.30 0.37 0.48 0.62 0.74 0.76 0.87 1.50 2.20 2.16 2.02 2.18 2.35 2.42 2.02 1.59 1.57 0.94 0.55 0.39 0.21 0.25 0.31 0.41 0.78 1.70 1.34 0.92 1.11 1.19 1.12 0.92 0.97 0.75 0.48 0.27 0.27 0.26 0.23 0.20 0.16 0.15 0.17 0.24 0.32 0.40 0.41 0.29 0.23 0.26 0.32 0.37
0.48 0.44 0.38 0.36 0.39 0.45 0.61 0.98 1.29 1.57 1.82 1.94 1.91 2.06 2.06 2.18 1.86 1.45 0.95 0.51 0.48 0.52 0.41 0.29 0.40 0.64 0.69 1.63 1.71 1.23 1.14 1.25 1.09 1.15 1.02 0.71 0.48 0.34 0.33 0.28 0.27 0.26 0.28 0.33 0.40 0.37 0.28 0.26 0.29 0.32 0.42 0.57 0.58 0.64
0.66 0.52 0.45 0.41 0.47 0.64 0.97 1.19 1.64 2.13 1.88 1.97 2.02 1.91 1.72 1.42 0.99 0.85 0.51 0.36 0.46 0.54 0.49 0.35 0.32 0.41 0.65 1.29 2.18 1.67 1.39 0.80 0.94 0.83 0.57 0.65 0.75 0.80 0.63 0.55 0.52 0.59 0.61 0.60 0.63 0.60 0.64 0.66 0.74 0.79 0.78 0.83 0.66 0.74
0.67 0.39 0.31 0.43 0.53 0.70 0.84 1.01 1.42 1.61 1.38 1.06 0.75 0.95 0.89 0.93 0.77 0.67 0.51 0.49 0.62 0.92 0.88 0.86 0.88 0.73 0.81 1.28 1.33 1.00 0.75 0.62 0.52 0.66 0.82 0.90 0.86 0.76 0.60 0.54 0.53 0.58 0.62 0.65 0.71 0.64 0.71 0.73 0.62 0.75 0.81 0.72 0.55 0.57
0.52 0.49 0.49 0.50 0.57 0.58 0.67 0.94 1.17 1.01 0.67 0.35 0.60 0.87 0.80 0.77 0.80 0.74 0.70 0.75 0.84 1.09 1.03 0.95 0.83 0.76 0.93 0.82 0.69 0.74 0.55 0.61 0.75 0.66 0.74 0.74 0.74 0.79 0.85 0.82 0.81 0.83 0.75 0.68 0.64 0.59 0.57 0.54 0.47 0.51 0.51 0.46 0.47 0.38
0.38 0.49 0.45 0.38 0.42 0.52 0.58 0.68 0.65 0.49 0.51 0.43 0.83 1.01 0.89 0.78 0.89 1.01 0.94 0.89 0.84 0.75 0.66 0.42 0.40 0.56 0.57 0.47 0.59 0.64 0.90 0.92 0.85 0.85 0.83 0.83 0.86 0.87 0.85 0.84 0.86 0.75 0.61 0.55 0.53 0.49 0.47 0.44 0.32 0.22 0.27 0.39 0.28 0.23
0.40 0.27 0.23 0.27 0.35 0.48 0.60 0.39 0.29 0.23 0.49 0.78 0.80 1.09 0.80 0.89 0.87 0.86 0.86 0.69 0.53 0.46 0.39 0.38 0.30 0.34 0.56 0.55 0.62 0.71 0.77 0.87 0.92 0.94 1.00 1.08 1.01 0.90 0.80 0.71 0.70 0.57 0.47 0.48 0.42 0.41 0.37 0.29 0.22 0.26 0.22 0.18 0.10 0.09
0.53 0.49 0.38 0.34 0.28 0.25 0.38 0.25 0.04 0.23 0.64 0.73 0.78 0.66 0.56 0.64 0.58 0.57 0.40 0.25 0.16 0.14 0.18 0.25 0.32 0.47 0.68 0.78 0.80 0.77 0.75 0.71 0.76 0.80 0.78 0.83 0.79 0.72 0.66 0.57 0.51 0.49 0.43 0.40 0.31 0.29 0.28 0.23 0.22 0.18 0.16 0.11 0.12 0.13
0.66 0.58 0.43 0.35 0.17 0.09 0.05 0.09 0.01 0.11 0.36 0.40 0.32 0.17 0.13 0.20 0.11 0.05 0.04 0.02 0.03 0.06 0.16 0.33 0.68 0.82 0.78 0.82 0.75 0.74 0.71 0.62 0.47 0.38 0.47 0.58 0.60 0.50 0.57 0.48 0.44 0.39 0.31 0.29 0.26 0.22 0.16 0.15 0.16 0.15 0.14 0.15 0.15 0.15
0.32 0.35 0.36 0.28 0.20 0.02 0.02 0.02 0.05 0.05 0.10 0.15 0.09 0.02 0.06 0.03 0.03 0.03 0.02 0.01 0.04 0.14 0.40 0.61 0.63 0.67 0.47 0.47 0.44 0.43 0.43 0.39 0.40 0.31 0.33 0.41 0.48 0.35 0.37 0.37 0.34 0.33 0.28 0.28 0.24 0.26 0.22 0.24 0.21 0.17 0.15 0.11 0.11 0.10
0.10 0.22 0.25 0.28 0.31 0.13 0.03 0.00 0.02 0.02 0.02 0.06 0.06 0.04 0.06 0.07 0.05 0.03 0.02 0.06 0.28 0.54 0.54 0.40 0.34 0.26 0.19 0.22 0.24 0.21 0.30 0.26 0.31 0.36 0.37 0.29 0.29 0.29 0.32 0.39 0.30 0.31 0.31 0.31 0.26 0.23 0.19 0.16 0.14 0.13 0.09 0.07 0.06 0.06
0.18 0.32 0.34 0.30 0.28 0.14 0.13 0.05 0.05 0.02 0.02 0.03 0.03 0.03 0.03 0.03 0.03 0.02 0.06 0.17 0.45 0.48 0.34 0.19 0.16 0.14 0.14 0.19 0.11 0.09 0.07 0.07 0.12 0.23 0.32 0.31 0.30 0.32 0.30 0.30 0.28 0.25 0.22 0.21 0.18 0.15 0.14 0.11 0.07 0.04 0.03 0.05 0.06 0.05
0.25 0.43 0.46 0.34 0.16 0.16 0.09 0.08 0.04 0.03 0.02 0.02 0.03 0.04 0.05 0.04 0.02 0.03 0.09 0.21 0.38 0.24 0.14 0.16 0.15 0.15 0.13 0.13 0.14 0.18 0.21 0.15 0.17 0.20 0.23 0.19 0.17 0.21 0.16 0.14 0.12 0.12 0.11 0.09 0.06 0.04 0.03 0.03 0.03 0.05 0.05 0.05 0.04 0.06
0.41 0.36 0.32 0.26 0.14 0.07 0.04 0.04 0.05 0.04 0.03 0.02 0.04 0.06 0.04 0.02 0.04 0.05 0.09 0.28 0.25 0.22 0.19 0.17 0.16 0.15 0.17 0.19 0.18 0.17 0.14 0.12 0.10 0.10 0.13 0.11 0.10 0.09 0.06 0.05 0.04 0.05 0.04 0.06 0.05 0.04 0.04 0.04 0.04 0.04 0.04 0.05 0.07 0.09
0.36 0.22 0.14 0.10 0.07 0.08 0.05 0.03 0.03 0.04 0.04 0.09 0.12 0.09 0.05 0.08 0.08 0.14 0.21 0.30 0.25 0.25 0.27 0.27 0.23 0.16 0.14 0.13 0.12 0.11 0.08 0.08 0.05 0.04 0.06 0.02 0.04 0.06 0.05 0.03 0.03 0.04 0.05 0.06 0.08 0.08 0.04 0.04 0.04 0.05 0.06 0.07 0.08 0.12
0.16 0.10 0.04 0.03 0.07 0.13 0.18 0.15 0.14 0.16 0.16 0.16 0.12 0.09 0.13 0.17 0.16 0.27 0.36 0.29 0.25 0.26 0.21 0.18 0.13 0.11 0.12 0.11 0.08 0.06 0.02 0.01 0.01 0.02 0.01 0.02 0.03 0.04 0.06 0.10 0.13 0.12 0.05 0.05 0.08 0.10 0.13 0.11 0.09 0.07 0.09 0.09 0.11 0.16
0.06 0.08 0.09 0.11 0.18 0.20 0.18 0.16 0.19 0.22 0.25 0.21 0.16 0.15 0.16 0.15 0.26 0.38 0.35 0.35 0.22 0.13 0.08 0.06 0.03 0.03 0.03 0.05 0.06 0.06 0.03 0.01 0.01 0.01 0.02 0.07 0.07 0.05 0.04 0.06 0.06 0.04 0.05 0.07 0.09 0.09 0.11 0.13 0.13 0.13 0.13 0.15 0.17 0.21
0.09 0.10 0.10 0.10 0.06 0.04 0.09 0.14 0.15 0.15 0.16 0.11 0.08 0.11 0.14 0.22 0.36 0.33 0.31 0.22 0.16 0.11 0.08 0.07 0.11 0.07 0.05 0.02 0.02 0.02 0.01 0.01 0.01 0.00 0.01 0.04 0.09 0.07 0.04 0.04 0.05 0.05 0.06 0.06 0.06 0.07 0.12 0.15 0.13 0.17 0.20 0.22 0.20 0.17
0.01 0.01 0.01 0.00 0.04 0.09 0.18 0.13 0.14 0.11 0.06 0.04 0.05 0.11 0.16 0.38 0.56 0.34 0.20 0.16 0.14 0.12 0.12 0.10 0.10 0.06 0.05 0.04 0.03 0.04 0.06 0.02 0.02 0.03 0.05 0.05 0.05 0.06 0.05 0.06 0.05 0.05 0.06 0.07 0.05 0.04 0.07 0.07 0.08 0.15 0.11 0.11 0.13 0.13
0.01 0.01 0.01 0.01 0.09 0.17 0.14 0.07 0.07 0.08 0.08 0.05 0.05 0.07 0.20 0.32 0.34 0.28 0.20 0.19 0.08 0.07 0.06 0.05 0.04 0.04 0.02 0.02 0.04 0.04 0.05 0.04 0.03 0.03 0.03 0.04 0.04 0.05 0.05 0.04 0.05 0.06 0.06 0.06 0.06 0.07 0.07 0.07 0.10 0.11 0.07 0.06 0.08 0.08
0.01 0.03 0.02 0.06 0.16 0.13 0.16 0.16 0.10 0.14 0.11 0.07 0.10 0.08 0.12 0.11 0.12 0.16 0.16 0.15 0.10 0.07 0.05 0.05 0.06 0.06 0.04 0.03 0.03 0.04 0.04 0.03 0.03 0.02 0.03 0.05 0.04 0.04 0.03 0.02 0.04 0.06 0.06 0.06 0.06 0.08 0.09 0.09 0.09 0.08 0.09 0.07 0.07 0.06
0.02 0.01 0.01 0.02 0.06 0.10 0.10 0.07 0.06 0.06 0.08 0.09 0.14 0.13 0.13 0.10 0.11 0.15 0.15 0.11 0.14 0.07 0.05 0.04 0.04 0.04 0.05 0.02 0.01 0.02 0.01 0.01 0.01 0.02 0.03 0.04 0.02 0.02 0.02 0.03 0.05 0.05 0.06 0.07 0.08 0.09 0.08 0.07 0.07 0.07 0.06 0.06 0.05 0.04

GFSWCAN_prec_precacc_102.txt.gz
Total_Precipitation_Accumulation
0.86 0.69 0.75 0.66 0.59 0.53 0.52 0.72 0.66 0.70 0.70 0.82 0.79 0.86 0.83 0.84 1.20 2.11 1.91 1.21 1.52 1.73 0.75 0.45 0.36 0.34 0.18 0.24 0.39 0.39 0.62 0.76 0.68 0.49 0.22 0.15 0.14 0.11 0.15 0.19 0.21 0.21 0.31 0.31 0.38 0.43 0.18 0.05 0.11 0.19 0.23 0.10 0.04 0.07
1.10 0.92 0.71 0.60 0.61 0.51 0.55 0.61 0.61 0.62 0.68 0.80 0.69 0.67 0.73 0.84 1.20 2.04 2.32 1.34 1.41 1.81 1.09 0.58 0.34 0.32 0.21 0.18 0.35 0.49 0.63 0.47 0.41 0.51 0.25 0.23 0.20 0.16 0.10 0.27 0.21 0.45 0.25 0.22 0.15 0.18 0.21 0.18 0.25 0.22 0.15 0.17 0.16 0.14
1.28 0.90 0.61 0.54 0.52 0.54 0.49 0.55 0.54 0.59 0.70 0.80 0.75 0.67 0.76 0.92 1.25 2.11 2.16 1.33 2.67 2.90 1.32 0.64 0.52 0.28 0.23 0.16 0.30 0.60 0.30 0.37 0.62 0.67 0.62 0.44 0.35 0.18 0.16 0.10 0.24 0.51 0.65 0.74 0.77 0.60 0.31 0.36 0.31 0.14 0.18 0.26 0.23 0.15
1.11 0.97 0.65 0.44 0.44 0.50 0.48 0.53 0.57 0.63 0.66 0.82 0.79 0.86 1.02 1.09 1.37 2.14 2.05 1.61 2.51 2.32 1.73 0.78 0.33 0.26 0.21 0.18 0.16 0.25 0.29 0.30 0.45 0.62 0.63 0.60 0.33 0.19 0.29 0.21 0.25 0.37 0.54 0.65 1.08 0.75 0.54 0.44 0.92 0.47 0.22 0.15 0.11 0.05
1.23 0.93 0.60 0.40 0.40 0.44 0.47 0.59 0.62 0.70 0.85 0.85 0.85 1.05 1.36 1.35 1.53 2.01 1.92 1.76 1.61 1.66 1.65 0.94 0.29 0.24 0.33 0.32 0.27 0.27 0.34 0.42 0.66 1.02 0.75 0.30 0.21 0.27 0.27 0.49 0.35 0.16 0.39 0.78 0.99 1.17 1.00 0.88 0.78 0.69 0.49 0.31 0.16 0.07
1.19 0.84 0.62 0.42 0.38 0.38 0.39 0.46 0.49 0.62 0.78 0.85 0.91 1.28 1.29 1.31 2.06 3.13 4.60 2.96 1.54 1.37 1.89 1.25 0.67 0.19 0.33 0.40 0.60 0.40 0.45 0.71 0.94 1.13 0.89 0.40 0.30 0.55 0.42 0.58 0.49 0.54 0.35 0.35 0.61 0.75 1.04 0.94 0.57 0.30 0.22 0.15 0.06 0.04
1.04 0.78 0.62 0.49 0.34 0.31 0.32 0.36 0.42 0.56 0.74 0.90 1.09 1.03 1.22 1.44 2.20 2.20 2.17 1.55 1.02 1.43 2.13 1.32 0.86 0.53 0.46 0.71 0.67 0.74 0.70 1.16 1.14 1.31 1.02 0.54 0.38 0.72 0.73 0.49 0.30 0.24 0.15 0.10 0.13 0.23 0.22 0.15 0.12 0.03 0.02 0.02 0.02 0.01
0.98 0.74 0.58 0.44 0.47 0.39 0.37 0.43 0.52 0.63 0.78 1.05 1.33 1.32 1.59 2.07 2.54 1.58 0.83 0.65 0.84 1.67 1.43 1.38 0.83 1.02 0.58 1.08 0.86 0.75 0.94 1.23 1.27 1.05 0.72 0.48 0.59 1.00 0.98 0.26 0.06 0.02 0.02 0.03 0.05 0.06 0.05 0.04 0.02 0.02 0.02 0.02 0.02 0.02
0.49 0.46 0.47 0.46 0.48 0.54 0.62 0.70 0.73 0.92 1.23 1.38 1.75 2.49 3.60 3.48 2.65 1.75 1.03 1.11 1.20 1.47 1.27 0.77 0.70 1.34 0.88 1.20 1.36 0.91 0.80 1.04 0.91 0.95 0.68 0.68 0.75 1.21 0.73 0.26 0.09 0.03 0.02 0.03 0.02 0.04 0.08 0.10 0.11 0.11 0.10 0.11 0.16 0.28
0.42 0.44 0.44 0.43 0.44 0.51 0.57 0.75 1.01 1.35 1.48 1.88 3.05 3.60 3.79 2.47 1.80 2.00 2.83 2.78 2.34 1.19 0.66 0.54 0.54 1.00 1.29 1.19 1.31 1.57 1.16 0.78 0.71 0.60 0.74 1.11 0.92 0.43 0.12 0.07 0.13 0.16 0.16 0.11 0.07 0.09 0.11 0.14 0.15 0.20 0.27 0.36 0.45 0.44
0.43 0.43 0.50 0.56 0.64 0.71 0.95 1.13 0.98 1.03 2.18 3.22 3.48 2.97 2.78 2.36 1.89 2.34 2.33 1.90 1.41 0.77 0.22 0.29 0.30 0.47 0.90 1.48 1.11 0.96 1.37 1.27 0.72 0.55 0.72 1.01 0.77 0.49 0.16 0.07 0.06 0.08 0.11 0.13 0.15 0.15 0.16 0.20 0.30 0.42 0.43 0.34 0.27 0.29
0.44 0.37 0.32 0.39 0.49 0.63 0.74 0.77 0.90 1.52 2.24 2.20 2.22 2.49 2.61 2.62 2.22 1.69 1.61 0.96 0.57 0.39 0.21 0.25 0.31 0.44 0.87 1.78 1.49 0.99 1.13 1.24 1.19 0.98 0.99 0.78 0.49 0.28 0.27 0.26 0.23 0.20 0.16 0.15 0.17 0.24 0.32 0.40 0.41 0.29 0.24 0.27 0.32 0.37
0.52 0.47 0.41 0.39 0.40 0.45 0.62 1.00 1.30 1.60 1.92 2.20 2.33 2.41 2.26 2.29 1.96 1.49 0.97 0.52 0.48 0.52 0.41 0.30 0.41 0.66 0.70 1.64 1.75 1.26 1.15 1.29 1.14 1.20 1.06 0.73 0.48 0.34 0.33 0.28 0.27 0.26 0.28 0.33 0.40 0.37 0.28 0.27 0.29 0.32 0.42 0.57 0.58 0.64
0.70 0.55 0.48 0.44 0.48 0.65 0.98 1.21 1.66 2.21 2.18 2.34 2.39 2.13 1.82 1.46 1.01 0.85 0.52 0.38 0.46 0.55 0.50 0.36 0.34 0.42 0.65 1.30 2.23 1.72 1.42 0.81 0.97 0.87 0.61 0.65 0.76 0.80 0.63 0.55 0.52 0.59 0.61 0.60 0.64 0.61 0.64 0.66 0.74 0.79 0.78 0.83 0.66 0.74
0.71 0.42 0.34 0.46 0.56 0.71 0.86 1.04 1.50 1.77 1.69 1.34 1.02 1.06 0.90 0.95 0.78 0.69 0.52 0.51 0.62 0.92 0.88 0.87 0.89 0.76 0.82 1.31 1.36 1.06 0.77 0.64 0.54 0.70 0.83 0.91 0.86 0.76 0.60 0.54 0.53 0.58 0.62 0.66 0.71 0.64 0.71 0.73 0.62 0.75 0.81 0.73 0.55 0.57
0.56 0.54 0.53 0.52 0.60 0.61 0.73 1.01 1.32 1.24 0.91 0.52 0.72 0.94 0.81 0.78 0.80 0.75 0.71 0.75 0.85 1.09 1.05 0.99 0.85 0.78 0.94 0.83 0.71 0.76 0.59 0.66 0.78 0.67 0.75 0.75 0.75 0.79 0.85 0.82 0.82 0.83 0.75 0.68 0.65 0.59 0.57 0.54 0.47 0.51 0.52 0.46 0.47 0.38
0.43 0.53 0.46 0.40 0.46 0.59 0.65 0.79 0.83 0.68 0.65 0.53 0.86 1.02 0.90 0.79 0.90 1.01 0.95 0.90 0.84 0.77 0.69 0.44 0.41 0.56 0.58 0.47 0.60 0.64 0.91 0.93 0.85 0.86 0.84 0.84 0.87 0.87 0.85 0.84 0.86 0.75 0.61 0.55 0.53 0.49 0.47 0.44 0.32 0.22 0.29 0.40 0.28 0.24
0.45 0.29 0.24 0.29 0.43 0.59 0.71 0.51 0.39 0.33 0.53 0.80 0.81 1.09 0.80 0.90 0.88 0.86 0.86 0.70 0.53 0.46 0.41 0.40 0.30 0.35 0.58 0.57 0.65 0.71 0.77 0.87 0.93 0.95 1.01 1.08 1.01 0.90 0.80 0.71 0.70 0.57 0.48 0.49 0.42 0.41 0.37 0.29 0.23 0.28 0.22 0.18 0.10 0.09
0.64 0.55 0.42 0.38 0.36 0.34 0.47 0.32 0.10 0.27 0.65 0.74 0.78 0.66 0.56 0.64 0.58 0.57 0.41 0.25 0.16 0.14 0.18 0.25 0.32 0.49 0.70 0.78 0.81 0.77 0.75 0.71 0.77 0.81 0.78 0.83 0.79 0.72 0.66 0.57 0.51 0.49 0.43 0.40 0.32 0.30 0.28 0.24 0.22 0.19 0.16 0.11 0.12 0.13
0.85 0.74 0.59 0.47 0.22 0.15 0.07 0.11 0.01 0.12 0.36 0.41 0.33 0.17 0.14 0.21 0.12 0.05 0.05 0.02 0.03 0.06 0.16 0.33 0.68 0.82 0.78 0.82 0.75 0.74 0.72 0.62 0.47 0.38 0.48 0.59 0.60 0.51 0.57 0.49 0.45 0.40 0.31 0.30 0.27 0.22 0.17 0.15 0.16 0.15 0.14 0.15 0.15 0.16
0.59 0.61 0.53 0.41 0.29 0.07 0.03 0.03 0.05 0.06 0.10 0.16 0.09 0.02 0.06 0.04 0.04 0.04 0.03 0.02 0.06 0.15 0.41 0.61 0.63 0.67 0.47 0.47 0.44 0.43 0.43 0.39 0.40 0.31 0.33 0.41 0.49 0.36 0.37 0.38 0.35 0.33 0.29 0.29 0.25 0.27 0.23 0.24 0.22 0.17 0.16 0.12 0.12 0.10
0.30 0.35 0.40 0.37 0.36 0.15 0.04 0.00 0.02 0.02 0.02 0.07 0.07 0.04 0.07 0.09 0.07 0.04 0.02 0.07 0.29 0.54 0.54 0.40 0.34 0.26 0.19 0.22 0.24 0.21 0.30 0.26 0.31 0.36 0.37 0.29 0.30 0.29 0.33 0.40 0.30 0.32 0.31 0.32 0.27 0.24 0.20 0.16 0.14 0.13 0.09 0.08 0.06 0.06
0.22 0.40 0.41 0.34 0.33 0.17 0.17 0.06 0.05 0.02 0.03 0.05 0.04 0.04 0.04 0.04 0.04 0.02 0.07 0.18 0.45 0.48 0.34 0.19 0.16 0.14 0.14 0.19 0.11 0.09 0.07 0.07 0.12 0.23 0.32 0.31 0.31 0.32 0.31 0.30 0.28 0.25 0.22 0.21 0.18 0.15 0.14 0.11 0.07 0.04 0.04 0.06 0.07 0.05
0.31 0.53 0.54 0.38 0.19 0.19 0.12 0.09 0.04 0.03 0.03 0.03 0.04 0.05 0.05 0.04 0.02 0.03 0.10 0.21 0.38 0.24 0.14 0.16 0.15 0.15 0.13 0.13 0.14 0.18 0.21 0.15 0.17 0.20 0.23 0.19 0.17 0.21 0.16 0.14 0.12 0.12 0.11 0.09 0.06 0.04 0.04 0.03 0.03 0.05 0.06 0.06 0.05 0.07
0.57 0.47 0.41 0.30 0.14 0.08 0.05 0.05 0.05 0.04 0.04 0.02 0.04 0.06 0.05 0.02 0.05 0.06 0.09 0.29 0.26 0.22 0.19 0.17 0.16 0.15 0.17 0.19 0.18 0.17 0.14 0.12 0.10 0.10 0.13 0.11 0.10 0.09 0.06 0.05 0.04 0.05 0.04 0.06 0.06 0.05 0.04 0.05 0.05 0.04 0.04 0.06 0.08 0.09
0.44 0.26 0.19 0.13 0.07 0.08 0.05 0.03 0.03 0.04 0.05 0.09 0.12 0.09 0.05 0.08 0.08 0.15 0.22 0.31 0.26 0.26 0.28 0.28 0.23 0.16 0.14 0.13 0.12 0.11 0.08 0.08 0.05 0.04 0.06 0.02 0.04 0.06 0.05 0.03 0.03 0.05 0.05 0.06 0.08 0.08 0.05 0.04 0.04 0.05 0.07 0.07 0.09 0.12
0.19 0.12 0.06 0.04 0.08 0.13 0.19 0.16 0.15 0.16 0.16 0.16 0.13 0.09 0.13 0.17 0.16 0.28 0.37 0.31 0.26 0.27 0.21 0.19 0.13 0.11 0.12 0.11 0.08 0.06 0.02 0.01 0.01 0.02 0.01 0.02 0.03 0.04 0.06 0.10 0.13 0.12 0.05 0.05 0.08 0.10 0.13 0.11 0.09 0.08 0.09 0.10 0.12 0.17
0.06 0.08 0.10 0.11 0.18 0.20 0.19 0.16 0.19 0.22 0.25 0.21 0.16 0.15 0.16 0.15 0.28 0.40 0.37 0.39 0.25 0.14 0.08 0.06 0.03 0.03 0.03 0.05 0.06 0.06 0.03 0.01 0.01 0.01 0.02 0.07 0.07 0.05 0.04 0.06 0.06 0.04 0.05 0.07 0.09 0.09 0.11 0.13 0.13 0.13 0.13 0.15 0.18 0.21
0.09 0.10 0.10 0.10 0.06 0.04 0.09 0.14 0.15 0.16 0.16 0.12 0.09 0.12 0.15 0.23 0.38 0.36 0.34 0.26 0.16 0.11 0.08 0.07 0.11 0.07 0.05 0.02 0.02 0.02 0.01 0.01 0.01 0.00 0.01 0.04 0.09 0.07 0.04 0.04 0.06 0.05 0.06 0.06 0.06 0.07 0.12 0.15 0.13 0.17 0.20 0.22 0.20 0.17
0.01 0.01 0.01 0.00 0.04 0.10 0.19 0.14 0.15 0.12 0.06 0.04 0.06 0.11 0.16 0.40 0.59 0.38 0.26 0.21 0.17 0.14 0.13 0.10 0.10 0.06 0.06 0.04 0.03 0.04 0.06 0.02 0.02 0.03 0.05 0.05 0.06 0.06 0.06 0.06 0.05 0.05 0.06 0.07 0.05 0.04 0.07 0.07 0.08 0.15 0.11 0.11 0.14 0.13
0.01 0.01 0.01 0.02 0.10 0.18 0.16 0.08 0.08 0.09 0.08 0.06 0.06 0.07 0.21 0.34 0.37 0.31 0.24 0.25 0.11 0.07 0.07 0.05 0.04 0.04 0.03 0.03 0.04 0.04 0.05 0.04 0.03 0.03 0.03 0.04 0.04 0.05 0.05 0.04 0.05 0.06 0.06 0.06 0.06 0.07 0.07 0.07 0.10 0.11 0.07 0.06 0.08 0.08
0.01 0.03 0.02 0.06 0.17 0.14 0.18 0.18 0.11 0.15 0.13 0.08 0.11 0.09 0.13 0.12 0.14 0.18 0.18 0.19 0.13 0.09 0.06 0.05 0.07 0.07 0.04 0.04 0.03 0.04 0.04 0.03 0.03 0.02 0.03 0.05 0.04 0.04 0.03 0.02 0.04 0.06 0.06 0.06 0.06 0.08 0.09 0.09 0.09 0.08 0.09 0.07 0.07 0.06
0.02 0.02 0.01 0.02 0.07 0.10 0.11 0.07 0.06 0.07 0.09 0.10 0.15 0.15 0.15 0.11 0.12 0.17 0.17 0.14 0.20 0.10 0.06 0.05 0.04 0.05 0.05 0.02 0.01 0.02 0.01 0.01 0.01 0.02 0.03 0.04 0.02 0.02 0.02 0.03 0.05 0.05 0.06 0.07 0.08 0.09 0.08 0.07 0.07 0.07 0.06 0.06 0.05 0.04

GFSWCAN_prec_precacc_105.txt.gz
Total_Precipitation_Accumulation
0.94 0.74 0.77 0.67 0.59 0.54 0.53 0.72 0.67 0.71 0.71 0.82 0.79 0.86 0.83 0.84 1.20 2.11 1.93 1.22 1.52 1.74 0.75 0.45 0.36 0.34 0.18 0.24 0.39 0.39 0.63 0.76 0.68 0.50 0.23 0.15 0.14 0.11 0.16 0.20 0.21 0.21 0.31 0.31 0.38 0.44 0.19 0.05 0.11 0.20 0.26 0.13 0.06 0.09
1.21 0.99 0.75 0.61 0.62 0.51 0.55 0.61 0.61 0.62 0.69 0.80 0.69 0.67 0.73 0.84 1.20 2.04 2.33 1.34 1.41 1.81 1.09 0.58 0.34 0.32 0.21 0.18 0.35 0.49 0.64 0.48 0.42 0.51 0.26 0.23 0.20 0.17 0.11 0.31 0.21 0.46 0.25 0.22 0.16 0.20 0.23 0.18 0.25 0.24 0.15 0.18 0.18 0.15
1.35 0.95 0.65 0.55 0.53 0.54 0.49 0.55 0.54 0.59 0.70 0.81 0.75 0.67 0.76 0.92 1.25 2.11 2.18 1.34 2.67 2.90 1.32 0.64 0.52 0.28 0.23 0.16 0.30 0.60 0.33 0.38 0.63 0.67 0.62 0.45 0.35 0.19 0.18 0.12 0.26 0.52 0.65 0.74 0.78 0.62 0.32 0.36 0.32 0.14 0.19 0.27 0.23 0.15
1.15 1.00 0.67 0.45 0.45 0.51 0.49 0.53 0.57 0.63 0.66 0.83 0.79 0.86 1.03 1.09 1.37 2.14 2.05 1.61 2.51 2.32 1.73 0.79 0.34 0.26 0.21 0.18 0.16 0.25 0.29 0.31 0.45 0.62 0.64 0.61 0.33 0.20 0.30 0.23 0.26 0.37 0.54 0.66 1.09 0.76 0.54 0.45 0.92 0.48 0.22 0.15 0.11 0.05
1.25 0.96 0.62 0.40 0.40 0.45 0.48 0.59 0.62 0.70 0.85 0.86 0.85 1.05 1.36 1.35 1.53 2.01 1.92 1.77 1.61 1.68 1.66 0.94 0.30 0.24 0.33 0.32 0.27 0.27 0.34 0.42 0.66 1.03 0.77 0.31 0.21 0.27 0.27 0.51 0.36 0.16 0.39 0.79 1.01 1.18 1.01 0.89 0.78 0.69 0.49 0.31 0.16 0.07
1.20 0.85 0.63 0.43 0.39 0.39 0.39 0.47 0.49 0.62 0.78 0.86 0.92 1.29 1.29 1.31 2.06 3.13 4.60 2.97 1.54 1.39 1.91 1.25 0.68 0.19 0.33 0.40 0.60 0.40 0.45 0.71 0.95 1.14 0.89 0.40 0.31 0.56 0.43 0.61 0.51 0.54 0.35 0.35 0.61 0.75 1.04 0.94 0.57 0.30 0.22 0.15 0.06 0.04
1.06 0.79 0.63 0.51 0.36 0.31 0.32 0.37 0.43 0.56 0.74 0.91 1.09 1.05 1.23 1.44 2.21 2.21 2.18 1.57 1.03 1.45 2.14 1.33 0.87 0.56 0.46 0.71 0.67 0.74 0.70 1.16 1.14 1.31 1.02 0.55 0.39 0.74 0.75 0.51 0.31 0.24 0.15 0.10 0.13 0.23 0.23 0.16 0.12 0.03 0.02 0.02 0.02 0.01
0.99 0.75 0.60 0.45 0.49 0.39 0.38 0.44 0.52 0.63 0.78 1.06 1.35 1.32 1.59 2.07 2.55 1.58 0.84 0.69 0.86 1.67 1.43 1.38 0.84 1.05 0.58 1.08 0.86 0.75 0.94 1.23 1.27 1.05 0.72 0.48 0.60 1.03 1.03 0.27 0.06 0.02 0.02 0.03 0.05 0.06 0.05 0.04 0.02 0.02 0.02 0.02 0.02 0.02
0.50 0.48 0.48 0.47 0.49 0.55 0.63 0.70 0.73 0.92 1.23 1.40 1.78 2.49 3.60 3.48 2.66 1.76 1.04 1.12 1.23 1.52 1.29 0.78 0.70 1.36 0.90 1.22 1.38 0.92 0.81 1.04 0.91 0.95 0.68 0.68 0.76 1.23 0.76 0.26 0.09 0.03 0.02 0.03 0.02 0.04 0.08 0.10 0.11 0.11 0.10 0.11 0.16 0.28
0.43 0.45 0.46 0.45 0.44 0.51 0.58 0.76 1.01 1.35 1.50 1.91 3.07 3.60 3.79 2.47 1.81 2.02 2.85 2.78 2.36 1.20 0.67 0.55 0.54 1.01 1.31 1.20 1.32 1.57 1.16 0.78 0.74 0.62 0.74 1.12 0.93 0.43 0.12 0.07 0.13 0.16 0.16 0.11 0.07 0.09 0.11 0.14 0.15 0.20 0.27 0.36 0.45 0.44
0.44 0.44 0.52 0.57 0.64 0.72 0.95 1.14 0.99 1.05 2.21 3.24 3.49 2.97 2.81 2.37 1.91 2.39 2.37 1.91 1.41 0.77 0.23 0.29 0.30 0.47 0.92 1.50 1.13 0.97 1.39 1.30 0.74 0.59 0.73 1.02 0.78 0.49 0.16 0.07 0.06 0.08 0.11 0.13 0.15 0.15 0.16 0.20 0.30 0.42 0.43 0.34 0.27 0.29
0.45 0.38 0.33 0.41 0.50 0.63 0.75 0.78 0.91 1.54 2.26 2.21 2.22 2.58 2.74 2.69 2.28 1.76 1.64 0.97 0.57 0.39 0.21 0.25 0.31 0.45 0.95 1.82 1.60 1.03 1.15 1.25 1.21 1.01 0.99 0.78 0.50 0.28 0.27 0.26 0.23 0.20 0.16 0.15 0.17 0.24 0.32 0.40 0.41 0.29 0.24 0.27 0.32 0.37
0.54 0.48 0.43 0.40 0.41 0.46 0.62 1.01 1.31 1.62 1.96 2.20 2.37 2.57 2.35 2.33 2.03 1.52 0.98 0.52 0.48 0.52 0.42 0.30 0.41 0.67 0.72 1.64 1.76 1.26 1.15 1.29 1.16 1.21 1.07 0.74 0.49 0.34 0.33 0.28 0.27 0.26 0.28 0.33 0.40 0.37 0.28 0.27 0.29 0.32 0.42 0.57 0.58 0.64
0.73 0.58 0.51 0.45 0.49 0.65 0.98 1.21 1.67 2.24 2.21 2.36 2.44 2.23 1.87 1.50 1.02 0.85 0.52 0.38 0.47 0.55 0.50 0.36 0.34 0.43 0.65 1.30 2.23 1.72 1.43 0.81 0.97 0.88 0.63 0.66 0.76 0.80 0.63 0.55 0.52 0.59 0.61 0.60 0.64 0.61 0.64 0.66 0.74 0.79 0.78 0.83 0.66 0.74
0.75 0.45 0.38 0.47 0.57 0.71 0.86 1.05 1.52 1.79 1.72 1.38 1.07 1.14 0.91 0.96 0.78 0.70 0.54 0.51 0.63 0.93 0.88 0.88 0.89 0.76 0.82 1.31 1.36 1.07 0.77 0.64 0.54 0.72 0.84 0.92 0.86 0.76 0.60 0.54 0.53 0.58 0.62 0.66 0.71 0.64 0.71 0.73 0.62 0.75 0.81 0.73 0.55 0.57
0.61 0.59 0.55 0.52 0.60 0.62 0.75 1.04 1.33 1.24 0.93 0.56 0.79 1.10 0.85 0.78 0.80 0.75 0.72 0.76 0.85 1.09 1.05 1.00 0.85 0.78 0.94 0.83 0.71 0.76 0.60 0.69 0.81 0.67 0.75 0.75 0.75 0.79 0.85 0.82 0.82 0.83 0.75 0.68 0.65 0.59 0.57 0.54 0.47 0.51 0.52 0.46 0.47 0.38
0.45 0.53 0.47 0.42 0.48 0.62 0.66 0.80 0.83 0.69 0.68 0.57 0.92 1.10 0.95 0.79 0.90 1.02 0.95 0.90 0.84 0.77 0.70 0.46 0.41 0.57 0.58 0.48 0.60 0.65 0.92 0.93 0.86 0.86 0.85 0.84 0.87 0.87 0.85 0.84 0.86 0.75 0.61 0.55 0.53 0.49 0.47 0.44 0.32 0.22 0.29 0.40 0.28 0.24
0.46 0.31 0.25 0.31 0.45 0.62 0.74 0.54 0.40 0.35 0.57 0.82 0.86 1.12 0.81 0.90 0.88 0.86 0.86 0.70 0.53 0.47 0.42 0.41 0.30 0.35 0.58 0.58 0.66 0.71 0.77 0.88 0.93 0.95 1.01 1.08 1.01 0.90 0.80 0.71 0.70 0.57 0.48 0.49 0.42 0.41 0.37 0.29 0.24 0.30 0.23 0.18 0.10 0.09
0.68 0.57 0.43 0.39 0.36 0.36 0.48 0.32 0.13 0.31 0.66 0.76 0.80 0.67 0.57 0.65 0.58 0.57 0.41 0.25 0.16 0.14 0.18 0.25 0.32 0.49 0.70 0.78 0.81 0.77 0.75 0.71 0.77 0.81 0.79 0.83 0.79 0.72 0.66 0.57 0.51 0.49 0.43 0.40 0.32 0.31 0.29 0.24 0.23 0.19 0.16 0.11 0.12 0.13
0.89 0.75 0.59 0.48 0.24 0.20 0.11 0.12 0.03 0.14 0.37 0.43 0.33 0.17 0.14 0.21 0.12 0.05 0.05 0.02 0.03 0.06 0.16 0.33 0.69 0.82 0.78 0.82 0.75 0.74 0.72 0.62 0.47 0.38 0.48 0.59 0.60 0.51 0.57 0.49 0.45 0.40 0.31 0.30 0.27 0.22 0.17 0.15 0.16 0.15 0.14 0.15 0.15 0.16
0.63 0.64 0.55 0.44 0.35 0.16 0.05 0.03 0.06 0.06 0.10 0.16 0.09 0.02 0.06 0.04 0.04 0.04 0.03 0.02 0.06 0.15 0.41 0.61 0.63 0.67 0.47 0.47 0.44 0.43 0.43 0.39 0.40 0.31 0.33 0.41 0.49 0.36 0.37 0.39 0.35 0.33 0.29 0.29 0.25 0.27 0.23 0.25 0.22 0.17 0.16 0.12 0.12 0.10
0.32 0.39 0.45 0.41 0.41 0.18 0.04 0.00 0.02 0.02 0.02 0.07 0.07 0.04 0.07 0.09 0.07 0.05 0.02 0.07 0.30 0.54 0.54 0.40 0.34 0.26 0.19 0.22 0.24 0.21 0.30 0.26 0.31 0.36 0.37 0.29 0.30 0.29 0.33 0.40 0.30 0.32 0.31 0.32 0.27 0.24 0.20 0.16 0.14 0.13 0.09 0.08 0.06 0.06
0.24 0.42 0.42 0.37 0.38 0.19 0.18 0.06 0.05 0.02 0.03 0.05 0.04 0.04 0.05 0.05 0.04 0.02 0.07 0.18 0.46 0.48 0.34 0.19 0.16 0.14 0.14 0.19 0.11 0.09 0.07 0.07 0.12 0.23 0.32 0.31 0.31 0.32 0.31 0.30 0.28 0.25 0.22 0.21 0.18 0.15 0.14 0.11 0.07 0.04 0.04 0.06 0.07 0.05
0.31 0.54 0.55 0.40 0.24 0.21 0.13 0.10 0.04 0.03 0.03 0.04 0.04 0.05 0.05 0.05 0.02 0.03 0.10 0.21 0.38 0.24 0.14 0.16 0.15 0.15 0.13 0.13 0.14 0.18 0.21 0.15 0.17 0.20 0.23 0.19 0.17 0.21 0.16 0.14 0.12 0.12 0.11 0.09 0.06 0.04 0.04 0.03 0.03 0.05 0.06 0.06 0.05 0.07
0.59 0.48 0.42 0.31 0.16 0.09 0.06 0.06 0.06 0.04 0.04 0.03 0.04 0.06 0.05 0.02 0.05 0.06 0.09 0.29 0.26 0.22 0.19 0.17 0.16 0.15 0.17 0.19 0.18 0.17 0.14 0.12 0.10 0.10 0.13 0.11 0.10 0.09 0.06 0.05 0.04 0.05 0.04 0.06 0.06 0.05 0.04 0.05 0.05 0.04 0.04 0.06 0.08 0.09
0.53 0.29 0.22 0.15 0.07 0.08 0.05 0.04 0.03 0.04 0.05 0.09 0.12 0.09 0.05 0.08 0.08 0.15 0.23 0.31 0.26 0.26 0.28 0.28 0.23 0.16 0.14 0.13 0.12 0.11 0.08 0.08 0.05 0.04 0.06 0.02 0.04 0.06 0.05 0.03 0.04 0.06 0.05 0.06 0.08 0.08 0.05 0.04 0.04 0.05 0.07 0.07 0.09 0.12
0.26 0.15 0.07 0.04 0.09 0.14 0.19 0.16 0.15 0.17 0.16 0.17 0.13 0.09 0.13 0.17 0.16 0.29 0.38 0.32 0.26 0.27 0.21 0.19 0.13 0.11 0.12 0.11 0.08 0.06 0.02 0.01 0.01 0.02 0.01 0.02 0.03 0.04 0.06 0.10 0.13 0.12 0.05 0.05 0.08 0.10 0.13 0.11 0.09 0.08 0.09 0.10 0.12 0.17
0.08 0.10 0.14 0.15 0.20 0.21 0.19 0.16 0.19 0.22 0.25 0.21 0.16 0.16 0.17 0.16 0.29 0.41 0.38 0.42 0.27 0.15 0.09 0.07 0.04 0.03 0.03 0.05 0.06 0.06 0.03 0.01 0.01 0.01 0.02 0.07 0.07 0.05 0.04 0.06 0.06 0.04 0.05 0.07 0.09 0.09 0.11 0.13 0.13 0.13 0.13 0.15 0.18 0.21
0.10 0.12 0.12 0.11 0.07 0.04 0.10 0.14 0.15 0.16 0.16 0.12 0.11 0.12 0.15 0.24 0.39 0.37 0.36 0.29 0.17 0.11 0.08 0.07 0.12 0.07 0.05 0.02 0.02 0.02 0.01 0.01 0.01 0.00 0.01 0.04 0.09 0.07 0.04 0.04 0.06 0.05 0.06 0.06 0.06 0.07 0.12 0.15 0.13 0.17 0.20 0.22 0.21 0.18
0.02 0.01 0.02 0.00 0.04 0.10 0.19 0.14 0.16 0.12 0.06 0.04 0.06 0.11 0.16 0.40 0.60 0.40 0.29 0.22 0.17 0.14 0.13 0.10 0.10 0.06 0.06 0.05 0.04 0.05 0.07 0.02 0.02 0.03 0.05 0.05 0.06 0.06 0.06 0.06 0.05 0.05 0.06 0.07 0.05 0.04 0.07 0.07 0.08 0.15 0.11 0.11 0.14 0.13
0.01 0.01 0.01 0.02 0.10 0.19 0.16 0.09 0.09 0.09 0.09 0.07 0.06 0.07 0.21 0.34 0.37 0.31 0.27 0.30 0.13 0.08 0.07 0.06 0.05 0.05 0.03 0.03 0.04 0.04 0.05 0.04 0.03 0.03 0.03 0.04 0.04 0.05 0.05 0.04 0.05 0.06 0.06 0.06 0.06 0.07 0.07 0.07 0.10 0.11 0.07 0.06 0.08 0.08
0.01 0.03 0.02 0.06 0.18 0.15 0.18 0.19 0.12 0.15 0.13 0.08 0.11 0.09 0.14 0.12 0.15 0.19 0.19 0.21 0.15 0.11 0.07 0.06 0.07 0.09 0.05 0.04 0.03 0.04 0.04 0.03 0.03 0.02 0.03 0.05 0.04 0.04 0.03 0.02 0.04 0.06 0.06 0.06 0.06 0.08 0.09 0.09 0.09 0.08 0.09 0.07 0.07 0.06
0.02 0.02 0.01 0.02 0.07 0.11 0.11 0.08 0.07 0.08 0.09 0.11 0.16 0.16 0.17 0.12 0.12 0.17 0.18 0.17 0.24 0.11 0.08 0.06 0.05 0.05 0.05 0.02 0.01 0.02 0.01 0.01 0.01 0.02 0.03 0.04 0.02 0.02 0.02 0.03 0.05 0.05 0.06 0.07 0.08 0.09 0.08 0.07 0.07 0.07 0.06 0.06 0.05 0.04

GFSWCAN_prec_precacc_111.txt.gz
Total_Precipitation_Accumulation
1.01 0.81 0.81 0.69 0.60 0.55 0.54 0.74 0.68 0.71 0.71 0.82 0.79 0.86 0.83 0.84 1.20 2.12 1.93 1.22 1.52 1.74 0.75 0.45 0.36 0.34 0.18 0.24 0.39 0.39 0.63 0.76 0.68 0.50 0.23 0.15 0.14 0.11 0.25 0.25 0.21 0.21 0.31 0.31 0.38 0.44 0.20 0.06 0.12 0.22 0.30 0.16 0.09 0.11
1.33 1.07 0.78 0.62 0.62 0.52 0.57 0.63 0.62 0.63 0.69 0.81 0.69 0.67 0.73 0.84 1.20 2.04 2.33 1.34 1.41 1.81 1.09 0.58 0.34 0.32 0.21 0.18 0.35 0.49 0.64 0.48 0.42 0.51 0.26 0.23 0.20 0.17 0.13 0.36 0.22 0.46 0.25 0.22 0.16 0.22 0.27 0.21 0.29 0.27 0.17 0.20 0.21 0.16
1.48 1.02 0.67 0.56 0.55 0.56 0.51 0.56 0.55 0.60 0.71 0.81 0.75 0.67 0.76 0.92 1.25 2.11 2.18 1.34 2.67 2.90 1.32 0.64 0.52 0.28 0.23 0.16 0.30 0.60 0.33 0.38 0.63 0.67 0.62 0.45 0.35 0.19 0.21 0.22 0.29 0.53 0.66 0.74 0.79 0.64 0.34 0.38 0.34 0.16 0.19 0.27 0.23 0.15
1.29 1.07 0.70 0.47 0.47 0.52 0.49 0.54 0.57 0.63 0.67 0.83 0.80 0.86 1.03 1.09 1.37 2.14 2.05 1.61 2.51 2.32 1.73 0.79 0.34 0.26 0.21 0.18 0.16 0.25 0.29 0.31 0.45 0.62 0.64 0.61 0.33 0.20 0.31 0.26 0.26 0.37 0.54 0.66 1.10 0.78 0.55 0.46 0.93 0.48 0.22 0.15 0.11 0.05
1.38 1.04 0.66 0.42 0.42 0.46 0.49 0.60 0.62 0.70 0.86 0.87 0.85 1.06 1.36 1.35 1.53 2.01 1.92 1.77 1.61 1.68 1.66 0.94 0.30 0.24 0.33 0.32 0.27 0.27 0.34 0.42 0.66 1.03 0.77 0.31 0.21 0.27 0.29 0.54 0.37 0.16 0.40 0.79 1.01 1.18 1.01 0.90 0.79 0.69 0.49 0.31 0.16 0.07
1.29 0.94 0.68 0.46 0.40 0.40 0.40 0.47 0.49 0.63 0.78 0.87 0.92 1.29 1.30 1.31 2.06 3.13 4.60 2.97 1.55 1.39 1.91 1.25 0.68 0.19 0.33 0.40 0.60 0.40 0.45 0.71 0.95 1.14 0.89 0.40 0.31 0.56 0.44 0.62 0.52 0.54 0.35 0.35 0.61 0.75 1.05 0.94 0.57 0.30 0.22 0.15 0.06 0.04
1.13 0.86 0.70 0.55 0.39 0.33 0.33 0.37 0.43 0.56 0.74 0.92 1.10 1.06 1.23 1.44 2.21 2.22 2.19 1.58 1.03 1.46 2.14 1.33 0.87 0.56 0.46 0.71 0.67 0.74 0.70 1.16 1.14 1.31 1.02 0.55 0.39 0.74 0.76 0.52 0.32 0.24 0.15 0.10 0.13 0.23 0.24 0.16 0.12 0.03 0.02 0.02 0.02 0.01
1.04 0.81 0.65 0.49 0.52 0.41 0.38 0.45 0.52 0.63 0.79 1.07 1.36 1.32 1.59 2.07 2.55 1.58 0.84 0.73 0.87 1.67 1.43 1.38 0.84 1.05 0.58 1.08 0.86 0.75 0.94 1.23 1.27 1.05 0.72 0.48 0.60 1.05 1.06 0.27 0.06 0.02 0.02 0.03 0.05 0.06 0.05 0.04 0.02 0.02 0.02 0.02 0.02 0.02
0.54 0.52 0.52 0.51 0.51 0.56 0.64 0.71 0.74 0.92 1.24 1.42 1.78 2.49 3.60 3.48 2.66 1.76 1.06 1.14 1.23 1.52 1.29 0.78 0.70 1.36 0.91 1.22 1.38 0.92 0.81 1.04 0.91 0.95 0.68 0.69 0.78 1.25 0.81 0.26 0.09 0.03 0.02 0.03 0.02 0.04 0.08 0.10 0.11 0.11 0.10 0.11 0.16 0.28
0.46 0.48 0.48 0.47 0.45 0.52 0.58 0.76 1.01 1.35 1.52 1.93 3.07 3.60 3.79 2.47 1.81 2.03 2.85 2.79 2.36 1.20 0.67 0.55 0.54 1.01 1.31 1.20 1.32 1.57 1.16 0.78 0.75 0.62 0.74 1.12 0.94 0.47 0.14 0.07 0.13 0.16 0.16 0.11 0.07 0.09 0.11 0.14 0.15 0.20 0.27 0.36 0.45 0.44
0.46 0.47 0.54 0.59 0.65 0.72 0.96 1.14 1.00 1.07 2.23 3.25 3.49 2.98 2.82 2.38 1.92 2.39 2.38 1.91 1.41 0.78 0.23 0.29 0.30 0.47 0.93 1.50 1.13 0.97 1.39 1.30 0.75 0.63 0.74 1.04 0.79 0.50 0.17 0.07 0.06 0.08 0.11 0.13 0.15 0.15 0.16 0.20 0.30 0.42 0.43 0.34 0.27 0.29
0.47 0.42 0.36 0.42 0.50 0.64 0.75 0.78 0.92 1.55 2.26 2.21 2.23 2.65 2.79 2.70 2.30 1.79 1.66 0.97 0.58 0.39 0.21 0.25 0.31 0.45 0.95 1.83 1.65 1.04 1.15 1.25 1.22 1.03 0.99 0.79 0.52 0.28 0.27 0.26 0.23 0.20 0.16 0.15 0.17 0.24 0.32 0.40 0.41 0.29 0.24 0.27 0.32 0.37
0.57 0.52 0.46 0.42 0.42 0.46 0.62 1.01 1.31 1.64 1.97 2.20 2.40 2.68 2.38 2.36 2.08 1.54 0.99 0.52 0.48 0.52 0.42 0.30 0.41 0.67 0.72 1.64 1.79 1.26 1.15 1.29 1.17 1.21 1.08 0.75 0.49 0.34 0.33 0.28 0.27 0.26 0.28 0.33 0.40 0.37 0.28 0.27 0.29 0.32 0.42 0.57 0.58 0.64
0.77 0.62 0.54 0.47 0.50 0.65 0.99 1.23 1.72 2.26 2.22 2.36 2.46 2.29 1.88 1.52 1.02 0.85 0.52 0.38 0.47 0.55 0.50 0.36 0.34 0.43 0.65 1.30 2.23 1.72 1.43 0.81 0.97 0.88 0.63 0.66 0.76 0.80 0.63 0.55 0.52 0.59 0.61 0.60 0.64 0.61 0.64 0.66 0.74 0.79 0.78 0.83 0.66 0.74
0.80 0.50 0.43 0.51 0.58 0.72 0.88 1.10 1.53 1.79 1.72 1.40 1.09 1.17 0.92 0.96 0.78 0.70 0.55 0.51 0.63 0.93 0.88 0.88 0.89 0.76 0.82 1.31 1.36 1.07 0.78 0.64 0.54 0.73 0.84 0.92 0.86 0.76 0.60 0.54 0.53 0.58 0.62 0.66 0.71 0.64 0.71 0.73 0.62 0.75 0.81 0.73 0.55 0.57
0.67 0.67 0.58 0.58 0.63 0.65 0.78 1.05 1.33 1.24 0.93 0.57 0.80 1.14 0.90 0.79 0.80 0.75 0.74 0.76 0.85 1.09 1.05 1.00 0.85 0.78 0.94 0.83 0.71 0.76 0.60 0.70 0.83 0.67 0.76 0.75 0.75 0.79 0.85 0.82 0.82 0.84 0.75 0.68 0.65 0.59 0.57 0.54 0.47 0.51 0.52 0.46 0.47 0.38
0.50 0.56 0.52 0.50 0.52 0.62 0.66 0.80 0.83 0.69 0.68 0.57 0.93 1.14 1.04 0.83 0.91 1.02 0.95 0.91 0.84 0.77 0.70 0.46 0.41 0.57 0.58 0.48 0.60 0.65 0.92 0.93 0.86 0.86 0.85 0.84 0.87 0.87 0.85 0.84 0.86 0.75 0.61 0.55 0.53 0.49 0.47 0.44 0.32 0.22 0.29 0.40 0.28 0.24
0.47 0.33 0.29 0.35 0.46 0.63 0.76 0.54 0.40 0.35 0.57 0.82 0.87 1.17 0.88 0.94 0.89 0.87 0.86 0.70 0.53 0.47 0.42 0.41 0.30 0.35 0.58 0.58 0.66 0.71 0.77 0.89 0.93 0.96 1.01 1.08 1.01 0.90 0.80 0.71 0.70 0.57 0.48 0.49 0.42 0.41 0.37 0.29 0.24 0.30 0.23 0.18 0.10 0.09
0.69 0.58 0.45 0.39 0.36 0.36 0.50 0.32 0.14 0.34 0.67 0.76 0.80 0.69 0.59 0.66 0.59 0.58 0.41 0.25 0.16 0.14 0.19 0.25 0.32 0.49 0.70 0.78 0.81 0.77 0.75 0.71 0.78 0.82 0.79 0.83 0.79 0.72 0.66 0.57 0.51 0.49 0.43 0.40 0.32 0.31 0.29 0.24 0.23 0.19 0.16 0.11 0.12 0.13
0.90 0.76 0.59 0.48 0.25 0.22 0.12 0.12 0.03 0.15 0.38 0.44 0.35 0.19 0.15 0.21 0.12 0.05 0.05 0.02 0.03 0.06 0.16 0.33 0.69 0.82 0.78 0.82 0.75 0.74 0.72 0.62 0.47 0.39 0.49 0.59 0.60 0.51 0.57 0.49 0.45 0.40 0.31 0.30 0.27 0.22 0.17 0.15 0.16 0.15 0.14 0.15 0.15 0.16
0.68 0.71 0.61 0.45 0.37 0.19 0.10 0.03 0.06 0.07 0.11 0.19 0.13 0.04 0.07 0.04 0.04 0.04 0.03 0.02 0.06 0.15 0.41 0.61 0.63 0.67 0.47 0.47 0.44 0.43 0.43 0.39 0.40 0.31 0.33 0.41 0.49 0.36 0.37 0.39 0.35 0.33 0.29 0.29 0.25 0.27 0.23 0.25 0.22 0.17 0.16 0.12 0.12 0.10
0.36 0.44 0.49 0.45 0.54 0.28 0.15 0.00 0.02 0.02 0.04 0.11 0.11 0.06 0.07 0.09 0.07 0.05 0.02 0.07 0.30 0.54 0.54 0.40 0.34 0.26 0.19 0.22 0.24 0.21 0.30 0.26 0.31 0.36 0.37 0.29 0.30 0.29 0.33 0.40 0.30 0.32 0.31 0.32 0.27 0.24 0.21 0.16 0.14 0.13 0.09 0.08 0.06 0.06
0.24 0.43 0.43 0.40 0.48 0.26 0.25 0.06 0.05 0.03 0.04 0.09 0.08 0.07 0.06 0.05 0.04 0.02 0.07 0.18 0.46 0.48 0.34 0.19 0.16 0.14 0.14 0.19 0.11 0.09 0.07 0.07 0.12 0.23 0.32 0.31 0.31 0.32 0.31 0.30 0.28 0.25 0.22 0.21 0.18 0.15 0.14 0.11 0.07 0.04 0.04 0.06 0.07 0.05
0.31 0.54 0.55 0.40 0.28 0.25 0.18 0.11 0.05 0.04 0.03 0.05 0.05 0.07 0.06 0.05 0.02 0.03 0.10 0.21 0.38 0.24 0.14 0.16 0.15 0.15 0.13 0.13 0.14 0.18 0.21 0.15 0.17 0.20 0.23 0.19 0.17 0.21 0.16 0.14 0.12 0.12 0.11 0.09 0.06 0.04 0.04 0.03 0.03 0.05 0.06 0.06 0.05 0.07
0.59 0.48 0.42 0.33 0.24 0.11 0.08 0.08 0.07 0.04 0.04 0.03 0.04 0.06 0.05 0.02 0.05 0.06 0.09 0.29 0.26 0.22 0.19 0.17 0.16 0.15 0.17 0.19 0.18 0.17 0.14 0.12 0.10 0.10 0.13 0.11 0.10 0.09 0.06 0.05 0.04 0.05 0.04 0.06 0.06 0.05 0.04 0.05 0.05 0.04 0.04 0.06 0.08 0.09
0.53 0.29 0.22 0.15 0.09 0.09 0.06 0.04 0.03 0.04 0.05 0.09 0.12 0.09 0.05 0.08 0.08 0.15 0.23 0.31 0.26 0.26 0.28 0.28 0.23 0.16 0.14 0.13 0.12 0.11 0.08 0.08 0.05 0.04 0.06 0.02 0.04 0.06 0.05 0.03 0.04 0.06 0.05 0.06 0.08 0.08 0.05 0.04 0.04 0.05 0.07 0.07 0.09 0.12
0.27 0.16 0.07 0.05 0.09 0.14 0.19 0.16 0.15 0.17 0.16 0.17 0.14 0.09 0.13 0.18 0.16 0.29 0.39 0.33 0.27 0.27 0.21 0.19 0.13 0.11 0.12 0.11 0.08 0.06 0.02 0.01 0.01 0.02 0.01 0.02 0.03 0.04 0.06 0.10 0.13 0.12 0.05 0.05 0.08 0.10 0.13 0.11 0.09 0.08 0.09 0.10 0.12 0.17
0.13 0.13 0.16 0.16 0.22 0.23 0.20 0.17 0.19 0.22 0.25 0.21 0.16 0.16 0.17 0.16 0.29 0.42 0.39 0.46 0.28 0.16 0.10 0.07 0.04 0.03 0.03 0.05 0.06 0.06 0.03 0.01 0.01 0.01 0.02 0.07 0.07 0.05 0.04 0.06 0.06 0.04 0.05 0.07 0.09 0.09 0.11 0.13 0.13 0.13 0.13 0.15 0.18 0.22
0.16 0.22 0.23 0.21 0.15 0.10 0.12 0.15 0.16 0.16 0.16 0.12 0.12 0.13 0.16 0.24 0.40 0.39 0.39 0.32 0.18 0.11 0.08 0.09 0.15 0.08 0.05 0.03 0.02 0.02 0.01 0.01 0.01 0.00 0.01 0.04 0.09 0.07 0.04 0.04 0.06 0.05 0.06 0.06 0.06 0.07 0.12 0.15 0.13 0.17 0.20 0.22 0.21 0.18
0.04 0.09 0.12 0.09 0.10 0.13 0.21 0.15 0.16 0.12 0.06 0.04 0.06 0.11 0.16 0.40 0.61 0.42 0.32 0.24 0.19 0.15 0.14 0.12 0.12 0.07 0.07 0.05 0.05 0.06 0.07 0.02 0.02 0.03 0.05 0.05 0.06 0.06 0.06 0.06 0.05 0.05 0.06 0.07 0.05 0.04 0.07 0.07 0.08 0.15 0.11 0.11 0.14 0.13
0.03 0.05 0.06 0.08 0.16 0.22 0.18 0.10 0.10 0.10 0.10 0.08 0.06 0.07 0.21 0.35 0.38 0.33 0.28 0.33 0.14 0.09 0.08 0.09 0.09 0.07 0.04 0.04 0.05 0.04 0.06 0.04 0.03 0.03 0.03 0.04 0.04 0.05 0.05 0.04 0.05 0.06 0.06 0.06 0.06 0.07 0.07 0.07 0.10 0.11 0.07 0.06 0.08 0.08
0.06 0.08 0.07 0.11 0.22 0.19 0.22 0.22 0.13 0.16 0.14 0.09 0.11 0.09 0.14 0.13 0.15 0.20 0.22 0.25 0.17 0.12 0.09 0.07 0.08 0.11 0.07 0.05 0.04 0.04 0.04 0.03 0.03 0.02 0.03 0.05 0.04 0.04 0.03 0.02 0.04 0.06 0.06 0.06 0.06 0.08 0.09 0.09 0.09 0.08 0.09 0.07 0.07 0.06
0.04 0.04 0.04 0.04 0.10 0.13 0.13 0.10 0.08 0.09 0.10 0.11 0.16 0.17 0.18 0.12 0.13 0.19 0.20 0.20 0.25 0.12 0.08 0.06 0.07 0.07 0.06 0.02 0.01 0.02 0.01 0.01 0.01 0.02 0.03 0.04 0.02 0.02 0.02 0.03 0.05 0.05 0.06 0.07 0.08 0.09 0.08 0.07 0.07 0.07 0.06 0.06 0.05 0.04

GFSWCAN_prec_precacc_114.txt.gz
Total_Precipitation_Accumulation
1.05 0.85 0.84 0.71 0.62 0.56 0.55 0.75 0.69 0.71 0.71 0.82 0.79 0.86 0.83 0.84 1.20 2.12 1.93 1.22 1.52 1.74 0.75 0.45 0.36 0.34 0.18 0.24 0.39 0.39 0.63 0.76 0.68 0.50 0.23 0.15 0.14 0.11 0.27 0.26 0.22 0.21 0.33 0.32 0.43 0.45 0.21 0.06 0.13 0.23 0.31 0.17 0.09 0.11
1.38 1.12 0.81 0.64 0.63 0.54 0.58 0.63 0.62 0.63 0.70 0.81 0.69 0.67 0.73 0.84 1.20 2.04 2.33 1.34 1.41 1.81 1.09 0.58 0.34 0.32 0.21 0.18 0.35 0.49 0.64 0.48 0.42 0.51 0.26 0.23 0.20 0.17 0.15 0.41 0.23 0.47 0.26 0.23 0.18 0.23 0.29 0.22 0.30 0.28 0.17 0.21 0.22 0.16
1.55 1.07 0.71 0.58 0.57 0.58 0.51 0.56 0.55 0.60 0.71 0.81 0.75 0.67 0.76 0.92 1.25 2.11 2.18 1.34 2.67 2.90 1.32 0.64 0.52 0.28 0.23 0.16 0.30 0.60 0.33 0.38 0.63 0.67 0.62 0.45 0.35 0.19 0.22 0.24 0.30 0.54 0.66 0.75 0.79 0.66 0.35 0.39 0.34 0.16 0.19 0.27 0.24 0.15
1.31 1.09 0.72 0.49 0.50 0.53 0.49 0.54 0.58 0.64 0.67 0.83 0.80 0.86 1.03 1.09 1.37 2.14 2.05 1.61 2.51 2.32 1.73 0.79 0.34 0.26 0.21 0.18 0.16 0.25 0.29 0.31 0.45 0.62 0.64 0.61 0.33 0.20 0.31 0.28 0.26 0.38 0.54 0.67 1.10 0.79 0.57 0.47 0.94 0.48 0.22 0.15 0.11 0.05
1.39 1.05 0.69 0.48 0.45 0.47 0.49 0.60 0.62 0.70 0.86 0.87 0.85 1.06 1.36 1.35 1.53 2.01 1.92 1.77 1.61 1.68 1.66 0.94 0.30 0.24 0.33 0.32 0.27 0.27 0.34 0.42 0.66 1.03 0.77 0.31 0.21 0.27 0.29 0.54 0.38 0.16 0.40 0.80 1.02 1.18 1.02 0.90 0.79 0.69 0.49 0.31 0.16 0.07
1.30 0.97 0.75 0.49 0.42 0.41 0.40 0.47 0.49 0.63 0.79 0.87 0.92 1.29 1.30 1.31 2.06 3.13 4.60 2.97 1.55 1.39 1.91 1.25 0.68 0.19 0.33 0.40 0.60 0.40 0.45 0.71 0.95 1.14 0.89 0.40 0.31 0.56 0.44 0.62 0.52 0.54 0.35 0.35 0.61 0.76 1.05 0.94 0.57 0.30 0.22 0.15 0.06 0.04
1.14 0.88 0.72 0.56 0.40 0.34 0.34 0.37 0.43 0.57 0.75 0.92 1.10 1.06 1.23 1.44 2.21 2.22 2.19 1.58 1.03 1.46 2.14 1.33 0.87 0.56 0.46 0.71 0.67 0.74 0.70 1.16 1.14 1.31 1.02 0.55 0.39 0.75 0.77 0.52 0.32 0.24 0.15 0.10 0.13 0.23 0.24 0.16 0.12 0.03 0.02 0.02 0.02 0.01
1.05 0.81 0.66 0.50 0.52 0.41 0.39 0.45 0.53 0.64 0.80 1.08 1.36 1.32 1.59 2.07 2.55 1.58 0.84 0.73 0.87 1.67 1.43 1.38 0.84 1.05 0.58 1.08 0.86 0.75 0.94 1.23 1.27 1.05 0.72 0.48 0.60 1.05 1.06 0.28 0.06 0.02 0.02 0.03 0.05 0.06 0.05 0.04 0.02 0.02 0.02 0.02 0.02 0.02
0.56 0.54 0.53 0.51 0.51 0.56 0.64 0.71 0.74 0.93 1.25 1.42 1.78 2.49 3.60 3.48 2.66 1.76 1.06 1.14 1.23 1.52 1.29 0.78 0.70 1.36 0.91 1.22 1.38 0.92 0.81 1.04 0.91 0.95 0.68 0.69 0.78 1.26 0.81 0.27 0.09 0.03 0.02 0.03 0.02 0.04 0.08 0.10 0.11 0.11 0.10 0.11 0.16 0.28
0.49 0.50 0.50 0.48 0.46 0.52 0.58 0.76 1.02 1.37 1.53 1.93 3.07 3.60 3.79 2.47 1.81 2.03 2.85 2.79 2.36 1.20 0.67 0.55 0.54 1.01 1.31 1.20 1.32 1.57 1.16 0.78 0.75 0.62 0.74 1.12 0.94 0.47 0.14 0.07 0.13 0.16 0.16 0.11 0.07 0.09 0.11 0.14 0.15 0.20 0.27 0.36 0.45 0.44
0.50 0.50 0.56 0.60 0.65 0.72 0.96 1.14 1.01 1.07 2.23 3.25 3.49 2.98 2.82 2.39 1.92 2.39 2.38 1.91 1.41 0.78 0.23 0.29 0.30 0.47 0.93 1.50 1.13 0.97 1.39 1.30 0.75 0.64 0.74 1.04 0.80 0.50 0.17 0.07 0.06 0.08 0.11 0.13 0.15 0.15 0.16 0.20 0.30 0.42 0.43 0.34 0.27 0.29
0.51 0.45 0.37 0.43 0.50 0.64 0.75 0.79 0.93 1.55 2.26 2.21 2.23 2.65 2.79 2.70 2.30 1.79 1.66 0.98 0.58 0.39 0.21 0.25 0.31 0.45 0.95 1.83 1.65 1.04 1.16 1.25 1.22 1.04 0.99 0.79 0.52 0.28 0.27 0.26 0.23 0.20 0.16 0.15 0.17 0.24 0.32 0.40 0.41 0.29 0.24 0.27 0.32 0.37
0.60 0.54 0.47 0.42 0.42 0.46 0.62 1.01 1.31 1.64 1.97 2.20 2.40 2.69 2.38 2.36 2.08 1.54 0.99 0.52 0.48 0.52 0.42 0.30 0.41 0.67 0.72 1.64 1.79 1.26 1.15 1.29 1.18 1.23 1.08 0.75 0.49 0.34 0.33 0.28 0.27 0.26 0.28 0.33 0.40 0.37 0.28 0.27 0.29 0.32 0.42 0.57 0.58 0.64
0.79 0.63 0.56 0.48 0.50 0.66 0.99 1.23 1.72 2.26 2.22 2.36 2.46 2.30 1.89 1.52 1.02 0.85 0.52 0.38 0.47 0.55 0.50 0.36 0.34 0.43 0.65 1.30 2.23 1.72 1.43 0.82 0.97 0.88 0.63 0.66 0.76 0.80 0.63 0.55 0.52 0.59 0.61 0.60 0.64 0.61 0.64 0.66 0.74 0.79 0.78 0.83 0.66 0.74
0.83 0.52 0.46 0.52 0.58 0.72 0.88 1.10 1.53 1.79 1.72 1.40 1.09 1.18 0.93 0.97 0.78 0.70 0.55 0.51 0.63 0.93 0.88 0.88 0.89 0.76 0.82 1.31 1.36 1.07 0.78 0.64 0.54 0.73 0.84 0.92 0.86 0.76 0.60 0.54 0.53 0.58 0.62 0.66 0.71 0.64 0.71 0.73 0.62 0.75 0.81 0.73 0.55 0.57
0.71 0.70 0.59 0.60 0.64 0.65 0.78 1.05 1.33 1.24 0.93 0.57 0.80 1.15 0.92 0.80 0.81 0.75 0.74 0.76 0.85 1.09 1.05 1.00 0.85 0.78 0.94 0.83 0.71 0.76 0.60 0.70 0.83 0.67 0.76 0.75 0.75 0.79 0.85 0.82 0.82 0.84 0.75 0.68 0.65 0.59 0.57 0.54 0.47 0.51 0.52 0.46 0.47 0.38
0.50 0.56 0.56 0.52 0.53 0.63 0.66 0.80 0.83 0.69 0.68 0.57 0.93 1.15 1.05 0.84 0.91 1.03 0.96 0.91 0.84 0.77 0.70 0.46 0.41 0.57 0.58 0.48 0.60 0.65 0.92 0.93 0.86 0.87 0.85 0.84 0.87 0.87 0.85 0.84 0.86 0.75 0.61 0.55 0.53 0.49 0.47 0.44 0.32 0.22 0.29 0.40 0.28 0.24
0.47 0.34 0.30 0.36 0.46 0.63 0.76 0.54 0.40 0.35 0.57 0.82 0.88 1.18 0.90 0.96 0.90 0.88 0.88 0.72 0.54 0.47 0.42 0.41 0.30 0.35 0.58 0.58 0.66 0.71 0.77 0.89 0.94 0.96 1.01 1.08 1.01 0.90 0.80 0.71 0.70 0.57 0.48 0.49 0.42 0.41 0.37 0.29 0.24 0.30 0.23 0.18 0.10 0.09
0.69 0.58 0.45 0.39 0.36 0.36 0.50 0.32 0.14 0.34 0.67 0.76 0.80 0.69 0.60 0.68 0.59 0.59 0.41 0.28 0.16 0.14 0.19 0.25 0.32 0.49 0.70 0.78 0.81 0.77 0.75 0.71 0.78 0.82 0.79 0.83 0.79 0.72 0.66 0.57 0.51 0.49 0.43 0.40 0.32 0.31 0.29 0.24 0.23 0.19 0.16 0.11 0.12 0.13
0.90 0.76 0.59 0.48 0.25 0.22 0.12 0.12 0.03 0.15 0.38 0.44 0.35 0.19 0.15 0.21 0.12 0.06 0.05 0.02 0.03 0.06 0.16 0.33 0.69 0.82 0.78 0.82 0.75 0.74 0.72 0.62 0.47 0.39 0.49 0.59 0.60 0.51 0.57 0.49 0.45 0.40 0.31 0.30 0.27 0.22 0.17 0.15 0.16 0.15 0.14 0.15 0.15 0.16
0.72 0.74 0.61 0.45 0.37 0.19 0.10 0.03 0.06 0.07 0.11 0.19 0.13 0.04 0.07 0.04 0.04 0.04 0.03 0.02 0.06 0.16 0.41 0.61 0.63 0.67 0.47 0.47 0.44 0.43 0.43 0.39 0.40 0.31 0.34 0.42 0.49 0.36 0.37 0.39 0.35 0.33 0.29 0.29 0.25 0.27 0.23 0.25 0.22 0.17 0.16 0.12 0.12 0.10
0.45 0.47 0.50 0.45 0.54 0.28 0.15 0.00 0.02 0.02 0.04 0.12 0.11 0.06 0.07 0.09 0.07 0.05 0.02 0.07 0.30 0.54 0.54 0.40 0.34 0.26 0.19 0.22 0.24 0.21 0.30 0.26 0.31 0.36 0.37 0.29 0.30 0.29 0.33 0.40 0.30 0.32 0.31 0.32 0.27 0.24 0.21 0.16 0.14 0.13 0.09 0.08 0.06 0.06
0.25 0.43 0.43 0.40 0.48 0.27 0.31 0.07 0.06 0.04 0.05 0.11 0.08 0.07 0.06 0.05 0.04 0.02 0.07 0.18 0.46 0.48 0.34 0.19 0.16 0.14 0.14 0.19 0.11 0.09 0.07 0.07 0.12 0.23 0.32 0.31 0.31 0.32 0.31 0.30 0.28 0.25 0.22 0.21 0.18 0.15 0.14 0.11 0.07 0.04 0.04 0.06 0.07 0.05
0.31 0.54 0.55 0.40 0.28 0.28 0.27 0.13 0.06 0.06 0.06 0.07 0.06 0.08 0.07 0.05 0.02 0.03 0.10 0.21 0.38 0.24 0.14 0.16 0.15 0.15 0.13 0.13 0.14 0.18 0.21 0.15 0.17 0.20 0.23 0.19 0.17 0.21 0.16 0.14 0.12 0.12 0.11 0.09 0.06 0.04 0.04 0.03 0.03 0.05 0.06 0.06 0.05 0.07
0.59 0.48 0.42 0.33 0.25 0.13 0.10 0.09 0.08 0.06 0.05 0.03 0.05 0.07 0.05 0.02 0.05 0.06 0.09 0.29 0.26 0.22 0.19 0.17 0.16 0.15 0.17 0.19 0.18 0.17 0.14 0.12 0.10 0.10 0.13 0.11 0.10 0.09 0.06 0.05 0.04 0.05 0.04 0.06 0.06 0.05 0.04 0.05 0.05 0.04 0.04 0.06 0.08 0.09
0.53 0.29 0.22 0.15 0.09 0.10 0.06 0.05 0.04 0.04 0.05 0.09 0.12 0.09 0.05 0.08 0.08 0.15 0.23 0.31 0.26 0.26 0.28 0.28 0.23 0.16 0.14 0.13 0.12 0.11 0.08 0.08 0.05 0.04 0.06 0.02 0.04 0.06 0.05 0.03 0.04 0.06 0.05 0.06 0.08 0.08 0.05 0.04 0.04 0.05 0.07 0.07 0.09 0.12
0.27 0.16 0.07 0.05 0.09 0.15 0.20 0.16 0.15 0.17 0.16 0.17 0.14 0.09 0.13 0.18 0.16 0.29 0.40 0.34 0.27 0.27 0.21 0.19 0.13 0.11 0.12 0.11 0.08 0.06 0.02 0.01 0.01 0.02 0.01 0.02 0.03 0.04 0.06 0.10 0.13 0.12 0.05 0.05 0.08 0.10 0.13 0.11 0.09 0.08 0.09 0.10 0.12 0.17
0.13 0.13 0.16 0.16 0.23 0.23 0.20 0.17 0.19 0.22 0.25 0.21 0.16 0.16 0.17 0.16 0.29 0.42 0.39 0.46 0.29 0.16 0.10 0.07 0.04 0.03 0.03 0.05 0.06 0.06 0.03 0.01 0.01 0.01 0.02 0.07 0.07 0.05 0.04 0.06 0.06 0.04 0.05 0.07 0.09 0.09 0.11 0.13 0.13 0.13 0.13 0.15 0.18 0.22
0.16 0.22 0.24 0.22 0.17 0.10 0.13 0.16 0.16 0.16 0.16 0.12 0.12 0.13 0.16 0.24 0.40 0.39 0.39 0.32 0.18 0.12 0.09 0.09 0.15 0.08 0.05 0.03 0.03 0.03 0.01 0.01 0.01 0.00 0.01 0.04 0.09 0.07 0.04 0.04 0.06 0.05 0.06 0.06 0.06 0.07 0.12 0.15 0.13 0.17 0.20 0.22 0.21 0.18
0.04 0.09 0.13 0.10 0.12 0.15 0.21 0.15 0.16 0.12 0.06 0.04 0.06 0.11 0.17 0.41 0.61 0.43 0.32 0.24 0.19 0.15 0.14 0.12 0.13 0.08 0.07 0.06 0.06 0.07 0.08 0.02 0.02 0.03 0.05 0.05 0.06 0.06 0.06 0.06 0.05 0.05 0.06 0.07 0.05 0.04 0.07 0.07 0.08 0.15 0.11 0.11 0.14 0.13
0.03 0.05 0.06 0.08 0.16 0.23 0.19 0.12 0.11 0.10 0.10 0.08 0.06 0.08 0.22 0.35 0.39 0.33 0.29 0.33 0.14 0.09 0.09 0.09 0.10 0.08 0.05 0.05 0.06 0.05 0.07 0.04 0.03 0.03 0.03 0.04 0.04 0.05 0.05 0.04 0.05 0.06 0.06 0.06 0.06 0.07 0.07 0.07 0.10 0.11 0.07 0.06 0.08 0.08
0.07 0.09 0.07 0.13 0.24 0.21 0.24 0.24 0.15 0.17 0.14 0.09 0.12 0.09 0.15 0.13 0.15 0.20 0.22 0.26 0.17 0.12 0.10 0.07 0.09 0.12 0.09 0.08 0.06 0.05 0.04 0.04 0.03 0.02 0.03 0.05 0.04 0.04 0.03 0.02 0.04 0.06 0.06 0.06 0.06 0.08 0.09 0.09 0.09 0.08 0.09 0.07 0.07 0.06
0.04 0.04 0.05 0.06 0.11 0.15 0.16 0.13 0.10 0.10 0.10 0.12 0.16 0.17 0.18 0.12 0.13 0.19 0.21 0.20 0.26 0.12 0.08 0.07 0.07 0.09 0.07 0.03 0.01 0.02 0.01 0.01 0.01 0.02 0.03 0.04 0.02 0.02 0.02 0.03 0.05 0.05 0.06 0.07 0.08 0.09 0.08 0.07 0.07 0.07 0.06 0.06 0.05 0.04

GFSWCAN_prec_precacc_117.txt.gz
Total_Precipitation_Accumulation
1.10 0.90 0.89 0.81 0.74 0.67 0.67 0.86 0.77 0.77 0.75 0.84 0.81 0.87 0.83 0.84 1.20 2.12 1.93 1.22 1.52 1.74 0.75 0.45 0.36 0.34 0.18 0.24 0.39 0.39 0.63 0.76 0.68 0.50 0.23 0.15 0.14 0.11 0.28 0.27 0.22 0.21 0.34 0.36 0.48 0.51 0.23 0.08 0.14 0.24 0.32 0.18 0.09 0.11
1.44 1.16 0.86 0.74 0.74 0.61 0.62 0.64 0.63 0.64 0.71 0.81 0.69 0.67 0.73 0.84 1.20 2.04 2.33 1.34 1.41 1.81 1.09 0.58 0.34 0.32 0.21 0.18 0.35 0.49 0.64 0.48 0.42 0.51 0.26 0.23 0.20 0.17 0.16 0.47 0.23 0.47 0.26 0.26 0.22 0.26 0.32 0.25 0.31 0.29 0.17 0.21 0.22 0.16
1.60 1.11 0.76 0.64 0.62 0.61 0.53 0.57 0.56 0.60 0.71 0.81 0.75 0.67 0.76 0.92 1.25 2.11 2.18 1.34 2.67 2.90 1.32 0.64 0.52 0.28 0.23 0.16 0.30 0.60 0.33 0.38 0.63 0.67 0.62 0.45 0.35 0.19 0.23 0.25 0.31 0.56 0.66 0.75 0.81 0.68 0.36 0.40 0.35 0.17 0.20 0.27 0.24 0.15
1.37 1.12 0.78 0.56 0.54 0.56 0.51 0.55 0.58 0.64 0.67 0.83 0.80 0.86 1.03 1.09 1.37 2.14 2.05 1.61 2.51 2.32 1.73 0.79 0.34 0.26 0.21 0.18 0.16 0.25 0.29 0.31 0.45 0.62 0.64 0.61 0.33 0.20 0.31 0.28 0.26 0.39 0.56 0.68 1.12 0.81 0.57 0.47 0.94 0.49 0.22 0.15 0.11 0.05
1.42 1.09 0.76 0.54 0.47 0.47 0.49 0.60 0.62 0.70 0.86 0.87 0.85 1.06 1.36 1.35 1.53 2.01 1.92 1.77 1.61 1.68 1.66 0.94 0.30 0.24 0.33 0.32 0.27 0.27 0.34 0.42 0.66 1.03 0.77 0.31 0.21 0.27 0.29 0.54 0.38 0.16 0.41 0.81 1.02 1.18 1.02 0.91 0.80 0.69 0.49 0.31 0.16 0.07
1.33 1.05 0.81 0.52 0.43 0.41 0.41 0.48 0.50 0.63 0.79 0.87 0.92 1.29 1.30 1.31 2.06 3.13 4.60 2.97 1.55 1.39 1.91 1.25 0.68 0.19 0.33 0.40 0.60 0.40 0.45 0.71 0.95 1.14 0.89 0.40 0.31 0.56 0.44 0.62 0.53 0.55 0.35 0.35 0.61 0.76 1.05 0.94 0.57 0.30 0.22 0.15 0.06 0.04
1.22 0.99 0.76 0.57 0.40 0.34 0.34 0.38 0.44 0.57 0.75 0.92 1.10 1.06 1.23 1.44 2.21 2.22 2.19 1.58 1.03 1.46 2.14 1.33 0.87 0.56 0.46 0.71 0.67 0.74 0.70 1.16 1.14 1.31 1.02 0.55 0.39 0.75 0.77 0.52 0.33 0.24 0.16 0.10 0.13 0.23 0.24 0.16 0.12 0.03 0.02 0.02 0.02 0.01
1.13 0.84 0.68 0.51 0.53 0.42 0.39 0.46 0.54 0.64 0.80 1.08 1.36 1.32 1.59 2.07 2.55 1.58 0.84 0.73 0.87 1.67 1.43 1.38 0.85 1.06 0.58 1.08 0.86 0.75 0.94 1.23 1.27 1.05 0.72 0.48 0.60 1.05 1.06 0.29 0.06 0.02 0.02 0.03 0.05 0.06 0.05 0.04 0.02 0.02 0.02 0.02 0.02 0.02
0.57 0.54 0.54 0.52 0.52 0.57 0.65 0.72 0.75 0.93 1.25 1.42 1.78 2.49 3.60 3.48 2.66 1.76 1.06 1.14 1.23 1.52 1.29 0.78 0.70 1.37 0.91 1.22 1.38 0.92 0.81 1.04 0.91 0.95 0.68 0.69 0.78 1.26 0.82 0.27 0.09 0.03 0.02 0.03 0.02 0.04 0.08 0.10 0.11 0.11 0.10 0.11 0.16 0.28
0.50 0.51 0.50 0.48 0.46 0.52 0.59 0.77 1.03 1.37 1.53 1.93 3.07 3.60 3.79 2.47 1.81 2.03 2.85 2.79 2.36 1.20 0.67 0.55 0.54 1.01 1.31 1.20 1.32 1.57 1.16 0.78 0.75 0.62 0.74 1.12 0.94 0.47 0.14 0.07 0.13 0.16 0.16 0.11 0.07 0.09 0.11 0.14 0.15 0.20 0.27 0.36 0.45 0.44
0.50 0.50 0.56 0.60 0.65 0.72 0.97 1.15 1.01 1.07 2.23 3.25 3.49 2.98 2.82 2.39 1.92 2.39 2.38 1.91 1.41 0.78 0.23 0.29 0.30 0.47 0.93 1.50 1.13 0.97 1.39 1.30 0.75 0.65 0.74 1.04 0.80 0.50 0.17 0.07 0.06 0.08 0.11 0.13 0.15 0.15 0.16 0.20 0.30 0.42 0.43 0.34 0.27 0.29
0.53 0.46 0.38 0.43 0.51 0.64 0.76 0.79 0.93 1.55 2.26 2.21 2.23 2.65 2.79 2.70 2.30 1.79 1.66 0.98 0.58 0.39 0.21 0.25 0.31 0.45 0.95 1.83 1.65 1.04 1.16 1.25 1.22 1.05 0.99 0.79 0.52 0.28 0.27 0.26 0.23 0.20 0.16 0.15 0.17 0.24 0.32 0.40 0.41 0.29 0.24 0.27 0.32 0.37
0.63 0.55 0.48 0.42 0.42 0.47 0.62 1.01 1.31 1.64 1.97 2.20 2.40 2.69 2.38 2.36 2.08 1.54 0.99 0.52 0.48 0.52 0.42 0.30 0.41 0.67 0.72 1.64 1.79 1.26 1.15 1.29 1.18 1.23 1.08 0.75 0.49 0.34 0.33 0.28 0.27 0.26 0.28 0.33 0.40 0.37 0.28 0.27 0.29 0.32 0.42 0.57 0.58 0.64
0.82 0.64 0.57 0.49 0.51 0.67 0.99 1.23 1.72 2.26 2.22 2.36 2.46 2.30 1.89 1.52 1.02 0.85 0.52 0.38 0.47 0.55 0.50 0.36 0.34 0.43 0.65 1.30 2.23 1.72 1.43 0.82 0.98 0.88 0.63 0.66 0.76 0.80 0.63 0.55 0.52 0.59 0.61 0.60 0.64 0.61 0.64 0.66 0.74 0.79 0.78 0.83 0.66 0.74
0.85 0.54 0.47 0.53 0.59 0.73 0.88 1.10 1.53 1.79 1.72 1.40 1.09 1.18 0.93 0.97 0.78 0.70 0.55 0.51 0.63 0.93 0.88 0.88 0.89 0.76 0.82 1.31 1.36 1.07 0.78 0.65 0.54 0.73 0.84 0.92 0.86 0.76 0.60 0.54 0.53 0.58 0.62 0.66 0.71 0.64 0.71 0.73 0.62 0.75 0.81 0.73 0.55 0.57
0.75 0.74 0.61 0.62 0.64 0.65 0.78 1.05 1.33 1.24 0.93 0.57 0.80 1.15 0.92 0.80 0.81 0.75 0.74 0.76 0.85 1.09 1.05 1.00 0.85 0.78 0.94 0.83 0.71 0.76 0.60 0.70 0.83 0.67 0.76 0.75 0.75 0.79 0.85 0.82 0.82 0.84 0.75 0.68 0.65 0.59 0.57 0.54 0.47 0.51 0.52 0.46 0.47 0.38
0.51 0.59 0.58 0.53 0.53 0.63 0.66 0.80 0.83 0.69 0.68 0.57 0.94 1.16 1.05 0.84 0.92 1.03 0.97 0.91 0.84 0.77 0.70 0.46 0.41 0.57 0.58 0.48 0.60 0.65 0.92 0.93 0.86 0.87 0.85 0.84 0.87 0.87 0.85 0.84 0.86 0.75 0.61 0.55 0.53 0.49 0.47 0.44 0.32 0.22 0.29 0.40 0.28 0.24
0.47 0.34 0.30 0.36 0.46 0.63 0.76 0.54 0.40 0.35 0.57 0.82 0.88 1.19 0.91 0.97 0.91 0.91 0.91 0.72 0.54 0.47 0.42 0.41 0.30 0.35 0.58 0.58 0.66 0.71 0.77 0.89 0.94 0.96 1.01 1.08 1.01 0.90 0.80 0.71 0.70 0.57 0.48 0.49 0.42 0.41 0.37 0.29 0.24 0.30 0.23 0.18 0.10 0.09
0.69 0.58 0.45 0.39 0.36 0.36 0.50 0.32 0.14 0.34 0.67 0.76 0.81 0.70 0.61 0.68 0.60 0.60 0.42 0.29 0.17 0.14 0.19 0.25 0.32 0.49 0.70 0.78 0.81 0.77 0.75 0.71 0.78 0.82 0.79 0.83 0.79 0.72 0.66 0.57 0.51 0.49 0.43 0.40 0.32 0.31 0.29 0.24 0.23 0.19 0.16 0.11 0.12 0.13
0.90 0.76 0.59 0.48 0.25 0.22 0.12 0.12 0.03 0.15 0.38 0.44 0.35 0.19 0.15 0.21 0.12 0.06 0.05 0.03 0.04 0.06 0.16 0.33 0.69 0.82 0.78 0.82 0.75 0.74 0.72 0.62 0.47 0.39 0.49 0.59 0.60 0.51 0.57 0.49 0.45 0.40 0.31 0.30 0.27 0.22 0.17 0.15 0.16 0.15 0.14 0.15 0.15 0.16
0.72 0.74 0.61 0.45 0.37 0.19 0.10 0.03 0.06 0.07 0.11 0.19 0.13 0.04 0.07 0.04 0.04 0.04 0.03 0.02 0.06 0.16 0.41 0.61 0.63 0.67 0.47 0.47 0.44 0.43 0.43 0.39 0.40 0.31 0.34 0.42 0.49 0.36 0.37 0.39 0.35 0.33 0.29 0.29 0.25 0.27 0.23 0.25 0.22 0.17 0.16 0.12 0.12 0.10
0.46 0.47 0.50 0.45 0.54 0.28 0.15 0.00 0.02 0.02 0.04 0.12 0.12 0.06 0.07 0.09 0.07 0.05 0.02 0.07 0.30 0.54 0.54 0.40 0.34 0.26 0.19 0.22 0.24 0.21 0.30 0.26 0.31 0.36 0.37 0.29 0.30 0.29 0.33 0.40 0.30 0.32 0.31 0.32 0.27 0.24 0.21 0.16 0.14 0.13 0.09 0.08 0.06 0.06
0.25 0.43 0.43 0.40 0.48 0.27 0.32 0.07 0.06 0.04 0.05 0.11 0.09 0.07 0.06 0.05 0.04 0.02 0.07 0.18 0.46 0.48 0.34 0.19 0.16 0.14 0.14 0.19 0.11 0.09 0.07 0.07 0.12 0.23 0.32 0.31 0.31 0.32 0.31 0.30 0.28 0.25 0.22 0.21 0.18 0.15 0.14 0.11 0.07 0.04 0.04 0.06 0.07 0.05
0.31 0.54 0.55 0.40 0.28 0.28 0.31 0.14 0.07 0.07 0.06 0.08 0.07 0.08 0.07 0.05 0.02 0.03 0.10 0.21 0.38 0.24 0.14 0.16 0.15 0.15 0.13 0.13 0.14 0.18 0.21 0.15 0.17 0.20 0.23 0.19 0.17 0.21 0.16 0.14 0.12 0.12 0.11 0.09 0.06 0.04 0.04 0.03 0.03 0.05 0.06 0.06 0.05 0.07
0.59 0.48 0.42 0.33 0.25 0.13 0.12 0.10 0.09 0.06 0.05 0.04 0.06 0.07 0.06 0.02 0.05 0.06 0.09 0.29 0.26 0.22 0.19 0.17 0.16 0.15 0.17 0.19 0.18 0.17 0.14 0.12 0.10 0.10 0.13 0.11 0.10 0.09 0.06 0.05 0.04 0.05 0.04 0.06 0.06 0.05 0.04 0.05 0.05 0.04 0.04 0.06 0.08 0.09
0.53 0.29 0.22 0.15 0.09 0.10 0.07 0.05 0.04 0.04 0.06 0.11 0.13 0.09 0.05 0.08 0.08 0.15 0.23 0.32 0.26 0.26 0.28 0.28 0.23 0.16 0.14 0.13 0.12 0.11 0.08 0.08 0.05 0.04 0.06 0.02 0.04 0.06 0.05 0.03 0.04 0.06 0.05 0.06 0.08 0.08 0.05 0.04 0.04 0.05 0.07 0.07 0.09 0.12
0.27 0.16 0.07 0.05 0.10 0.15 0.20 0.16 0.15 0.17 0.16 0.17 0.14 0.09 0.13 0.18 0.16 0.29 0.40 0.34 0.27 0.28 0.22 0.19 0.13 0.11 0.12 0.11 0.08 0.07 0.02 0.01 0.01 0.02 0.01 0.02 0.03 0.04 0.06 0.10 0.13 0.12 0.05 0.05 0.08 0.10 0.13 0.11 0.09 0.08 0.09 0.10 0.12 0.17
0.13 0.13 0.16 0.16 0.23 0.24 0.21 0.17 0.19 0.22 0.25 0.21 0.16 0.16 0.17 0.16 0.29 0.42 0.39 0.46 0.29 0.16 0.10 0.07 0.04 0.03 0.03 0.05 0.07 0.06 0.03 0.01 0.01 0.01 0.03 0.07 0.07 0.05 0.04 0.06 0.06 0.04 0.05 0.07 0.09 0.09 0.11 0.13 0.13 0.13 0.13 0.15 0.18 0.22
0.16 0.22 0.24 0.22 0.17 0.11 0.13 0.16 0.16 0.16 0.16 0.12 0.12 0.13 0.16 0.24 0.40 0.39 0.39 0.32 0.19 0.12 0.09 0.09 0.15 0.08 0.05 0.03 0.03 0.03 0.01 0.01 0.01 0.01 0.01 0.04 0.09 0.07 0.04 0.04 0.06 0.05 0.06 0.06 0.06 0.07 0.12 0.15 0.13 0.17 0.20 0.22 0.21 0.18
0.04 0.09 0.13 0.10 0.13 0.15 0.22 0.15 0.16 0.12 0.06 0.04 0.06 0.11 0.17 0.41 0.61 0.43 0.32 0.25 0.20 0.16 0.15 0.13 0.14 0.08 0.07 0.06 0.06 0.08 0.09 0.03 0.02 0.03 0.05 0.05 0.06 0.06 0.06 0.06 0.05 0.05 0.06 0.07 0.05 0.05 0.08 0.07 0.08 0.15 0.11 0.11 0.14 0.13
0.03 0.05 0.06 0.08 0.16 0.23 0.20 0.12 0.11 0.10 0.10 0.08 0.07 0.08 0.22 0.35 0.39 0.33 0.29 0.33 0.15 0.10 0.09 0.09 0.10 0.09 0.06 0.05 0.06 0.06 0.08 0.04 0.03 0.03 0.03 0.04 0.04 0.05 0.05 0.04 0.05 0.06 0.06 0.06 0.06 0.07 0.07 0.07 0.10 0.11 0.07 0.06 0.08 0.08
0.07 0.09 0.07 0.13 0.24 0.22 0.26 0.26 0.16 0.18 0.15 0.10 0.12 0.10 0.15 0.13 0.15 0.21 0.23 0.26 0.18 0.13 0.11 0.08 0.09 0.13 0.11 0.10 0.08 0.06 0.04 0.04 0.03 0.02 0.03 0.05 0.04 0.04 0.03 0.02 0.04 0.06 0.06 0.06 0.06 0.08 0.09 0.09 0.09 0.08 0.09 0.07 0.07 0.06
0.05 0.06 0.07 0.07 0.12 0.15 0.17 0.15 0.11 0.10 0.11 0.12 0.16 0.17 0.18 0.13 0.13 0.19 0.21 0.21 0.27 0.14 0.10 0.07 0.08 0.10 0.09 0.05 0.02 0.03 0.01 0.01 0.01 0.02 0.03 0.04 0.02 0.02 0.02 0.03 0.05 0.05 0.06 0.07 0.08 0.09 0.08 0.07 0.07 0.07 0.06 0.06 0.05 0.04

GFSWCAN_prec_precacc_120.txt.gz
Total_Precipitation_Accumulation
1.20 1.01 1.02 0.92 0.86 0.85 0.90 1.10 1.01 1.02 0.99 1.07 1.03 1.00 0.87 0.86 1.21 2.12 1.94 1.22 1.52 1.74 0.75 0.45 0.36 0.34 0.18 0.24 0.39 0.39 0.63 0.76 0.68 0.50 0.23 0.15 0.14 0.11 0.28 0.28 0.23 0.21 0.34 0.36 0.49 0.53 0.26 0.11 0.22 0.29 0.33 0.18 0.09 0.11
1.50 1.26 1.00 0.87 0.86 0.76 0.77 0.80 0.79 0.81 0.90 0.98 0.78 0.71 0.75 0.84 1.20 2.04 2.33 1.34 1.41 1.81 1.09 0.58 0.34 0.32 0.21 0.18 0.35 0.49 0.64 0.48 0.42 0.51 0.26 0.23 0.20 0.17 0.16 0.49 0.23 0.47 0.26 0.26 0.24 0.29 0.35 0.31 0.39 0.32 0.18 0.22 0.23 0.16
1.67 1.23 0.85 0.72 0.70 0.69 0.59 0.63 0.64 0.71 0.81 0.87 0.78 0.68 0.77 0.92 1.25 2.11 2.18 1.34 2.67 2.90 1.32 0.64 0.52 0.28 0.23 0.16 0.30 0.60 0.33 0.38 0.63 0.67 0.62 0.45 0.35 0.20 0.24 0.26 0.32 0.56 0.66 0.76 0.85 0.73 0.41 0.46 0.39 0.18 0.21 0.28 0.24 0.15
1.44 1.22 0.84 0.61 0.59 0.61 0.56 0.60 0.63 0.68 0.70 0.84 0.80 0.86 1.03 1.09 1.37 2.14 2.05 1.61 2.51 2.32 1.73 0.79 0.34 0.26 0.21 0.18 0.16 0.25 0.29 0.31 0.45 0.62 0.64 0.61 0.33 0.20 0.32 0.29 0.27 0.39 0.56 0.68 1.15 0.87 0.62 0.52 0.97 0.49 0.22 0.15 0.11 0.05
1.49 1.17 0.82 0.57 0.51 0.51 0.53 0.62 0.64 0.71 0.86 0.87 0.85 1.06 1.36 1.35 1.53 2.01 1.92 1.77 1.61 1.68 1.66 0.94 0.30 0.24 0.33 0.32 0.27 0.27 0.34 0.42 0.66 1.03 0.77 0.31 0.21 0.27 0.29 0.54 0.38 0.16 0.41 0.82 1.04 1.20 1.05 0.94 0.83 0.70 0.49 0.31 0.16 0.07
1.39 1.09 0.84 0.54 0.45 0.43 0.43 0.49 0.50 0.64 0.79 0.87 0.92 1.29 1.30 1.31 2.06 3.13 4.60 2.97 1.55 1.39 1.91 1.25 0.68 0.19 0.33 0.40 0.60 0.40 0.45 0.71 0.95 1.14 0.89 0.40 0.31 0.56 0.45 0.62 0.53 0.55 0.35 0.35 0.62 0.76 1.06 0.96 0.58 0.30 0.22 0.15 0.06 0.04
1.26 1.00 0.77 0.59 0.42 0.35 0.35 0.38 0.44 0.57 0.75 0.92 1.10 1.06 1.23 1.44 2.21 2.22 2.19 1.58 1.03 1.46 2.14 1.33 0.89 0.56 0.46 0.71 0.67 0.74 0.70 1.16 1.14 1.31 1.02 0.55 0.39 0.75 0.77 0.52 0.33 0.25 0.16 0.10 0.13 0.23 0.25 0.16 0.12 0.03 0.02 0.02 0.02 0.01
1.16 0.86 0.69 0.52 0.53 0.42 0.40 0.46 0.54 0.64 0.80 1.08 1.36 1.32 1.59 2.07 2.55 1.58 0.84 0.73 0.87 1.67 1.43 1.39 0.87 1.07 0.58 1.08 0.86 0.75 0.94 1.23 1.27 1.05 0.72 0.48 0.60 1.05 1.06 0.29 0.06 0.02 0.02 0.03 0.05 0.06 0.05 0.04 0.02 0.02 0.02 0.02 0.02 0.02
0.59 0.55 0.55 0.52 0.53 0.57 0.65 0.72 0.75 0.93 1.25 1.42 1.78 2.49 3.60 3.48 2.66 1.76 1.06 1.14 1.23 1.52 1.29 0.78 0.71 1.38 0.91 1.22 1.38 0.92 0.81 1.04 0.91 0.95 0.68 0.69 0.78 1.26 0.82 0.27 0.09 0.03 0.02 0.03 0.02 0.04 0.08 0.10 0.11 0.11 0.10 0.11 0.16 0.28
0.51 0.52 0.51 0.50 0.47 0.53 0.59 0.77 1.03 1.37 1.53 1.93 3.07 3.60 3.79 2.47 1.81 2.03 2.85 2.79 2.36 1.20 0.67 0.55 0.54 1.01 1.31 1.21 1.32 1.57 1.16 0.78 0.75 0.62 0.74 1.12 0.94 0.47 0.14 0.07 0.13 0.16 0.16 0.11 0.07 0.09 0.11 0.14 0.15 0.20 0.27 0.36 0.45 0.44
0.52 0.52 0.58 0.62 0.66 0.73 0.97 1.15 1.01 1.07 2.23 3.25 3.49 2.98 2.82 2.39 1.92 2.39 2.38 1.91 1.41 0.78 0.23 0.29 0.30 0.48 0.93 1.50 1.13 0.97 1.39 1.30 0.76 0.65 0.74 1.04 0.80 0.50 0.17 0.07 0.06 0.08 0.11 0.13 0.15 0.15 0.16 0.20 0.30 0.42 0.43 0.34 0.27 0.29
0.53 0.46 0.38 0.44 0.52 0.65 0.76 0.79 0.93 1.55 2.26 2.21 2.23 2.65 2.79 2.70 2.30 1.79 1.66 0.98 0.58 0.39 0.21 0.25 0.31 0.45 0.95 1.83 1.65 1.04 1.16 1.25 1.23 1.05 1.00 0.80 0.52 0.28 0.27 0.26 0.23 0.20 0.16 0.15 0.17 0.24 0.32 0.40 0.41 0.29 0.24 0.27 0.32 0.37
0.63 0.55 0.48 0.43 0.42 0.47 0.62 1.01 1.31 1.64 1.97 2.20 2.40 2.69 2.38 2.36 2.08 1.54 0.99 0.52 0.48 0.52 0.42 0.30 0.41 0.67 0.72 1.64 1.79 1.26 1.15 1.30 1.18 1.24 1.08 0.75 0.49 0.34 0.33 0.28 0.27 0.26 0.28 0.33 0.40 0.37 0.28 0.27 0.29 0.32 0.42 0.57 0.58 0.64
0.82 0.65 0.57 0.49 0.51 0.67 0.99 1.23 1.72 2.26 2.22 2.36 2.46 2.30 1.89 1.52 1.02 0.85 0.52 0.38 0.47 0.55 0.50 0.36 0.34 0.43 0.65 1.30 2.23 1.72 1.43 0.82 0.98 0.88 0.63 0.66 0.76 0.80 0.63 0.55 0.52 0.59 0.61 0.60 0.64 0.61 0.64 0.66 0.74 0.79 0.78 0.83 0.66 0.74
0.85 0.54 0.48 0.54 0.59 0.73 0.88 1.10 1.53 1.79 1.72 1.40 1.09 1.18 0.93 0.98 0.79 0.70 0.55 0.51 0.63 0.93 0.88 0.88 0.89 0.76 0.82 1.31 1.36 1.07 0.78 0.65 0.54 0.73 0.84 0.92 0.86 0.76 0.60 0.54 0.53 0.58 0.62 0.66 0.71 0.64 0.71 0.73 0.62 0.75 0.81 0.73 0.55 0.57
0.76 0.74 0.62 0.62 0.64 0.65 0.78 1.05 1.33 1.24 0.93 0.57 0.80 1.16 0.93 0.82 0.83 0.76 0.74 0.77 0.85 1.09 1.05 1.00 0.85 0.78 0.94 0.83 0.71 0.76 0.60 0.70 0.83 0.67 0.76 0.75 0.75 0.79 0.85 0.82 0.82 0.84 0.75 0.68 0.65 0.59 0.57 0.54 0.47 0.51 0.52 0.46 0.47 0.38
0.51 0.60 0.59 0.53 0.53 0.63 0.66 0.80 0.83 0.69 0.68 0.57 0.94 1.16 1.06 0.85 0.92 1.04 0.97 0.91 0.84 0.77 0.70 0.46 0.41 0.57 0.58 0.48 0.60 0.65 0.92 0.93 0.86 0.87 0.85 0.84 0.87 0.87 0.85 0.84 0.86 0.75 0.61 0.55 0.53 0.49 0.47 0.44 0.32 0.22 0.29 0.40 0.28 0.24
0.47 0.34 0.30 0.36 0.46 0.63 0.76 0.54 0.40 0.35 0.58 0.83 0.89 1.20 0.91 0.98 0.92 0.92 0.91 0.72 0.54 0.47 0.42 0.41 0.30 0.35 0.58 0.58 0.66 0.71 0.77 0.89 0.94 0.96 1.01 1.08 1.01 0.90 0.80 0.71 0.70 0.57 0.48 0.49 0.42 0.41 0.37 0.29 0.24 0.30 0.23 0.18 0.10 0.09
0.69 0.58 0.45 0.39 0.36 0.36 0.50 0.32 0.14 0.34 0.67 0.77 0.82 0.70 0.61 0.69 0.61 0.61 0.42 0.29 0.17 0.14 0.19 0.25 0.32 0.49 0.70 0.78 0.81 0.77 0.75 0.72 0.78 0.82 0.79 0.83 0.79 0.72 0.66 0.57 0.51 0.49 0.43 0.40 0.32 0.31 0.29 0.24 0.23 0.19 0.16 0.11 0.12 0.13
0.90 0.76 0.59 0.48 0.25 0.22 0.12 0.12 0.03 0.15 0.38 0.44 0.36 0.19 0.15 0.21 0.13 0.06 0.05 0.04 0.04 0.06 0.16 0.33 0.69 0.82 0.78 0.82 0.75 0.74 0.72 0.62 0.47 0.39 0.50 0.59 0.60 0.51 0.57 0.49 0.45 0.40 0.31 0.30 0.27 0.22 0.17 0.15 0.16 0.15 0.14 0.15 0.15 0.16
0.72 0.74 0.61 0.45 0.37 0.19 0.10 0.03 0.06 0.07 0.11 0.19 0.13 0.04 0.07 0.04 0.04 0.04 0.03 0.02 0.07 0.16 0.41 0.61 0.63 0.67 0.47 0.47 0.44 0.43 0.43 0.39 0.40 0.31 0.34 0.42 0.49 0.36 0.37 0.39 0.35 0.33 0.29 0.29 0.25 0.27 0.23 0.25 0.22 0.17 0.16 0.12 0.12 0.10
0.46 0.47 0.50 0.45 0.54 0.28 0.15 0.00 0.02 0.02 0.04 0.12 0.12 0.06 0.07 0.09 0.07 0.05 0.02 0.07 0.30 0.54 0.54 0.40 0.34 0.26 0.19 0.22 0.24 0.21 0.30 0.26 0.31 0.36 0.37 0.29 0.30 0.29 0.33 0.40 0.30 0.32 0.31 0.32 0.27 0.24 0.21 0.16 0.14 0.13 0.09 0.08 0.06 0.06
0.25 0.43 0.43 0.40 0.48 0.27 0.33 0.07 0.06 0.04 0.05 0.11 0.09 0.07 0.06 0.05 0.04 0.02 0.07 0.18 0.46 0.48 0.34 0.19 0.16 0.14 0.14 0.19 0.11 0.09 0.07 0.07 0.12 0.23 0.32 0.31 0.31 0.32 0.31 0.30 0.28 0.25 0.22 0.21 0.18 0.15 0.14 0.11 0.07 0.04 0.04 0.06 0.07 0.05
0.31 0.54 0.55 0.40 0.28 0.28 0.31 0.14 0.07 0.07 0.07 0.08 0.07 0.08 0.07 0.05 0.02 0.03 0.10 0.21 0.38 0.24 0.14 0.16 0.15 0.15 0.13 0.13 0.14 0.18 0.21 0.15 0.17 0.20 0.23 0.19 0.17 0.21 0.16 0.14 0.12 0.12 0.11 0.09 0.06 0.05 0.04 0.04 0.03 0.05 0.06 0.06 0.05 0.07
0.59 0.48 0.42 0.33 0.25 0.13 0.13 0.11 0.09 0.06 0.06 0.04 0.06 0.07 0.06 0.02 0.05 0.06 0.09 0.29 0.26 0.23 0.19 0.17 0.16 0.15 0.17 0.19 0.18 0.17 0.14 0.12 0.10 0.10 0.13 0.11 0.10 0.09 0.06 0.05 0.04 0.05 0.04 0.06 0.06 0.05 0.04 0.05 0.05 0.04 0.04 0.06 0.08 0.09
0.53 0.29 0.22 0.15 0.09 0.11 0.07 0.05 0.04 0.04 0.06 0.12 0.14 0.09 0.05 0.08 0.08 0.15 0.23 0.32 0.26 0.26 0.28 0.28 0.24 0.16 0.14 0.13 0.12 0.11 0.08 0.08 0.05 0.04 0.06 0.02 0.04 0.06 0.05 0.03 0.04 0.06 0.05 0.06 0.08 0.08 0.05 0.04 0.04 0.05 0.07 0.07 0.09 0.12
0.27 0.16 0.07 0.05 0.10 0.15 0.20 0.16 0.15 0.17 0.16 0.17 0.14 0.09 0.13 0.18 0.16 0.29 0.40 0.34 0.28 0.28 0.22 0.19 0.13 0.11 0.12 0.11 0.08 0.07 0.02 0.01 0.01 0.02 0.01 0.02 0.03 0.04 0.06 0.10 0.13 0.12 0.05 0.05 0.08 0.10 0.13 0.11 0.09 0.08 0.09 0.10 0.12 0.17
0.13 0.13 0.16 0.17 0.23 0.24 0.21 0.17 0.19 0.22 0.25 0.21 0.16 0.16 0.17 0.16 0.29 0.42 0.39 0.46 0.30 0.16 0.11 0.08 0.04 0.03 0.03 0.05 0.07 0.06 0.04 0.02 0.01 0.01 0.03 0.08 0.08 0.05 0.04 0.06 0.06 0.04 0.05 0.07 0.09 0.09 0.11 0.13 0.13 0.13 0.13 0.15 0.18 0.22
0.16 0.22 0.24 0.23 0.17 0.11 0.13 0.16 0.16 0.16 0.16 0.12 0.12 0.13 0.16 0.24 0.40 0.39 0.39 0.32 0.19 0.13 0.09 0.09 0.16 0.09 0.06 0.03 0.04 0.04 0.02 0.02 0.01 0.01 0.02 0.05 0.11 0.08 0.04 0.04 0.06 0.05 0.06 0.06 0.06 0.07 0.12 0.15 0.13 0.17 0.20 0.22 0.21 0.18
0.04 0.09 0.13 0.10 0.13 0.15 0.22 0.15 0.16 0.12 0.06 0.04 0.06 0.11 0.17 0.41 0.61 0.43 0.32 0.25 0.20 0.16 0.15 0.13 0.14 0.09 0.07 0.06 0.07 0.09 0.10 0.04 0.02 0.03 0.05 0.05 0.06 0.06 0.06 0.06 0.05 0.05 0.06 0.07 0.05 0.05 0.08 0.07 0.08 0.15 0.11 0.11 0.14 0.13
0.03 0.05 0.06 0.08 0.16 0.23 0.20 0.13 0.12 0.10 0.10 0.08 0.07 0.08 0.22 0.35 0.39 0.33 0.29 0.33 0.15 0.10 0.09 0.10 0.11 0.10 0.06 0.06 0.06 0.06 0.09 0.05 0.03 0.03 0.03 0.04 0.04 0.05 0.05 0.04 0.05 0.06 0.06 0.06 0.06 0.07 0.07 0.07 0.10 0.11 0.07 0.06 0.08 0.08
0.08 0.10 0.08 0.13 0.24 0.22 0.27 0.27 0.17 0.18 0.15 0.10 0.12 0.10 0.15 0.13 0.16 0.21 0.23 0.27 0.19 0.14 0.11 0.09 0.10 0.14 0.12 0.12 0.10 0.08 0.06 0.04 0.03 0.02 0.03 0.05 0.04 0.04 0.03 0.02 0.04 0.06 0.06 0.06 0.06 0.08 0.09 0.09 0.09 0.08 0.09 0.07 0.07 0.06
0.07 0.08 0.08 0.08 0.13 0.16 0.18 0.17 0.11 0.10 0.11 0.12 0.17 0.17 0.19 0.13 0.13 0.19 0.21 0.21 0.28 0.15 0.11 0.09 0.09 0.12 0.12 0.07 0.05 0.04 0.02 0.02 0.01 0.02 0.03 0.04 0.02 0.02 0.02 0.03 0.05 0.05 0.06 0.07 0.08 0.09 0.08 0.07 0.07 0.07 0.06 0.06 0.05 0.04

GFSWCAN_prec_precacc_126.txt.gz
Total_Precipitation_Accumulation
1.38 1.16 1.12 1.01 1.01 1.17 1.55 1.64 1.23 1.17 1.12 1.18 1.14 1.14 1.11 1.32 1.62 2.26 2.03 1.24 1.55 1.80 0.81 0.47 0.36 0.35 0.19 0.24 0.40 0.40 0.63 0.76 0.68 0.50 0.23 0.15 0.14 0.11 0.29 0.28 0.23 0.22 0.36 0.38 0.52 0.57 0.32 0.12 0.27 0.37 0.37 0.19 0.09 0.11
1.76 1.45 1.10 0.98 1.12 1.19 1.30 1.35 1.05 0.98 1.07 1.12 0.90 0.89 1.09 1.28 1.65 2.27 2.48 1.39 1.43 1.85 1.14 0.60 0.34 0.33 0.21 0.18 0.35 0.49 0.64 0.49 0.42 0.51 0.26 0.23 0.20 0.17 0.17 0.50 0.23 0.48 0.27 0.28 0.26 0.32 0.37 0.33 0.44 0.36 0.19 0.23 0.23 0.16
1.94 1.41 0.96 0.87 1.09 1.16 1.08 1.12 0.90 0.91 0.98 1.03 0.90 0.84 1.02 1.26 1.68 2.37 2.29 1.39 2.73 2.97 1.39 0.68 0.53 0.28 0.23 0.16 0.30 0.60 0.33 0.38 0.63 0.67 0.62 0.45 0.35 0.20 0.24 0.28 0.33 0.57 0.66 0.76 0.86 0.75 0.42 0.51 0.48 0.27 0.27 0.32 0.26 0.16
1.64 1.34 0.98 0.86 1.07 1.06 0.95 1.04 0.91 0.87 0.83 0.97 0.91 0.96 1.19 1.32 1.60 2.21 2.07 1.64 2.54 2.34 1.79 0.86 0.34 0.26 0.21 0.18 0.16 0.25 0.29 0.31 0.45 0.62 0.64 0.61 0.33 0.20 0.33 0.30 0.28 0.39 0.56 0.69 1.17 0.89 0.64 0.58 1.06 0.59 0.30 0.20 0.12 0.05
1.59 1.34 1.06 0.88 0.95 0.99 0.91 1.01 0.88 0.85 0.95 0.93 0.88 1.09 1.41 1.40 1.56 2.02 1.93 1.77 1.62 1.69 1.69 0.98 0.31 0.24 0.33 0.32 0.27 0.27 0.34 0.42 0.66 1.03 0.77 0.31 0.21 0.27 0.29 0.54 0.39 0.16 0.42 0.84 1.07 1.20 1.07 0.99 0.90 0.78 0.56 0.35 0.17 0.08
1.57 1.29 1.04 0.85 0.91 0.82 0.69 0.70 0.61 0.68 0.81 0.89 0.93 1.30 1.30 1.31 2.06 3.14 4.66 2.99 1.55 1.39 1.91 1.30 0.70 0.19 0.33 0.40 0.60 0.40 0.45 0.71 0.95 1.14 0.89 0.40 0.31 0.57 0.45 0.63 0.54 0.55 0.35 0.35 0.62 0.77 1.08 1.00 0.64 0.36 0.27 0.16 0.06 0.04
1.39 1.16 1.00 0.91 0.73 0.54 0.43 0.42 0.46 0.58 0.75 0.93 1.11 1.07 1.23 1.44 2.21 2.22 2.21 1.60 1.03 1.46 2.14 1.35 0.92 0.58 0.46 0.71 0.67 0.74 0.70 1.16 1.14 1.31 1.02 0.55 0.39 0.75 0.77 0.53 0.33 0.25 0.16 0.10 0.13 0.24 0.29 0.20 0.15 0.04 0.02 0.02 0.02 0.01
1.31 1.07 0.92 0.72 0.64 0.45 0.40 0.47 0.54 0.64 0.80 1.08 1.36 1.32 1.59 2.07 2.55 1.58 0.84 0.73 0.87 1.67 1.43 1.39 0.90 1.09 0.58 1.08 0.86 0.75 0.94 1.23 1.27 1.05 0.72 0.48 0.60 1.06 1.07 0.29 0.06 0.02 0.02 0.04 0.06 0.06 0.05 0.04 0.02 0.02 0.02 0.02 0.02 0.02
0.71 0.67 0.62 0.56 0.54 0.57 0.65 0.72 0.75 0.93 1.25 1.42 1.78 2.49 3.60 3.48 2.66 1.76 1.06 1.14 1.23 1.52 1.29 0.78 0.71 1.39 0.91 1.23 1.38 0.92 0.81 1.04 0.91 0.95 0.68 0.69 0.79 1.26 0.82 0.27 0.10 0.03 0.02 0.03 0.02 0.04 0.08 0.10 0.11 0.11 0.10 0.11 0.16 0.28
0.55 0.55 0.52 0.50 0.47 0.53 0.59 0.77 1.03 1.37 1.53 1.93 3.07 3.60 3.79 2.47 1.81 2.03 2.85 2.79 2.36 1.20 0.67 0.55 0.54 1.02 1.31 1.21 1.34 1.58 1.16 0.78 0.75 0.63 0.74 1.13 0.96 0.47 0.14 0.07 0.13 0.16 0.16 0.11 0.07 0.09 0.11 0.14 0.15 0.20 0.27 0.36 0.45 0.44
0.54 0.53 0.59 0.62 0.66 0.73 0.97 1.15 1.01 1.07 2.23 3.25 3.49 2.99 2.82 2.39 1.92 2.39 2.38 1.91 1.41 0.78 0.23 0.29 0.30 0.48 0.93 1.51 1.13 0.97 1.40 1.30 0.77 0.66 0.75 1.05 0.81 0.50 0.17 0.07 0.06 0.08 0.11 0.13 0.15 0.15 0.16 0.20 0.30 0.42 0.43 0.34 0.27 0.29
0.56 0.48 0.39 0.44 0.52 0.65 0.76 0.79 0.93 1.55 2.26 2.21 2.23 2.65 2.79 2.70 2.30 1.79 1.66 0.98 0.58 0.39 0.22 0.26 0.32 0.46 0.96 1.84 1.65 1.04 1.16 1.26 1.25 1.06 1.01 0.81 0.53 0.28 0.27 0.26 0.23 0.20 0.16 0.15 0.17 0.24 0.32 0.40 0.41 0.29 0.24 0.27 0.32 0.37
0.64 0.56 0.48 0.43 0.42 0.47 0.62 1.01 1.31 1.64 1.97 2.20 2.40 2.69 2.38 2.36 2.08 1.54 0.99 0.52 0.49 0.53 0.43 0.30 0.42 0.68 0.72 1.65 1.80 1.27 1.16 1.31 1.19 1.25 1.09 0.77 0.49 0.34 0.33 0.28 0.27 0.26 0.28 0.33 0.40 0.37 0.28 0.27 0.29 0.32 0.42 0.57 0.58 0.64
0.82 0.65 0.57 0.49 0.51 0.67 0.99 1.23 1.72 2.26 2.22 2.36 2.46 2.30 1.89 1.52 1.03 0.86 0.53 0.39 0.47 0.55 0.51 0.37 0.35 0.43 0.66 1.30 2.23 1.73 1.44 0.82 0.99 0.89 0.65 0.67 0.76 0.80 0.63 0.55 0.52 0.59 0.61 0.60 0.64 0.61 0.64 0.66 0.74 0.79 0.78 0.83 0.66 0.74
0.85 0.54 0.48 0.54 0.59 0.73 0.88 1.10 1.53 1.79 1.72 1.40 1.09 1.18 0.94 1.00 0.81 0.71 0.56 0.52 0.64 0.94 0.89 0.88 0.89 0.76 0.83 1.31 1.37 1.07 0.79 0.65 0.55 0.75 0.86 0.92 0.86 0.76 0.60 0.54 0.53 0.58 0.62 0.66 0.71 0.64 0.71 0.73 0.62 0.75 0.81 0.73 0.55 0.57
0.76 0.74 0.62 0.62 0.64 0.65 0.78 1.05 1.33 1.24 0.93 0.57 0.81 1.20 0.97 0.85 0.86 0.78 0.75 0.78 0.86 1.10 1.05 1.00 0.85 0.78 0.94 0.83 0.71 0.76 0.60 0.71 0.84 0.68 0.76 0.75 0.75 0.79 0.85 0.82 0.82 0.84 0.75 0.68 0.65 0.59 0.57 0.54 0.47 0.51 0.52 0.46 0.47 0.38
0.51 0.60 0.59 0.53 0.53 0.63 0.66 0.80 0.83 0.69 0.68 0.58 0.96 1.20 1.10 0.88 0.95 1.06 0.99 0.92 0.85 0.78 0.70 0.46 0.41 0.57 0.58 0.48 0.60 0.65 0.93 0.94 0.86 0.87 0.85 0.84 0.87 0.87 0.85 0.84 0.86 0.75 0.61 0.55 0.53 0.49 0.47 0.44 0.32 0.22 0.29 0.40 0.28 0.24
0.47 0.34 0.30 0.36 0.46 0.63 0.76 0.54 0.40 0.35 0.59 0.86 0.94 1.25 0.93 1.00 0.94 0.93 0.91 0.73 0.55 0.47 0.42 0.41 0.30 0.35 0.58 0.58 0.66 0.72 0.78 0.89 0.94 0.96 1.02 1.08 1.02 0.90 0.80 0.71 0.70 0.57 0.48 0.49 0.42 0.41 0.37 0.29 0.24 0.30 0.23 0.18 0.10 0.09
0.69 0.58 0.45 0.39 0.36 0.36 0.50 0.32 0.14 0.34 0.70 0.80 0.86 0.72 0.63 0.71 0.62 0.61 0.42 0.29 0.17 0.14 0.19 0.25 0.32 0.50 0.71 0.78 0.81 0.77 0.75 0.72 0.78 0.82 0.79 0.83 0.79 0.72 0.66 0.57 0.51 0.49 0.43 0.40 0.32 0.31 0.29 0.24 0.23 0.19 0.16 0.11 0.12 0.14
0.90 0.76 0.59 0.48 0.25 0.22 0.12 0.12 0.03 0.16 0.40 0.46 0.37 0.20 0.15 0.22 0.13 0.06 0.06 0.04 0.04 0.06 0.16 0.34 0.70 0.83 0.78 0.82 0.75 0.74 0.72 0.62 0.47 0.39 0.50 0.60 0.60 0.51 0.57 0.49 0.45 0.40 0.31 0.30 0.27 0.22 0.17 0.15 0.16 0.15 0.14 0.15 0.16 0.17
0.72 0.74 0.61 0.45 0.37 0.19 0.10 0.03 0.06 0.07 0.12 0.20 0.14 0.05 0.08 0.05 0.05 0.05 0.04 0.02 0.07 0.17 0.43 0.62 0.63 0.67 0.47 0.47 0.44 0.43 0.43 0.39 0.40 0.31 0.34 0.42 0.49 0.36 0.37 0.39 0.35 0.33 0.29 0.29 0.25 0.27 0.23 0.25 0.22 0.17 0.16 0.13 0.13 0.11
0.46 0.47 0.50 0.45 0.54 0.28 0.16 0.01 0.02 0.02 0.04 0.12 0.12 0.06 0.08 0.10 0.07 0.05 0.02 0.08 0.31 0.55 0.55 0.40 0.34 0.26 0.19 0.22 0.24 0.21 0.30 0.26 0.31 0.36 0.37 0.29 0.30 0.29 0.33 0.40 0.30 0.32 0.31 0.32 0.27 0.24 0.21 0.17 0.14 0.13 0.11 0.09 0.06 0.07
0.25 0.43 0.43 0.40 0.48 0.27 0.33 0.08 0.06 0.04 0.05 0.11 0.09 0.07 0.07 0.05 0.04 0.02 0.08 0.19 0.46 0.48 0.34 0.19 0.16 0.14 0.14 0.19 0.11 0.09 0.07 0.07 0.12 0.23 0.32 0.31 0.31 0.32 0.31 0.30 0.28 0.26 0.22 0.21 0.18 0.16 0.16 0.12 0.07 0.05 0.04 0.06 0.08 0.06
0.31 0.54 0.55 0.40 0.28 0.29 0.32 0.15 0.08 0.07 0.07 0.09 0.07 0.08 0.07 0.05 0.02 0.03 0.10 0.22 0.38 0.24 0.14 0.16 0.15 0.15 0.13 0.13 0.14 0.18 0.21 0.15 0.17 0.20 0.23 0.19 0.17 0.21 0.16 0.14 0.12 0.12 0.11 0.10 0.07 0.06 0.05 0.04 0.04 0.06 0.07 0.07 0.05 0.07
0.59 0.48 0.42 0.33 0.25 0.14 0.13 0.11 0.10 0.07 0.07 0.05 0.06 0.08 0.06 0.03 0.05 0.06 0.09 0.30 0.26 0.23 0.20 0.17 0.16 0.15 0.17 0.19 0.18 0.17 0.14 0.12 0.10 0.10 0.13 0.11 0.10 0.09 0.07 0.06 0.05 0.05 0.05 0.07 0.07 0.06 0.06 0.06 0.06 0.05 0.04 0.06 0.08 0.09
0.53 0.29 0.22 0.15 0.09 0.11 0.07 0.05 0.04 0.05 0.07 0.13 0.14 0.10 0.05 0.09 0.09 0.15 0.23 0.32 0.27 0.27 0.29 0.29 0.24 0.16 0.14 0.13 0.12 0.11 0.08 0.08 0.05 0.04 0.06 0.02 0.04 0.06 0.06 0.04 0.04 0.06 0.06 0.07 0.09 0.09 0.05 0.04 0.05 0.05 0.07 0.07 0.09 0.12
0.27 0.16 0.07 0.05 0.10 0.15 0.20 0.17 0.15 0.17 0.16 0.19 0.16 0.10 0.13 0.18 0.17 0.29 0.40 0.34 0.28 0.28 0.22 0.20 0.13 0.11 0.12 0.11 0.08 0.07 0.02 0.01 0.01 0.02 0.02 0.02 0.04 0.05 0.07 0.11 0.14 0.13 0.05 0.06 0.08 0.10 0.13 0.11 0.09 0.08 0.09 0.10 0.12 0.17
0.13 0.13 0.16 0.17 0.23 0.24 0.21 0.18 0.20 0.23 0.26 0.22 0.17 0.16 0.18 0.16 0.30 0.42 0.40 0.46 0.30 0.17 0.11 0.08 0.04 0.03 0.03 0.05 0.07 0.06 0.04 0.02 0.01 0.01 0.03 0.08 0.08 0.05 0.04 0.06 0.07 0.04 0.05 0.08 0.09 0.09 0.11 0.13 0.13 0.13 0.13 0.15 0.18 0.22
0.17 0.22 0.24 0.23 0.17 0.11 0.13 0.16 0.16 0.16 0.16 0.12 0.13 0.15 0.16 0.24 0.40 0.39 0.40 0.33 0.19 0.13 0.10 0.10 0.17 0.09 0.06 0.04 0.04 0.05 0.03 0.03 0.02 0.01 0.02 0.06 0.12 0.10 0.04 0.05 0.06 0.05 0.06 0.06 0.06 0.07 0.12 0.15 0.13 0.17 0.20 0.22 0.21 0.18
0.05 0.10 0.13 0.11 0.13 0.16 0.22 0.15 0.16 0.13 0.06 0.04 0.06 0.11 0.17 0.41 0.62 0.43 0.32 0.25 0.20 0.16 0.16 0.14 0.15 0.10 0.09 0.07 0.08 0.11 0.13 0.06 0.05 0.07 0.08 0.07 0.08 0.08 0.07 0.06 0.05 0.05 0.06 0.07 0.05 0.05 0.08 0.07 0.08 0.15 0.11 0.11 0.14 0.13
0.04 0.05 0.07 0.09 0.17 0.24 0.21 0.13 0.12 0.11 0.10 0.09 0.07 0.08 0.23 0.36 0.40 0.34 0.29 0.34 0.16 0.11 0.10 0.11 0.12 0.11 0.08 0.08 0.08 0.08 0.11 0.07 0.03 0.03 0.03 0.04 0.05 0.06 0.06 0.04 0.05 0.06 0.06 0.06 0.06 0.07 0.07 0.07 0.10 0.11 0.07 0.06 0.08 0.08
0.08 0.10 0.09 0.14 0.26 0.23 0.27 0.27 0.17 0.18 0.16 0.10 0.13 0.11 0.16 0.14 0.17 0.23 0.24 0.28 0.20 0.16 0.14 0.11 0.13 0.18 0.16 0.16 0.13 0.11 0.07 0.05 0.03 0.03 0.04 0.05 0.05 0.04 0.03 0.02 0.04 0.06 0.06 0.06 0.06 0.08 0.09 0.09 0.09 0.08 0.09 0.07 0.07 0.06
0.08 0.09 0.10 0.10 0.14 0.17 0.19 0.19 0.12 0.11 0.12 0.13 0.18 0.19 0.20 0.15 0.16 0.22 0.22 0.23 0.31 0.19 0.15 0.12 0.13 0.15 0.16 0.11 0.08 0.08 0.05 0.03 0.02 0.03 0.03 0.04 0.02 0.02 0.02 0.03 0.05 0.05 0.06 0.07 0.08 0.09 0.08 0.07 0.07 0.07 0.06 0.06 0.05 0.04

GFSWCAN_prec_precacc_129.txt.gz
Total_Precipitation_Accumulation
1.39 1.17 1.13 1.02 1.02 1.17 1.56 1.64 1.24 1.17 1.13 1.18 1.14 1.14 1.11 1.33 1.64 2.31 2.04 1.25 1.58 1.82 0.81 0.47 0.37 0.37 0.20 0.26 0.41 0.40 0.63 0.77 0.68 0.50 0.23 0.15 0.14 0.11 0.29 0.30 0.24 0.22 0.36 0.39 0.52 0.58 0.33 0.12 0.27 0.38 0.37 0.19 0.09 0.11
1.78 1.46 1.11 0.98 1.12 1.20 1.31 1.38 1.11 1.03 1.10 1.12 0.90 0.89 1.09 1.29 1.67 2.31 2.49 1.40 1.48 1.92 1.16 0.60 0.35 0.33 0.21 0.19 0.36 0.49 0.64 0.49 0.42 0.51 0.26 0.23 0.20 0.17 0.18 0.53 0.25 0.49 0.28 0.30 0.26 0.33 0.37 0.33 0.44 0.36 0.19 0.23 0.23 0.16
1.96 1.43 0.96 0.88 1.12 1.21 1.21 1.32 1.06 1.00 1.03 1.05 0.90 0.85 1.04 1.29 1.71 2.46 2.37 1.41 2.81 3.10 1.47 0.71 0.55 0.28 0.24 0.17 0.31 0.60 0.33 0.38 0.63 0.67 0.63 0.45 0.36 0.20 0.25 0.28 0.34 0.57 0.66 0.76 0.86 0.75 0.42 0.51 0.48 0.27 0.27 0.32 0.26 0.16
1.64 1.36 1.02 0.92 1.15 1.22 1.22 1.29 1.09 1.05 0.94 1.06 0.93 0.98 1.24 1.43 1.74 2.44 2.28 1.70 2.62 2.47 1.89 0.94 0.36 0.27 0.21 0.18 0.16 0.25 0.29 0.31 0.45 0.62 0.65 0.62 0.34 0.21 0.33 0.30 0.28 0.39 0.56 0.69 1.18 0.90 0.65 0.59 1.06 0.59 0.30 0.21 0.14 0.07
1.62 1.41 1.13 0.97 1.11 1.24 1.18 1.29 1.02 0.95 1.10 1.10 0.99 1.20 1.58 1.67 1.82 2.27 2.13 1.85 1.65 1.72 1.74 1.05 0.32 0.25 0.33 0.32 0.27 0.27 0.34 0.42 0.67 1.04 0.77 0.31 0.21 0.27 0.29 0.54 0.39 0.16 0.42 0.84 1.07 1.20 1.07 0.99 0.90 0.79 0.56 0.37 0.19 0.10
1.63 1.37 1.11 1.00 1.12 1.07 0.93 0.94 0.67 0.78 0.97 1.06 1.08 1.47 1.55 1.63 2.35 3.43 5.01 3.16 1.58 1.40 1.91 1.35 0.73 0.20 0.33 0.40 0.61 0.41 0.45 0.71 0.95 1.14 0.89 0.40 0.31 0.57 0.45 0.63 0.54 0.55 0.35 0.35 0.62 0.77 1.08 1.00 0.64 0.36 0.27 0.18 0.07 0.04
1.45 1.22 1.11 1.12 0.99 0.81 0.69 0.55 0.50 0.63 0.90 1.10 1.27 1.22 1.40 1.64 2.36 2.35 2.42 1.83 1.09 1.47 2.15 1.39 0.98 0.60 0.46 0.71 0.67 0.74 0.70 1.16 1.14 1.31 1.02 0.55 0.39 0.75 0.77 0.53 0.33 0.25 0.16 0.10 0.13 0.24 0.29 0.20 0.16 0.04 0.02 0.02 0.02 0.01
1.40 1.20 1.14 0.97 0.85 0.65 0.58 0.53 0.56 0.66 0.84 1.14 1.43 1.39 1.64 2.10 2.56 1.58 0.85 0.74 0.88 1.68 1.43 1.41 0.98 1.13 0.59 1.09 0.87 0.75 0.94 1.23 1.27 1.05 0.72 0.48 0.60 1.06 1.07 0.29 0.06 0.02 0.02 0.04 0.06 0.06 0.05 0.04 0.02 0.02 0.02 0.02 0.02 0.02
0.90 0.90 0.82 0.68 0.62 0.66 0.74 0.77 0.78 0.95 1.26 1.42 1.80 2.51 3.61 3.48 2.66 1.76 1.06 1.14 1.23 1.53 1.29 0.79 0.75 1.42 0.92 1.23 1.38 0.92 0.81 1.05 0.91 0.95 0.68 0.69 0.79 1.26 0.82 0.27 0.10 0.03 0.02 0.03 0.02 0.04 0.08 0.10 0.11 0.11 0.10 0.11 0.16 0.28
0.63 0.59 0.54 0.51 0.48 0.55 0.61 0.78 1.04 1.37 1.53 1.93 3.07 3.60 3.80 2.47 1.81 2.03 2.86 2.79 2.36 1.21 0.67 0.55 0.54 1.02 1.31 1.22 1.34 1.58 1.17 0.78 0.75 0.63 0.74 1.13 0.96 0.47 0.14 0.07 0.13 0.16 0.16 0.11 0.07 0.09 0.11 0.14 0.15 0.20 0.27 0.36 0.45 0.44
0.54 0.53 0.59 0.62 0.66 0.73 0.97 1.15 1.01 1.07 2.23 3.25 3.49 2.99 2.83 2.39 1.92 2.39 2.38 1.92 1.41 0.78 0.24 0.29 0.30 0.48 0.93 1.51 1.13 0.97 1.40 1.30 0.77 0.66 0.75 1.05 0.81 0.50 0.17 0.07 0.06 0.08 0.11 0.13 0.15 0.15 0.16 0.20 0.30 0.42 0.43 0.34 0.27 0.29
0.56 0.48 0.39 0.44 0.52 0.65 0.76 0.79 0.93 1.55 2.26 2.21 2.23 2.65 2.79 2.70 2.30 1.79 1.66 0.98 0.58 0.40 0.22 0.26 0.32 0.46 0.96 1.84 1.65 1.04 1.16 1.26 1.26 1.06 1.01 0.81 0.53 0.28 0.27 0.26 0.23 0.20 0.16 0.15 0.17 0.24 0.32 0.40 0.41 0.29 0.24 0.27 0.32 0.37
0.64 0.56 0.48 0.43 0.42 0.47 0.62 1.01 1.31 1.64 1.97 2.20 2.40 2.69 2.38 2.36 2.08 1.54 0.99 0.52 0.49 0.53 0.43 0.31 0.43 0.68 0.72 1.65 1.80 1.27 1.16 1.31 1.19 1.25 1.09 0.77 0.49 0.34 0.33 0.28 0.27 0.26 0.28 0.33 0.40 0.37 0.28 0.27 0.29 0.32 0.42 0.57 0.58 0.64
0.82 0.65 0.57 0.49 0.51 0.67 0.99 1.23 1.72 2.26 2.22 2.36 2.46 2.30 1.89 1.52 1.03 0.87 0.53 0.39 0.47 0.55 0.51 0.37 0.35 0.43 0.66 1.30 2.23 1.73 1.44 0.82 0.99 0.89 0.66 0.67 0.76 0.80 0.63 0.55 0.52 0.59 0.61 0.60 0.64 0.61 0.64 0.66 0.74 0.79 0.78 0.83 0.66 0.74
0.85 0.54 0.48 0.54 0.59 0.73 0.88 1.10 1.53 1.79 1.72 1.40 1.09 1.19 0.95 1.00 0.82 0.71 0.56 0.52 0.65 0.94 0.89 0.88 0.89 0.76 0.83 1.31 1.37 1.07 0.79 0.65 0.55 0.75 0.86 0.92 0.86 0.76 0.60 0.54 0.53 0.58 0.62 0.66 0.71 0.64 0.71 0.73 0.62 0.75 0.81 0.73 0.55 0.57
0.76 0.74 0.62 0.62 0.64 0.65 0.78 1.05 1.33 1.24 0.93 0.57 0.82 1.21 0.98 0.86 0.88 0.80 0.76 0.78 0.87 1.10 1.05 1.00 0.85 0.78 0.94 0.83 0.71 0.76 0.60 0.71 0.84 0.68 0.76 0.75 0.75 0.79 0.85 0.82 0.82 0.84 0.75 0.68 0.65 0.59 0.57 0.54 0.47 0.51 0.52 0.46 0.47 0.38
0.51 0.60 0.59 0.53 0.53 0.63 0.66 0.80 0.83 0.69 0.68 0.59 0.98 1.21 1.11 0.90 1.00 1.09 0.99 0.92 0.85 0.78 0.70 0.46 0.41 0.57 0.58 0.48 0.60 0.65 0.93 0.94 0.86 0.87 0.85 0.84 0.87 0.87 0.85 0.84 0.86 0.75 0.61 0.55 0.53 0.49 0.47 0.44 0.32 0.22 0.29 0.40 0.28 0.24
0.47 0.34 0.30 0.36 0.46 0.63 0.76 0.54 0.40 0.35 0.60 0.89 0.97 1.25 0.94 1.03 0.96 0.94 0.91 0.73 0.55 0.47 0.42 0.41 0.30 0.35 0.58 0.59 0.67 0.72 0.78 0.89 0.94 0.96 1.02 1.08 1.02 0.90 0.80 0.71 0.70 0.57 0.48 0.49 0.42 0.41 0.37 0.29 0.24 0.30 0.23 0.18 0.10 0.09
0.69 0.58 0.45 0.39 0.36 0.36 0.50 0.32 0.14 0.35 0.73 0.83 0.89 0.73 0.64 0.74 0.62 0.62 0.42 0.29 0.17 0.14 0.19 0.25 0.32 0.50 0.71 0.79 0.81 0.77 0.75 0.72 0.78 0.83 0.80 0.84 0.79 0.72 0.66 0.57 0.51 0.49 0.43 0.40 0.32 0.31 0.29 0.24 0.23 0.19 0.16 0.11 0.12 0.14
0.90 0.76 0.59 0.48 0.25 0.22 0.12 0.12 0.03 0.16 0.41 0.48 0.39 0.21 0.16 0.23 0.13 0.06 0.06 0.04 0.04 0.06 0.16 0.34 0.70 0.83 0.78 0.82 0.75 0.74 0.72 0.62 0.47 0.39 0.51 0.60 0.61 0.51 0.57 0.49 0.45 0.40 0.31 0.30 0.27 0.22 0.17 0.15 0.16 0.15 0.14 0.15 0.16 0.17
0.72 0.74 0.61 0.45 0.37 0.19 0.10 0.03 0.06 0.08 0.12 0.21 0.14 0.05 0.09 0.05 0.05 0.05 0.04 0.02 0.07 0.17 0.43 0.62 0.63 0.67 0.47 0.47 0.44 0.43 0.43 0.39 0.40 0.31 0.34 0.42 0.49 0.36 0.37 0.39 0.35 0.33 0.29 0.29 0.25 0.27 0.23 0.25 0.22 0.17 0.16 0.13 0.13 0.11
0.46 0.47 0.50 0.45 0.54 0.28 0.16 0.01 0.02 0.02 0.04 0.12 0.12 0.06 0.08 0.10 0.07 0.05 0.02 0.08 0.32 0.57 0.55 0.40 0.34 0.26 0.19 0.22 0.24 0.21 0.30 0.26 0.31 0.36 0.37 0.29 0.30 0.29 0.33 0.40 0.30 0.32 0.31 0.32 0.27 0.24 0.21 0.17 0.14 0.13 0.11 0.09 0.06 0.07
0.25 0.43 0.43 0.40 0.48 0.27 0.33 0.08 0.06 0.04 0.05 0.11 0.09 0.07 0.07 0.05 0.04 0.02 0.08 0.19 0.48 0.49 0.34 0.19 0.16 0.14 0.14 0.19 0.11 0.09 0.07 0.07 0.12 0.23 0.32 0.31 0.31 0.32 0.31 0.30 0.28 0.26 0.22 0.21 0.18 0.16 0.17 0.12 0.07 0.05 0.04 0.06 0.08 0.06
0.31 0.54 0.55 0.40 0.28 0.29 0.32 0.15 0.08 0.07 0.07 0.09 0.07 0.08 0.07 0.05 0.02 0.03 0.11 0.23 0.40 0.24 0.14 0.16 0.15 0.15 0.13 0.13 0.14 0.18 0.21 0.15 0.17 0.20 0.23 0.19 0.17 0.21 0.16 0.14 0.12 0.12 0.11 0.10 0.07 0.06 0.05 0.05 0.04 0.06 0.07 0.07 0.06 0.08
0.59 0.48 0.42 0.33 0.25 0.14 0.13 0.11 0.10 0.07 0.07 0.05 0.06 0.08 0.06 0.03 0.05 0.06 0.10 0.31 0.26 0.23 0.20 0.17 0.16 0.15 0.17 0.19 0.18 0.17 0.14 0.12 0.10 0.10 0.13 0.11 0.10 0.10 0.07 0.06 0.06 0.07 0.05 0.07 0.07 0.06 0.06 0.06 0.06 0.05 0.04 0.06 0.08 0.09
0.53 0.29 0.22 0.15 0.09 0.11 0.07 0.05 0.04 0.05 0.07 0.13 0.14 0.10 0.05 0.09 0.09 0.16 0.24 0.33 0.28 0.28 0.30 0.30 0.25 0.16 0.14 0.13 0.12 0.11 0.08 0.08 0.05 0.04 0.06 0.02 0.04 0.06 0.06 0.04 0.05 0.08 0.07 0.07 0.09 0.09 0.05 0.05 0.05 0.05 0.07 0.07 0.09 0.12
0.27 0.16 0.07 0.05 0.10 0.15 0.21 0.17 0.15 0.17 0.17 0.20 0.16 0.10 0.13 0.18 0.17 0.30 0.40 0.34 0.28 0.29 0.23 0.20 0.14 0.11 0.12 0.11 0.08 0.07 0.02 0.01 0.01 0.02 0.02 0.03 0.04 0.05 0.07 0.11 0.14 0.13 0.05 0.06 0.08 0.10 0.13 0.11 0.09 0.08 0.09 0.10 0.12 0.17
0.13 0.13 0.16 0.17 0.23 0.24 0.21 0.18 0.20 0.23 0.27 0.22 0.17 0.17 0.18 0.17 0.31 0.43 0.40 0.46 0.30 0.17 0.11 0.08 0.04 0.03 0.03 0.05 0.07 0.06 0.04 0.02 0.01 0.01 0.03 0.08 0.09 0.06 0.04 0.07 0.07 0.04 0.06 0.08 0.09 0.09 0.11 0.13 0.13 0.13 0.13 0.15 0.18 0.22
0.17 0.22 0.24 0.23 0.17 0.11 0.13 0.16 0.17 0.16 0.16 0.12 0.13 0.16 0.16 0.24 0.40 0.39 0.40 0.33 0.19 0.13 0.10 0.11 0.17 0.09 0.07 0.04 0.05 0.05 0.03 0.03 0.02 0.01 0.02 0.06 0.13 0.12 0.05 0.05 0.06 0.05 0.06 0.06 0.06 0.07 0.12 0.15 0.13 0.17 0.20 0.22 0.21 0.18
0.05 0.10 0.13 0.11 0.13 0.16 0.23 0.15 0.16 0.13 0.06 0.04 0.06 0.11 0.17 0.41 0.62 0.43 0.33 0.25 0.21 0.17 0.16 0.14 0.15 0.11 0.09 0.08 0.09 0.13 0.15 0.08 0.06 0.07 0.08 0.07 0.08 0.09 0.07 0.07 0.05 0.05 0.06 0.07 0.05 0.05 0.08 0.07 0.08 0.15 0.11 0.11 0.14 0.13
0.04 0.05 0.07 0.09 0.17 0.24 0.21 0.13 0.12 0.11 0.10 0.09 0.07 0.08 0.23 0.36 0.40 0.34 0.30 0.34 0.16 0.11 0.11 0.11 0.12 0.12 0.09 0.08 0.08 0.08 0.11 0.07 0.04 0.03 0.03 0.04 0.05 0.06 0.06 0.05 0.05 0.06 0.06 0.06 0.06 0.07 0.07 0.07 0.10 0.11 0.07 0.06 0.08 0.08
0.09 0.11 0.09 0.15 0.26 0.23 0.27 0.27 0.17 0.18 0.16 0.10 0.13 0.11 0.16 0.15 0.19 0.24 0.24 0.28 0.21 0.17 0.16 0.14 0.14 0.20 0.18 0.17 0.15 0.11 0.07 0.06 0.04 0.03 0.04 0.05 0.05 0.04 0.03 0.02 0.04 0.06 0.06 0.06 0.06 0.08 0.09 0.09 0.09 0.08 0.09 0.07 0.07 0.06
0.08 0.09 0.10 0.10 0.14 0.17 0.19 0.19 0.12 0.11 0.12 0.13 0.19 0.20 0.21 0.16 0.18 0.23 0.22 0.23 0.32 0.22 0.17 0.15 0.16 0.16 0.17 0.13 0.10 0.09 0.07 0.05 0.03 0.03 0.03 0.04 0.02 0.02 0.02 0.03 0.05 0.05 0.06 0.07 0.08 0.09 0.08 0.07 0.07 0.07 0.06 0.06 0.05 0.04

GFSWCAN_prec_precacc_132.txt.gz
Total_Precipitation_Accumulation
1.41 1.18 1.14 1.03 1.03 1.19 1.57 1.65 1.25 1.19 1.14 1.20 1.16 1.16 1.12 1.33 1.65 2.33 2.05 1.25 1.61 1.86 0.82 0.48 0.37 0.37 0.20 0.26 0.42 0.41 0.65 0.78 0.70 0.53 0.26 0.15 0.14 0.11 0.30 0.30 0.24 0.22 0.36 0.39 0.53 0.59 0.33 0.12 0.27 0.38 0.37 0.19 0.09 0.11
1.81 1.49 1.13 0.99 1.13 1.21 1.32 1.39 1.12 1.04 1.11 1.13 0.92 0.90 1.10 1.30 1.67 2.33 2.50 1.40 1.52 1.96 1.17 0.61 0.35 0.33 0.21 0.19 0.38 0.51 0.65 0.49 0.42 0.52 0.26 0.23 0.20 0.17 0.18 0.54 0.28 0.53 0.28 0.30 0.26 0.33 0.37 0.33 0.44 0.36 0.19 0.23 0.23 0.16
1.97 1.44 0.98 0.90 1.13 1.22 1.21 1.32 1.07 1.00 1.04 1.06 0.91 0.86 1.05 1.30 1.72 2.48 2.38 1.43 2.86 3.15 1.51 0.71 0.55 0.28 0.24 0.17 0.32 0.65 0.36 0.38 0.63 0.67 0.63 0.46 0.36 0.20 0.25 0.30 0.42 0.62 0.67 0.76 0.86 0.75 0.42 0.51 0.48 0.27 0.27 0.32 0.26 0.16
1.65 1.36 1.03 0.93 1.15 1.23 1.22 1.29 1.11 1.08 0.96 1.07 0.94 0.99 1.24 1.43 1.75 2.45 2.30 1.73 2.65 2.51 1.94 0.96 0.36 0.28 0.21 0.18 0.16 0.26 0.30 0.31 0.45 0.62 0.65 0.62 0.35 0.23 0.35 0.32 0.29 0.40 0.56 0.69 1.18 0.90 0.65 0.59 1.06 0.59 0.30 0.21 0.14 0.07
1.62 1.42 1.13 0.98 1.11 1.24 1.20 1.36 1.13 1.06 1.16 1.12 1.00 1.21 1.59 1.68 1.84 2.30 2.17 1.89 1.69 1.76 1.78 1.09 0.33 0.28 0.37 0.33 0.27 0.28 0.34 0.43 0.67 1.04 0.78 0.32 0.22 0.29 0.30 0.55 0.39 0.16 0.42 0.84 1.07 1.20 1.07 0.99 0.90 0.79 0.56 0.37 0.19 0.10
1.63 1.37 1.11 1.00 1.15 1.14 1.08 1.22 1.00 1.11 1.22 1.15 1.09 1.48 1.56 1.64 2.38 3.50 5.15 3.25 1.62 1.46 1.98 1.39 0.78 0.22 0.38 0.44 0.62 0.41 0.45 0.71 0.95 1.14 0.90 0.40 0.31 0.58 0.45 0.63 0.54 0.55 0.35 0.35 0.62 0.77 1.08 1.00 0.64 0.36 0.27 0.18 0.07 0.05
1.45 1.23 1.13 1.17 1.11 1.01 1.08 1.00 0.93 1.07 1.13 1.21 1.30 1.24 1.44 1.72 2.50 2.52 2.60 1.93 1.14 1.55 2.22 1.46 1.02 0.64 0.49 0.73 0.67 0.74 0.70 1.17 1.15 1.31 1.02 0.55 0.39 0.75 0.77 0.53 0.33 0.25 0.16 0.10 0.13 0.24 0.29 0.20 0.16 0.04 0.02 0.02 0.02 0.01
1.43 1.23 1.18 1.05 0.96 1.00 1.03 0.83 0.94 0.98 1.04 1.25 1.51 1.52 1.84 2.36 2.83 1.72 0.87 0.75 0.93 1.82 1.50 1.51 1.06 1.18 0.63 1.10 0.87 0.75 0.94 1.23 1.27 1.05 0.72 0.48 0.60 1.06 1.07 0.29 0.06 0.02 0.02 0.04 0.06 0.06 0.05 0.04 0.02 0.02 0.02 0.02 0.02 0.02
0.98 0.98 0.91 0.82 0.94 1.07 0.91 0.90 0.99 1.11 1.37 1.56 1.99 2.75 3.91 3.78 2.94 1.89 1.08 1.15 1.27 1.64 1.34 0.84 0.78 1.45 0.93 1.23 1.38 0.92 0.81 1.05 0.91 0.95 0.68 0.69 0.79 1.26 0.82 0.27 0.10 0.03 0.02 0.03 0.02 0.04 0.08 0.10 0.11 0.11 0.10 0.11 0.16 0.28
0.67 0.68 0.69 0.81 0.85 0.77 0.72 0.82 1.09 1.44 1.58 1.99 3.17 3.78 4.09 2.62 1.90 2.15 3.05 3.03 2.54 1.32 0.69 0.55 0.54 1.02 1.31 1.22 1.34 1.58 1.17 0.78 0.75 0.63 0.74 1.13 0.96 0.47 0.14 0.07 0.13 0.16 0.16 0.11 0.07 0.09 0.11 0.14 0.15 0.20 0.27 0.36 0.45 0.44
0.60 0.59 0.66 0.73 0.75 0.79 1.01 1.17 1.01 1.08 2.24 3.25 3.51 3.12 2.96 2.44 1.98 2.48 2.54 2.06 1.56 0.87 0.25 0.29 0.30 0.48 0.93 1.51 1.14 0.97 1.40 1.30 0.77 0.66 0.75 1.05 0.81 0.50 0.17 0.07 0.06 0.08 0.11 0.13 0.15 0.15 0.16 0.20 0.30 0.42 0.43 0.34 0.27 0.29
0.56 0.48 0.40 0.46 0.53 0.65 0.76 0.79 0.93 1.55 2.26 2.21 2.26 2.73 2.83 2.71 2.30 1.79 1.66 0.98 0.58 0.41 0.22 0.26 0.32 0.46 0.97 1.84 1.65 1.04 1.16 1.26 1.27 1.06 1.01 0.81 0.53 0.28 0.27 0.26 0.23 0.20 0.16 0.15 0.17 0.24 0.32 0.40 0.41 0.29 0.24 0.27 0.32 0.37
0.64 0.56 0.48 0.43 0.42 0.47 0.62 1.01 1.31 1.64 1.97 2.20 2.40 2.69 2.38 2.36 2.08 1.54 0.99 0.52 0.49 0.53 0.43 0.31 0.43 0.68 0.72 1.65 1.80 1.27 1.16 1.31 1.19 1.25 1.09 0.77 0.49 0.34 0.33 0.28 0.27 0.26 0.28 0.33 0.40 0.37 0.28 0.27 0.29 0.32 0.42 0.57 0.58 0.64
0.82 0.65 0.57 0.49 0.51 0.67 0.99 1.23 1.72 2.26 2.22 2.36 2.46 2.30 1.89 1.52 1.04 0.87 0.53 0.39 0.47 0.55 0.51 0.37 0.35 0.43 0.66 1.30 2.23 1.73 1.44 0.82 0.99 0.89 0.66 0.67 0.76 0.80 0.63 0.55 0.52 0.59 0.61 0.60 0.64 0.61 0.64 0.66 0.74 0.79 0.78 0.83 0.66 0.74
0.85 0.54 0.48 0.54 0.59 0.73 0.88 1.10 1.53 1.79 1.72 1.40 1.09 1.19 0.95 1.01 0.82 0.71 0.56 0.52 0.65 0.94 0.89 0.88 0.89 0.76 0.83 1.31 1.37 1.07 0.79 0.65 0.55 0.75 0.86 0.92 0.86 0.76 0.60 0.54 0.53 0.58 0.62 0.66 0.71 0.64 0.71 0.73 0.62 0.75 0.81 0.73 0.55 0.57
0.76 0.74 0.62 0.62 0.64 0.65 0.78 1.05 1.33 1.24 0.93 0.57 0.82 1.22 0.99 0.87 0.90 0.81 0.77 0.79 0.87 1.10 1.05 1.00 0.85 0.78 0.94 0.83 0.71 0.76 0.60 0.71 0.84 0.68 0.76 0.75 0.75 0.79 0.85 0.82 0.82 0.84 0.75 0.68 0.65 0.59 0.57 0.54 0.47 0.51 0.52 0.46 0.47 0.38
0.51 0.60 0.59 0.53 0.53 0.63 0.66 0.80 0.83 0.69 0.68 0.59 1.00 1.23 1.14 0.94 1.04 1.11 0.99 0.92 0.85 0.78 0.70 0.46 0.41 0.57 0.58 0.48 0.60 0.65 0.93 0.94 0.86 0.87 0.85 0.84 0.87 0.87 0.85 0.84 0.86 0.75 0.61 0.55 0.53 0.49 0.47 0.44 0.32 0.22 0.29 0.40 0.28 0.24
0.47 0.34 0.30 0.36 0.46 0.63 0.76 0.54 0.40 0.35 0.61 0.90 0.99 1.29 0.97 1.07 0.99 0.94 0.91 0.73 0.55 0.47 0.42 0.41 0.30 0.35 0.58 0.59 0.67 0.72 0.78 0.89 0.94 0.97 1.02 1.08 1.02 0.90 0.80 0.71 0.70 0.57 0.48 0.49 0.42 0.41 0.37 0.29 0.24 0.30 0.23 0.18 0.10 0.09
0.69 0.58 0.45 0.39 0.36 0.36 0.50 0.32 0.14 0.35 0.74 0.85 0.93 0.78 0.66 0.75 0.63 0.62 0.42 0.29 0.17 0.14 0.19 0.25 0.32 0.50 0.72 0.79 0.81 0.77 0.75 0.72 0.79 0.83 0.80 0.84 0.79 0.72 0.66 0.57 0.51 0.49 0.43 0.40 0.32 0.31 0.29 0.24 0.23 0.19 0.16 0.11 0.12 0.14
0.90 0.76 0.59 0.48 0.25 0.22 0.12 0.12 0.03 0.16 0.43 0.51 0.43 0.23 0.17 0.24 0.13 0.06 0.06 0.04 0.04 0.06 0.16 0.34 0.70 0.83 0.78 0.82 0.75 0.74 0.72 0.62 0.47 0.39 0.51 0.61 0.61 0.51 0.57 0.49 0.45 0.40 0.31 0.30 0.27 0.22 0.17 0.15 0.16 0.15 0.14 0.15 0.16 0.17
0.72 0.74 0.61 0.45 0.37 0.19 0.10 0.03 0.06 0.08 0.13 0.23 0.16 0.05 0.10 0.05 0.05 0.05 0.04 0.02 0.07 0.17 0.44 0.62 0.64 0.67 0.47 0.47 0.44 0.43 0.43 0.39 0.40 0.31 0.34 0.43 0.49 0.36 0.37 0.39 0.35 0.33 0.29 0.29 0.25 0.27 0.23 0.25 0.22 0.17 0.16 0.13 0.13 0.11
0.46 0.47 0.50 0.45 0.54 0.28 0.16 0.01 0.02 0.02 0.04 0.13 0.12 0.06 0.08 0.10 0.07 0.05 0.02 0.08 0.33 0.58 0.55 0.40 0.34 0.26 0.19 0.22 0.24 0.21 0.30 0.26 0.31 0.36 0.37 0.30 0.30 0.30 0.33 0.40 0.30 0.32 0.31 0.32 0.27 0.24 0.21 0.17 0.14 0.13 0.11 0.09 0.07 0.07
0.25 0.43 0.43 0.40 0.48 0.27 0.33 0.08 0.06 0.04 0.05 0.11 0.09 0.07 0.07 0.05 0.04 0.02 0.08 0.20 0.51 0.52 0.34 0.19 0.16 0.14 0.14 0.19 0.11 0.09 0.07 0.07 0.12 0.23 0.32 0.31 0.31 0.32 0.31 0.30 0.28 0.26 0.22 0.21 0.18 0.16 0.17 0.12 0.08 0.05 0.04 0.06 0.08 0.06
0.31 0.54 0.55 0.40 0.28 0.29 0.32 0.15 0.08 0.07 0.07 0.09 0.07 0.08 0.07 0.05 0.02 0.03 0.11 0.24 0.42 0.27 0.14 0.16 0.15 0.15 0.13 0.13 0.14 0.18 0.21 0.15 0.17 0.20 0.23 0.19 0.18 0.22 0.16 0.14 0.12 0.12 0.12 0.10 0.07 0.06 0.05 0.05 0.05 0.07 0.07 0.07 0.06 0.08
0.59 0.48 0.42 0.33 0.25 0.14 0.13 0.11 0.10 0.07 0.07 0.05 0.06 0.08 0.06 0.03 0.05 0.06 0.10 0.32 0.27 0.24 0.21 0.18 0.16 0.15 0.17 0.19 0.18 0.17 0.14 0.12 0.10 0.10 0.14 0.11 0.11 0.10 0.08 0.08 0.07 0.08 0.05 0.07 0.08 0.07 0.07 0.07 0.07 0.06 0.05 0.06 0.08 0.09
0.53 0.29 0.22 0.15 0.09 0.11 0.07 0.05 0.04 0.05 0.07 0.13 0.14 0.10 0.05 0.09 0.09 0.16 0.25 0.34 0.28 0.28 0.31 0.31 0.25 0.16 0.14 0.13 0.12 0.11 0.08 0.08 0.05 0.04 0.07 0.02 0.04 0.06 0.06 0.05 0.06 0.10 0.08 0.07 0.09 0.09 0.06 0.05 0.05 0.05 0.07 0.07 0.09 0.12
0.27 0.16 0.07 0.05 0.10 0.15 0.21 0.17 0.15 0.17 0.17 0.20 0.16 0.10 0.13 0.18 0.18 0.31 0.41 0.35 0.29 0.29 0.24 0.21 0.14 0.11 0.12 0.11 0.08 0.07 0.02 0.01 0.01 0.02 0.03 0.03 0.04 0.05 0.07 0.11 0.14 0.13 0.06 0.06 0.08 0.10 0.13 0.11 0.09 0.08 0.09 0.10 0.12 0.17
0.13 0.13 0.16 0.17 0.23 0.24 0.21 0.18 0.20 0.23 0.27 0.22 0.17 0.17 0.18 0.17 0.31 0.43 0.40 0.47 0.30 0.17 0.12 0.09 0.04 0.03 0.03 0.05 0.07 0.06 0.04 0.02 0.01 0.01 0.03 0.09 0.10 0.06 0.04 0.07 0.07 0.04 0.06 0.08 0.09 0.09 0.11 0.13 0.13 0.13 0.13 0.15 0.18 0.22
0.17 0.22 0.24 0.23 0.17 0.11 0.13 0.16 0.17 0.16 0.16 0.12 0.14 0.16 0.16 0.25 0.41 0.39 0.40 0.33 0.19 0.14 0.11 0.11 0.18 0.09 0.07 0.04 0.05 0.05 0.03 0.03 0.02 0.01 0.02 0.07 0.13 0.13 0.07 0.06 0.06 0.05 0.06 0.06 0.06 0.07 0.12 0.15 0.13 0.17 0.20 0.22 0.21 0.18
0.05 0.10 0.13 0.11 0.13 0.16 0.23 0.15 0.16 0.13 0.06 0.04 0.06 0.11 0.17 0.42 0.62 0.44 0.33 0.26 0.22 0.18 0.17 0.14 0.16 0.11 0.10 0.08 0.10 0.14 0.16 0.08 0.06 0.07 0.08 0.07 0.08 0.09 0.08 0.07 0.05 0.05 0.06 0.07 0.06 0.05 0.08 0.07 0.08 0.15 0.11 0.11 0.14 0.13
0.04 0.05 0.07 0.09 0.17 0.25 0.21 0.13 0.12 0.11 0.10 0.09 0.07 0.08 0.24 0.37 0.41 0.35 0.30 0.35 0.17 0.12 0.11 0.12 0.13 0.13 0.10 0.08 0.09 0.08 0.12 0.08 0.04 0.04 0.04 0.04 0.05 0.06 0.06 0.05 0.05 0.06 0.06 0.06 0.06 0.07 0.07 0.07 0.10 0.11 0.07 0.06 0.08 0.08
0.09 0.11 0.09 0.15 0.27 0.23 0.27 0.27 0.17 0.18 0.16 0.11 0.14 0.11 0.17 0.15 0.19 0.25 0.25 0.29 0.22 0.18 0.17 0.16 0.15 0.22 0.19 0.17 0.15 0.12 0.08 0.06 0.05 0.04 0.04 0.05 0.05 0.04 0.03 0.02 0.04 0.06 0.06 0.06 0.06 0.08 0.09 0.09 0.09 0.08 0.09 0.07 0.07 0.06
0.09 0.09 0.10 0.10 0.14 0.18 0.20 0.19 0.13 0.12 0.13 0.14 0.20 0.21 0.23 0.16 0.18 0.23 0.23 0.24 0.33 0.23 0.19 0.16 0.17 0.17 0.18 0.15 0.12 0.11 0.08 0.07 0.05 0.05 0.04 0.04 0.03 0.02 0.02 0.03 0.05 0.05 0.06 0.07 0.08 0.09 0.08 0.07 0.07 0.07 0.06 0.06 0.05 0.04

GFSWCAN_prec_precacc_138.txt.gz
Total_Precipitation_Accumulation
1.44 1.21 1.17 1.06 1.07 1.22 1.59 1.67 1.26 1.20 1.16 1.23 1.20 1.22 1.17 1.36 1.69 2.38 2.06 1.25 1.88 2.19 0.84 0.48 0.37 0.37 0.20 0.26 0.42 0.41 0.67 0.79 0.71 0.56 0.29 0.17 0.14 0.11 0.30 0.30 0.24 0.22 0.37 0.40 0.55 0.65 0.35 0.12 0.27 0.38 0.37 0.19 0.09 0.11
1.84 1.53 1.16 1.01 1.15 1.23 1.35 1.41 1.14 1.05 1.12 1.15 0.95 0.94 1.18 1.34 1.72 2.40 2.52 1.40 1.53 2.19 1.32 0.63 0.35 0.33 0.21 0.19 0.39 0.52 0.66 0.49 0.45 0.53 0.26 0.24 0.21 0.17 0.18 0.54 0.29 0.54 0.28 0.30 0.27 0.33 0.37 0.33 0.44 0.36 0.19 0.23 0.23 0.16
1.99 1.47 1.02 0.93 1.15 1.24 1.23 1.34 1.08 1.01 1.05 1.08 0.94 0.90 1.10 1.37 1.78 2.62 2.45 1.44 2.89 3.22 1.62 0.74 0.57 0.28 0.24 0.17 0.33 0.66 0.37 0.40 0.64 0.72 0.68 0.49 0.37 0.20 0.25 0.30 0.42 0.67 0.69 0.79 0.90 0.76 0.42 0.51 0.48 0.27 0.27 0.32 0.26 0.16
1.67 1.39 1.05 0.96 1.19 1.25 1.24 1.31 1.13 1.09 0.97 1.09 0.96 1.02 1.30 1.50 1.84 2.62 2.48 1.75 2.67 2.56 2.02 0.99 0.36 0.28 0.22 0.18 0.16 0.26 0.30 0.32 0.46 0.65 0.73 0.70 0.37 0.23 0.35 0.32 0.30 0.44 0.63 0.74 1.21 0.90 0.65 0.59 1.06 0.59 0.30 0.21 0.14 0.07
1.64 1.44 1.16 1.00 1.14 1.27 1.23 1.39 1.15 1.08 1.18 1.14 1.03 1.25 1.64 1.75 1.93 2.54 2.41 1.93 1.72 1.79 1.83 1.11 0.33 0.28 0.37 0.33 0.27 0.28 0.35 0.44 0.71 1.12 0.87 0.36 0.22 0.30 0.31 0.57 0.41 0.17 0.43 0.87 1.09 1.21 1.08 0.99 0.90 0.79 0.56 0.37 0.19 0.10
1.65 1.39 1.14 1.03 1.17 1.16 1.10 1.24 1.03 1.13 1.25 1.18 1.11 1.51 1.61 1.70 2.54 3.88 5.56 3.35 1.63 1.50 2.03 1.52 0.83 0.22 0.38 0.44 0.62 0.42 0.46 0.74 1.04 1.25 0.96 0.42 0.32 0.61 0.52 0.64 0.54 0.55 0.35 0.36 0.62 0.77 1.08 1.00 0.64 0.36 0.27 0.18 0.07 0.05
1.46 1.24 1.15 1.18 1.12 1.03 1.12 1.08 1.04 1.16 1.18 1.25 1.34 1.26 1.48 1.78 2.67 2.74 2.76 1.98 1.14 1.61 2.40 1.55 1.05 0.64 0.49 0.76 0.74 0.77 0.71 1.20 1.22 1.41 1.10 0.57 0.39 0.77 0.82 0.53 0.33 0.25 0.16 0.10 0.13 0.24 0.29 0.20 0.16 0.04 0.02 0.02 0.02 0.02
1.43 1.24 1.19 1.07 1.02 1.21 1.28 1.15 1.28 1.24 1.15 1.30 1.56 1.55 1.88 2.44 2.96 1.80 0.93 0.78 0.93 1.87 1.69 1.69 1.11 1.21 0.68 1.15 0.96 0.80 0.97 1.27 1.35 1.14 0.78 0.50 0.61 1.10 1.11 0.29 0.06 0.02 0.02 0.04 0.06 0.06 0.05 0.04 0.02 0.02 0.02 0.02 0.02 0.02
0.99 0.99 0.94 0.90 1.20 1.42 1.30 1.47 1.59 1.41 1.55 1.64 2.08 2.87 4.08 4.02 3.17 1.97 1.12 1.28 1.30 1.72 1.52 0.94 0.88 1.49 0.98 1.27 1.41 0.99 0.87 1.14 0.97 1.01 0.70 0.70 0.80 1.27 0.82 0.27 0.10 0.03 0.02 0.03 0.02 0.04 0.08 0.10 0.11 0.11 0.11 0.11 0.16 0.28
0.74 0.78 0.94 1.30 1.41 1.25 1.19 1.34 1.54 1.71 1.77 2.22 3.53 4.44 4.87 2.97 2.01 2.20 3.28 3.73 3.04 1.46 0.82 0.59 0.55 1.04 1.34 1.25 1.39 1.66 1.25 0.83 0.78 0.63 0.74 1.13 0.96 0.47 0.14 0.07 0.13 0.16 0.16 0.11 0.07 0.09 0.11 0.14 0.15 0.20 0.27 0.36 0.45 0.44
0.79 0.87 1.06 1.18 1.22 1.19 1.38 1.51 1.27 1.32 2.61 3.99 4.33 3.69 3.21 2.56 2.17 2.78 3.13 2.90 2.01 1.06 0.36 0.31 0.30 0.48 0.94 1.56 1.16 1.00 1.44 1.34 0.78 0.66 0.75 1.05 0.81 0.50 0.17 0.07 0.06 0.08 0.11 0.13 0.15 0.15 0.16 0.20 0.30 0.42 0.43 0.34 0.27 0.29
0.80 0.75 0.68 0.72 0.75 0.84 0.92 0.98 1.12 1.96 2.84 2.64 2.51 2.97 3.02 2.97 2.59 2.05 1.94 1.30 0.84 0.47 0.27 0.27 0.32 0.46 0.97 1.90 1.69 1.08 1.18 1.26 1.27 1.06 1.01 0.81 0.53 0.28 0.27 0.26 0.23 0.20 0.16 0.15 0.17 0.24 0.32 0.40 0.41 0.29 0.24 0.27 0.32 0.37
0.81 0.73 0.60 0.49 0.46 0.52 0.73 1.15 1.51 1.82 2.04 2.24 2.46 2.83 2.55 2.56 2.21 1.66 1.08 0.60 0.63 0.54 0.43 0.31 0.43 0.69 0.73 1.66 1.82 1.29 1.17 1.31 1.19 1.25 1.09 0.77 0.49 0.34 0.33 0.28 0.27 0.26 0.28 0.33 0.40 0.37 0.28 0.27 0.29 0.32 0.42 0.57 0.58 0.64
0.90 0.71 0.64 0.53 0.54 0.74 1.09 1.32 1.75 2.26 2.22 2.38 2.51 2.35 1.94 1.56 1.05 0.89 0.53 0.39 0.47 0.55 0.51 0.37 0.35 0.43 0.66 1.30 2.24 1.73 1.44 0.82 1.00 0.89 0.66 0.67 0.76 0.80 0.63 0.55 0.52 0.59 0.61 0.60 0.64 0.61 0.64 0.66 0.74 0.79 0.78 0.83 0.66 0.74
0.87 0.55 0.49 0.55 0.60 0.74 0.89 1.10 1.53 1.79 1.72 1.40 1.10 1.19 0.96 1.02 0.83 0.71 0.56 0.52 0.65 0.94 0.89 0.88 0.89 0.76 0.83 1.32 1.37 1.07 0.79 0.65 0.55 0.75 0.86 0.92 0.86 0.76 0.60 0.54 0.53 0.58 0.62 0.66 0.71 0.64 0.71 0.73 0.62 0.75 0.81 0.73 0.55 0.57
0.76 0.74 0.62 0.62 0.65 0.66 0.78 1.05 1.33 1.24 0.93 0.57 0.83 1.24 1.01 0.88 0.90 0.81 0.77 0.79 0.87 1.10 1.05 1.00 0.86 0.81 0.96 0.84 0.71 0.76 0.60 0.71 0.84 0.68 0.76 0.75 0.75 0.79 0.85 0.82 0.82 0.84 0.75 0.68 0.65 0.59 0.57 0.54 0.47 0.51 0.52 0.46 0.47 0.38
0.51 0.60 0.59 0.53 0.53 0.63 0.66 0.80 0.83 0.69 0.68 0.60 1.02 1.26 1.16 0.95 1.05 1.11 0.99 0.92 0.85 0.78 0.70 0.46 0.41 0.57 0.58 0.48 0.60 0.65 0.93 0.94 0.86 0.87 0.85 0.84 0.87 0.87 0.85 0.84 0.86 0.75 0.61 0.55 0.53 0.49 0.47 0.44 0.32 0.22 0.29 0.40 0.28 0.24
0.47 0.34 0.30 0.36 0.46 0.63 0.76 0.54 0.40 0.35 0.62 0.93 1.06 1.35 1.01 1.11 1.01 0.95 0.91 0.73 0.55 0.47 0.42 0.41 0.30 0.35 0.58 0.59 0.67 0.72 0.78 0.90 0.94 0.97 1.02 1.08 1.02 0.90 0.80 0.71 0.70 0.57 0.48 0.49 0.42 0.41 0.37 0.29 0.24 0.30 0.23 0.18 0.10 0.09
0.69 0.58 0.45 0.39 0.36 0.36 0.50 0.32 0.14 0.36 0.79 0.94 1.05 0.85 0.73 0.83 0.65 0.62 0.42 0.29 0.17 0.14 0.19 0.25 0.32 0.50 0.72 0.79 0.81 0.77 0.76 0.72 0.79 0.83 0.80 0.84 0.79 0.72 0.66 0.57 0.51 0.49 0.43 0.40 0.32 0.31 0.30 0.24 0.23 0.19 0.16 0.11 0.12 0.14
0.90 0.76 0.59 0.48 0.25 0.22 0.12 0.12 0.03 0.17 0.49 0.66 0.56 0.27 0.22 0.29 0.15 0.06 0.06 0.04 0.04 0.06 0.16 0.34 0.71 0.83 0.78 0.82 0.75 0.74 0.72 0.62 0.47 0.40 0.52 0.61 0.61 0.51 0.57 0.49 0.45 0.40 0.31 0.30 0.27 0.22 0.17 0.15 0.16 0.15 0.14 0.15 0.16 0.17
0.72 0.74 0.61 0.45 0.37 0.19 0.10 0.03 0.06 0.09 0.19 0.38 0.25 0.07 0.13 0.05 0.05 0.05 0.04 0.02 0.07 0.18 0.45 0.63 0.64 0.68 0.47 0.47 0.44 0.43 0.43 0.39 0.40 0.31 0.34 0.44 0.50 0.36 0.37 0.39 0.35 0.33 0.29 0.30 0.26 0.27 0.23 0.25 0.22 0.17 0.16 0.13 0.13 0.11
0.46 0.47 0.50 0.45 0.54 0.28 0.16 0.01 0.02 0.02 0.05 0.16 0.12 0.07 0.09 0.10 0.07 0.05 0.02 0.08 0.34 0.60 0.56 0.41 0.34 0.27 0.19 0.22 0.24 0.21 0.30 0.26 0.31 0.36 0.37 0.30 0.31 0.30 0.34 0.40 0.30 0.32 0.31 0.32 0.27 0.24 0.21 0.17 0.14 0.13 0.11 0.09 0.07 0.08
0.25 0.43 0.43 0.40 0.48 0.27 0.33 0.08 0.06 0.04 0.05 0.11 0.09 0.07 0.07 0.05 0.04 0.02 0.08 0.21 0.54 0.55 0.35 0.19 0.16 0.14 0.14 0.19 0.11 0.09 0.07 0.07 0.12 0.23 0.32 0.31 0.31 0.33 0.31 0.30 0.28 0.26 0.22 0.21 0.18 0.16 0.17 0.12 0.08 0.05 0.05 0.07 0.09 0.08
0.31 0.54 0.55 0.40 0.28 0.29 0.32 0.15 0.08 0.07 0.07 0.09 0.07 0.08 0.07 0.05 0.02 0.03 0.12 0.25 0.46 0.32 0.15 0.16 0.15 0.15 0.13 0.13 0.14 0.18 0.21 0.15 0.17 0.20 0.23 0.19 0.18 0.22 0.16 0.14 0.12 0.12 0.12 0.10 0.07 0.06 0.05 0.05 0.05 0.07 0.08 0.08 0.08 0.09
0.59 0.48 0.42 0.33 0.25 0.14 0.13 0.11 0.10 0.07 0.07 0.05 0.06 0.08 0.06 0.03 0.05 0.07 0.11 0.34 0.29 0.27 0.23 0.18 0.16 0.15 0.17 0.19 0.18 0.17 0.14 0.12 0.10 0.11 0.15 0.11 0.11 0.11 0.09 0.08 0.08 0.08 0.05 0.07 0.08 0.07 0.07 0.08 0.08 0.08 0.07 0.09 0.10 0.11
0.53 0.29 0.22 0.15 0.09 0.11 0.07 0.05 0.04 0.05 0.07 0.13 0.14 0.10 0.05 0.09 0.09 0.17 0.26 0.36 0.29 0.29 0.33 0.32 0.26 0.16 0.14 0.13 0.12 0.11 0.08 0.08 0.05 0.04 0.08 0.03 0.04 0.06 0.06 0.05 0.06 0.12 0.09 0.08 0.09 0.10 0.07 0.07 0.07 0.07 0.10 0.10 0.10 0.13
0.27 0.16 0.07 0.05 0.10 0.15 0.21 0.17 0.15 0.17 0.17 0.20 0.16 0.10 0.13 0.19 0.18 0.31 0.42 0.37 0.30 0.31 0.26 0.24 0.16 0.11 0.12 0.11 0.08 0.07 0.03 0.01 0.01 0.02 0.03 0.03 0.04 0.05 0.07 0.11 0.14 0.13 0.06 0.07 0.10 0.11 0.14 0.13 0.11 0.09 0.11 0.11 0.13 0.18
0.13 0.13 0.16 0.17 0.23 0.24 0.21 0.18 0.20 0.24 0.28 0.23 0.18 0.17 0.18 0.18 0.32 0.45 0.41 0.48 0.31 0.18 0.13 0.12 0.06 0.03 0.03 0.05 0.07 0.07 0.05 0.02 0.01 0.01 0.03 0.09 0.11 0.07 0.05 0.07 0.07 0.05 0.07 0.09 0.10 0.10 0.11 0.14 0.14 0.14 0.14 0.16 0.18 0.22
0.17 0.22 0.24 0.23 0.17 0.11 0.14 0.16 0.18 0.18 0.18 0.13 0.14 0.16 0.17 0.26 0.43 0.41 0.41 0.34 0.21 0.14 0.12 0.13 0.20 0.10 0.07 0.05 0.05 0.06 0.05 0.04 0.02 0.02 0.03 0.07 0.14 0.15 0.08 0.07 0.07 0.05 0.06 0.06 0.07 0.07 0.12 0.15 0.13 0.17 0.20 0.22 0.21 0.18
0.05 0.10 0.13 0.11 0.13 0.16 0.24 0.16 0.17 0.14 0.06 0.05 0.06 0.12 0.18 0.43 0.64 0.46 0.34 0.26 0.23 0.20 0.18 0.15 0.17 0.11 0.10 0.08 0.10 0.16 0.18 0.09 0.06 0.07 0.08 0.07 0.08 0.09 0.09 0.08 0.06 0.06 0.07 0.07 0.06 0.05 0.08 0.07 0.08 0.15 0.11 0.11 0.14 0.13
0.04 0.05 0.07 0.09 0.18 0.25 0.21 0.14 0.13 0.11 0.10 0.09 0.07 0.09 0.24 0.38 0.42 0.36 0.31 0.36 0.18 0.14 0.14 0.13 0.14 0.14 0.10 0.09 0.09 0.09 0.13 0.09 0.05 0.04 0.04 0.04 0.05 0.06 0.07 0.06 0.07 0.07 0.07 0.06 0.06 0.07 0.07 0.07 0.10 0.11 0.07 0.06 0.08 0.08
0.09 0.11 0.09 0.16 0.27 0.23 0.27 0.27 0.17 0.18 0.16 0.11 0.14 0.11 0.17 0.15 0.19 0.25 0.25 0.29 0.22 0.19 0.19 0.17 0.16 0.23 0.20 0.17 0.15 0.12 0.08 0.07 0.06 0.05 0.05 0.06 0.06 0.05 0.04 0.03 0.05 0.06 0.06 0.06 0.06 0.08 0.09 0.09 0.09 0.08 0.09 0.07 0.07 0.06
0.09 0.09 0.10 0.10 0.15 0.18 0.20 0.19 0.13 0.12 0.13 0.15 0.21 0.23 0.24 0.17 0.19 0.24 0.24 0.25 0.33 0.23 0.20 0.18 0.19 0.19 0.21 0.17 0.14 0.13 0.09 0.08 0.07 0.08 0.07 0.06 0.04 0.03 0.03 0.04 0.05 0.05 0.06 0.07 0.08 0.09 0.08 0.07 0.07 0.07 0.06 0.06 0.05 0.04

GFSWCAN_prec_precacc_144.txt.gz
Total_Precipitation_Accumulation
1.47 1.24 1.21 1.12 1.23 1.56 2.28 2.09 1.32 1.24 1.26 1.32 1.31 1.30 1.26 1.41 1.78 2.50 2.11 1.26 1.93 2.35 0.90 0.48 0.37 0.37 0.20 0.26 0.42 0.41 0.67 0.79 0.71 0.57 0.30 0.17 0.14 0.11 0.30 0.30 0.24 0.22 0.37 0.41 0.56 0.68 0.36 0.12 0.27 0.38 0.39 0.19 0.09 0.11
1.86 1.54 1.20 1.06 1.28 1.47 1.76 1.98 1.28 1.09 1.18 1.23 1.05 1.04 1.26 1.40 1.77 2.52 2.69 1.41 1.54 2.23 1.42 0.64 0.35 0.33 0.21 0.19 0.39 0.52 0.67 0.50 0.45 0.54 0.27 0.24 0.21 0.17 0.18 0.54 0.29 0.54 0.28 0.30 0.27 0.33 0.37 0.33 0.44 0.36 0.19 0.23 0.23 0.16
2.02 1.49 1.04 0.94 1.22 1.44 1.54 1.71 1.27 1.07 1.08 1.09 0.97 0.98 1.17 1.40 1.80 2.66 2.60 1.52 2.90 3.25 1.66 0.76 0.57 0.28 0.24 0.17 0.33 0.67 0.38 0.41 0.66 0.75 0.81 0.59 0.42 0.22 0.26 0.31 0.42 0.67 0.69 0.79 0.91 0.76 0.42 0.51 0.48 0.27 0.27 0.32 0.26 0.16
1.69 1.41 1.07 0.98 1.22 1.36 1.45 1.48 1.26 1.15 0.99 1.10 0.97 1.04 1.32 1.52 1.86 2.65 2.64 1.87 2.70 2.59 2.04 1.00 0.36 0.29 0.22 0.18 0.16 0.26 0.31 0.33 0.48 0.67 0.77 0.74 0.40 0.24 0.36 0.33 0.30 0.44 0.63 0.74 1.21 0.90 0.65 0.59 1.06 0.59 0.30 0.21 0.14 0.07
1.66 1.47 1.18 1.02 1.16 1.30 1.33 1.49 1.22 1.13 1.21 1.15 1.03 1.25 1.65 1.77 1.96 2.62 2.58 2.05 1.75 1.83 1.91 1.12 0.33 0.28 0.37 0.33 0.27 0.28 0.35 0.47 0.75 1.16 0.91 0.38 0.24 0.31 0.33 0.58 0.41 0.17 0.43 0.87 1.10 1.21 1.08 0.99 0.90 0.79 0.56 0.37 0.19 0.10
1.67 1.41 1.15 1.05 1.19 1.17 1.13 1.29 1.07 1.17 1.26 1.19 1.12 1.52 1.62 1.72 2.58 3.99 5.95 3.61 1.73 1.63 2.18 1.55 0.83 0.22 0.38 0.44 0.62 0.42 0.46 0.76 1.09 1.31 1.00 0.45 0.32 0.63 0.57 0.65 0.54 0.55 0.35 0.36 0.62 0.77 1.08 1.00 0.64 0.36 0.27 0.18 0.07 0.05
1.49 1.26 1.17 1.21 1.14 1.05 1.15 1.12 1.07 1.18 1.20 1.27 1.35 1.28 1.51 1.82 2.74 2.94 2.95 2.07 1.19 1.72 2.55 1.59 1.05 0.64 0.50 0.77 0.74 0.77 0.72 1.21 1.24 1.44 1.12 0.58 0.41 0.83 0.88 0.54 0.33 0.25 0.16 0.10 0.13 0.24 0.29 0.20 0.16 0.04 0.02 0.02 0.02 0.02
1.45 1.25 1.21 1.09 1.05 1.22 1.31 1.19 1.31 1.26 1.17 1.33 1.59 1.59 1.95 2.55 3.05 2.07 1.04 0.81 0.95 1.93 1.76 1.72 1.11 1.21 0.69 1.16 0.98 0.82 0.99 1.30 1.37 1.15 0.79 0.51 0.63 1.16 1.17 0.29 0.06 0.02 0.02 0.04 0.06 0.06 0.05 0.04 0.02 0.02 0.02 0.02 0.02 0.02
1.00 1.01 0.96 0.92 1.21 1.43 1.31 1.51 1.64 1.45 1.59 1.69 2.18 2.99 4.26 4.25 3.39 2.28 1.23 1.38 1.37 1.74 1.55 0.95 0.89 1.49 0.99 1.28 1.43 1.05 0.98 1.25 1.02 1.05 0.71 0.72 0.83 1.30 0.83 0.27 0.10 0.03 0.02 0.03 0.02 0.04 0.08 0.10 0.11 0.11 0.11 0.11 0.16 0.28
0.74 0.80 0.96 1.32 1.44 1.27 1.20 1.36 1.59 1.75 1.83 2.35 3.78 4.65 5.13 3.14 2.05 2.46 3.64 4.04 3.28 1.54 0.83 0.59 0.56 1.06 1.36 1.27 1.41 1.68 1.30 0.89 0.88 0.66 0.77 1.19 0.98 0.47 0.14 0.07 0.13 0.16 0.16 0.11 0.07 0.09 0.11 0.14 0.15 0.20 0.27 0.36 0.45 0.44
0.84 0.92 1.11 1.22 1.25 1.23 1.41 1.54 1.32 1.41 2.77 4.30 4.82 3.78 3.28 2.59 2.24 3.07 3.40 3.03 2.11 1.21 0.37 0.31 0.30 0.49 0.94 1.59 1.21 1.06 1.54 1.42 0.83 0.68 0.78 1.08 0.81 0.50 0.17 0.07 0.06 0.08 0.11 0.13 0.15 0.15 0.16 0.20 0.30 0.42 0.43 0.34 0.27 0.29
1.11 1.01 0.91 0.89 0.85 0.89 0.96 1.02 1.20 2.12 3.12 2.85 2.58 3.02 3.08 3.01 2.71 2.21 2.02 1.32 0.85 0.49 0.28 0.27 0.32 0.47 0.98 1.93 1.79 1.19 1.25 1.34 1.33 1.08 1.06 0.82 0.53 0.28 0.27 0.26 0.23 0.20 0.16 0.15 0.17 0.24 0.32 0.40 0.41 0.29 0.24 0.27 0.32 0.37
1.04 0.91 0.73 0.62 0.61 0.64 0.79 1.22 1.58 1.89 2.08 2.30 2.52 2.88 2.57 2.57 2.26 1.70 1.10 0.61 0.65 0.55 0.43 0.31 0.43 0.70 0.74 1.68 1.92 1.50 1.36 1.40 1.21 1.25 1.09 0.77 0.49 0.34 0.33 0.28 0.27 0.26 0.28 0.33 0.40 0.37 0.28 0.27 0.29 0.32 0.42 0.57 0.58 0.64
0.98 0.78 0.73 0.70 0.81 0.93 1.19 1.40 1.79 2.30 2.23 2.41 2.60 2.39 1.95 1.57 1.06 0.89 0.53 0.39 0.47 0.55 0.51 0.37 0.35 0.45 0.68 1.32 2.26 1.78 1.50 0.87 1.03 0.90 0.66 0.67 0.76 0.80 0.63 0.55 0.52 0.59 0.61 0.60 0.64 0.61 0.64 0.66 0.74 0.79 0.78 0.83 0.66 0.74
0.93 0.63 0.68 0.79 0.78 0.84 0.94 1.12 1.54 1.79 1.74 1.43 1.16 1.20 0.96 1.02 0.83 0.71 0.56 0.52 0.65 0.94 0.89 0.89 0.94 0.80 0.86 1.36 1.37 1.09 0.79 0.65 0.55 0.75 0.86 0.92 0.86 0.76 0.60 0.54 0.53 0.58 0.62 0.66 0.71 0.64 0.71 0.73 0.62 0.75 0.81 0.73 0.55 0.57
0.79 0.80 0.68 0.66 0.68 0.68 0.79 1.06 1.36 1.27 0.98 0.61 0.87 1.24 1.01 0.88 0.90 0.81 0.77 0.79 0.87 1.10 1.06 1.02 0.92 0.85 0.99 0.85 0.72 0.76 0.60 0.71 0.84 0.68 0.76 0.75 0.75 0.79 0.85 0.82 0.82 0.84 0.75 0.68 0.65 0.59 0.57 0.54 0.47 0.51 0.52 0.46 0.47 0.38
0.52 0.62 0.61 0.55 0.54 0.65 0.68 0.83 0.88 0.74 0.80 0.67 1.06 1.26 1.16 0.95 1.05 1.11 0.99 0.92 0.85 0.78 0.70 0.47 0.43 0.58 0.58 0.48 0.60 0.65 0.93 0.94 0.86 0.87 0.85 0.84 0.87 0.87 0.85 0.84 0.86 0.75 0.61 0.55 0.53 0.49 0.47 0.44 0.32 0.22 0.29 0.40 0.28 0.24
0.47 0.36 0.31 0.37 0.48 0.67 0.80 0.57 0.46 0.41 0.72 1.04 1.14 1.37 1.02 1.11 1.01 0.95 0.91 0.73 0.55 0.47 0.42 0.41 0.31 0.35 0.59 0.59 0.67 0.72 0.78 0.90 0.95 0.97 1.02 1.08 1.02 0.90 0.80 0.71 0.70 0.57 0.48 0.49 0.42 0.41 0.37 0.29 0.24 0.30 0.23 0.18 0.10 0.09
0.70 0.58 0.45 0.40 0.37 0.38 0.55 0.37 0.20 0.47 0.83 0.98 1.09 0.88 0.75 0.84 0.65 0.62 0.42 0.30 0.19 0.16 0.20 0.26 0.33 0.51 0.72 0.79 0.81 0.77 0.76 0.72 0.80 0.84 0.81 0.84 0.79 0.72 0.66 0.57 0.51 0.49 0.43 0.40 0.32 0.31 0.30 0.24 0.23 0.19 0.16 0.11 0.12 0.14
0.90 0.76 0.59 0.48 0.26 0.23 0.18 0.24 0.08 0.25 0.56 0.72 0.60 0.31 0.25 0.34 0.18 0.08 0.09 0.07 0.11 0.14 0.22 0.36 0.71 0.83 0.78 0.82 0.75 0.74 0.72 0.62 0.48 0.41 0.54 0.63 0.61 0.51 0.57 0.49 0.45 0.40 0.31 0.30 0.27 0.23 0.17 0.16 0.16 0.15 0.14 0.15 0.16 0.17
0.73 0.74 0.62 0.45 0.39 0.22 0.18 0.13 0.15 0.15 0.31 0.52 0.37 0.12 0.19 0.11 0.14 0.15 0.20 0.15 0.19 0.27 0.47 0.64 0.65 0.68 0.47 0.47 0.44 0.43 0.43 0.40 0.41 0.32 0.35 0.44 0.50 0.36 0.37 0.39 0.35 0.33 0.29 0.30 0.26 0.28 0.24 0.25 0.22 0.17 0.16 0.14 0.13 0.11
0.46 0.47 0.50 0.47 0.58 0.30 0.18 0.05 0.08 0.06 0.13 0.30 0.21 0.12 0.18 0.20 0.17 0.12 0.10 0.14 0.38 0.62 0.57 0.41 0.34 0.27 0.19 0.22 0.24 0.21 0.30 0.26 0.31 0.37 0.38 0.30 0.31 0.30 0.34 0.40 0.30 0.32 0.31 0.33 0.28 0.25 0.22 0.17 0.14 0.13 0.11 0.09 0.07 0.08
0.25 0.43 0.44 0.41 0.49 0.28 0.35 0.09 0.10 0.08 0.15 0.18 0.13 0.12 0.11 0.10 0.09 0.03 0.11 0.22 0.55 0.56 0.35 0.19 0.16 0.14 0.14 0.19 0.11 0.09 0.07 0.07 0.12 0.23 0.32 0.32 0.31 0.33 0.31 0.31 0.28 0.26 0.23 0.21 0.18 0.16 0.17 0.12 0.08 0.05 0.05 0.07 0.09 0.08
0.31 0.54 0.55 0.40 0.28 0.29 0.32 0.15 0.08 0.08 0.10 0.10 0.08 0.11 0.09 0.06 0.02 0.03 0.12 0.26 0.47 0.33 0.15 0.16 0.15 0.15 0.13 0.13 0.14 0.18 0.21 0.15 0.17 0.21 0.24 0.19 0.19 0.24 0.17 0.14 0.12 0.13 0.12 0.10 0.07 0.06 0.06 0.05 0.05 0.07 0.08 0.08 0.08 0.09
0.59 0.48 0.42 0.33 0.25 0.14 0.13 0.11 0.10 0.07 0.08 0.06 0.07 0.09 0.07 0.03 0.05 0.07 0.11 0.34 0.31 0.29 0.25 0.18 0.16 0.15 0.17 0.19 0.19 0.17 0.14 0.12 0.10 0.11 0.16 0.11 0.11 0.12 0.10 0.09 0.08 0.08 0.05 0.07 0.08 0.07 0.08 0.08 0.09 0.08 0.07 0.09 0.11 0.12
0.53 0.29 0.22 0.15 0.10 0.11 0.07 0.05 0.04 0.05 0.07 0.13 0.14 0.10 0.05 0.09 0.09 0.17 0.26 0.37 0.31 0.31 0.35 0.33 0.26 0.16 0.14 0.13 0.12 0.11 0.08 0.08 0.05 0.04 0.09 0.04 0.04 0.06 0.06 0.05 0.07 0.12 0.09 0.08 0.09 0.10 0.07 0.07 0.08 0.08 0.11 0.11 0.12 0.15
0.28 0.16 0.07 0.05 0.10 0.15 0.21 0.17 0.15 0.17 0.17 0.20 0.16 0.10 0.13 0.19 0.18 0.32 0.43 0.38 0.32 0.32 0.27 0.25 0.17 0.12 0.12 0.11 0.08 0.07 0.03 0.02 0.01 0.02 0.04 0.04 0.05 0.05 0.07 0.11 0.14 0.13 0.06 0.07 0.10 0.11 0.14 0.13 0.12 0.10 0.11 0.13 0.15 0.19
0.13 0.13 0.16 0.17 0.23 0.24 0.21 0.18 0.21 0.25 0.29 0.23 0.18 0.17 0.18 0.18 0.32 0.46 0.43 0.49 0.32 0.18 0.14 0.13 0.09 0.05 0.04 0.05 0.08 0.07 0.06 0.03 0.01 0.02 0.04 0.10 0.12 0.07 0.05 0.07 0.07 0.05 0.07 0.09 0.10 0.10 0.12 0.14 0.14 0.14 0.14 0.16 0.19 0.23
0.17 0.22 0.24 0.23 0.17 0.11 0.14 0.17 0.18 0.19 0.19 0.14 0.14 0.16 0.17 0.26 0.43 0.42 0.42 0.35 0.21 0.14 0.13 0.15 0.23 0.12 0.08 0.05 0.06 0.07 0.06 0.04 0.02 0.02 0.03 0.08 0.15 0.15 0.09 0.07 0.08 0.06 0.06 0.07 0.08 0.08 0.12 0.15 0.13 0.17 0.20 0.23 0.22 0.19
0.05 0.10 0.13 0.11 0.13 0.17 0.25 0.17 0.19 0.15 0.07 0.05 0.06 0.12 0.18 0.43 0.64 0.46 0.35 0.27 0.24 0.20 0.19 0.17 0.18 0.12 0.10 0.09 0.11 0.17 0.20 0.11 0.06 0.08 0.08 0.07 0.08 0.10 0.09 0.09 0.07 0.07 0.07 0.07 0.07 0.07 0.09 0.08 0.09 0.16 0.11 0.11 0.14 0.13
0.04 0.05 0.07 0.09 0.18 0.26 0.22 0.14 0.13 0.11 0.11 0.09 0.07 0.09 0.24 0.38 0.43 0.36 0.31 0.36 0.18 0.15 0.15 0.15 0.15 0.14 0.10 0.09 0.09 0.10 0.14 0.09 0.05 0.04 0.04 0.04 0.05 0.07 0.08 0.07 0.07 0.07 0.07 0.06 0.06 0.07 0.07 0.07 0.10 0.12 0.07 0.06 0.08 0.08
0.09 0.11 0.10 0.16 0.28 0.24 0.28 0.28 0.17 0.19 0.16 0.11 0.14 0.12 0.18 0.16 0.20 0.25 0.26 0.29 0.22 0.20 0.20 0.18 0.18 0.24 0.20 0.18 0.15 0.12 0.08 0.07 0.06 0.05 0.05 0.06 0.06 0.05 0.04 0.04 0.05 0.07 0.06 0.06 0.06 0.08 0.09 0.09 0.09 0.08 0.09 0.07 0.07 0.06
0.09 0.09 0.10 0.10 0.15 0.19 0.20 0.20 0.13 0.13 0.14 0.16 0.22 0.24 0.25 0.17 0.19 0.24 0.24 0.25 0.33 0.24 0.21 0.19 0.21 0.21 0.22 0.19 0.15 0.14 0.10 0.09 0.08 0.09 0.07 0.06 0.04 0.04 0.04 0.05 0.06 0.06 0.06 0.07 0.08 0.09 0.08 0.07 0.07 0.07 0.06 0.06 0.05 0.04